[[{"header":{"parameterUnit":"m.s-1","parameterCategory":1,"la1":31.0,"la2":29.5877,"lo1":-88.7671,"lo2":-86.6584,"dy":0.0162,"dx":0.0185,"nx":115,"ny":88,"refTime":"2025-07-05T12:00:00:Z","depth":0,"parameterNumber":2,"parameterNumberName":"U-component_of_WINDS"},"data":[0.0,0.0,0.0,0.0,0.0,0.0,0.0,0.0,0.0,0.0,0.0,0.0,0.0,0.0,0.0,0.0,0.0,0.0,0.0,0.0,0.0,0.0,0.0,0.0,0.0,0.0,0.0,0.0,0.0,0.0,0.0,0.0,0.0,0.0,0.0,0.0,0.0,0.0,0.0,0.0,0.0,0.0,0.0,0.0,0.0,0.0,0.0,0.0,0.0,0.0,0.0,0.0,0.0,0.0,0.0,0.0,0.0,0.0,0.0,0.0,0.0,0.0,0.0,0.0,0.0,0.0,0.0,0.0,0.0,0.0,0.0,0.0,0.0,0.0,0.0,0.0,0.0,0.0,0.0,0.0,0.0,0.0,0.0,0.0,0.0,0.0,0.0,0.0,0.0,0.0,0.0,0.0,0.0,0.0,0.0,0.0,0.0,0.0,0.0,0.0,0.0,0.0,0.0,0.0,0.0,0.0,0.0,0.0,0.0,0.0,0.0,0.0,0.0,0.0,0.0,0.0,0.0,0.0,0.0,0.0,0.0,0.0,0.0,0.0,0.0,0.0,0.0,0.0,0.0,0.0,0.0,0.0,0.0,0.0,0.0,0.0,0.0,0.0,0.0,0.0,0.0,0.0,0.0,0.0,0.0,0.0,0.0,0.0,0.0,0.0,0.0,0.0,0.0,0.0,0.0,0.0,0.0,0.0,0.0,0.0,0.0,0.0,0.0,0.0,0.0,0.0,0.0,0.0,0.0,0.0,0.0,0.0,0.0,0.0,0.0,0.0,0.0,0.0,0.0,0.0,0.0,0.0,0.0,0.0,0.0,0.0,0.0,0.0,0.0,0.0,0.0,0.0,0.0,0.0,0.0,0.0,0.0,0.0,0.0,0.0,0.0,0.0,0.0,0.0,0.0,0.0,0.0,0.0,0.0,0.0,0.0,0.0,0.0,0.0,0.0,0.0,0.0,0.0,0.0,0.0,0.0,0.0,0.0,0.0,0.0,0.0,0.0,0.0,0.0,0.0,0.0,0.0,0.0,0.0,0.0,0.0,0.0,0.0,0.0,0.0,0.0,0.0,0.0,0.0,0.0,0.0,0.0,0.0,0.0,0.0,0.0,0.0,0.0,0.0,0.0,0.0,0.0,0.0,0.0,0.0,0.0,0.0,0.0,0.0,0.0,0.0,0.0,0.0,0.0,0.0,0.0,0.0,0.0,0.0,0.0,0.0,0.0,0.0,0.0,0.0,0.0,0.0,0.0,0.0,0.0,0.0,0.0,0.0,0.0,0.0,0.0,0.0,0.0,0.0,0.0,0.0,0.0,0.0,0.0,0.0,0.0,0.0,0.0,0.0,0.0,0.0,0.0,0.0,0.0,0.0,0.0,0.0,0.0,0.0,0.0,0.0,0.0,0.0,0.0,0.0,0.0,0.0,0.0,0.0,0.0,0.0,0.0,0.0,0.0,0.0,0.0,0.0,0.0,0.0,0.0,0.0,0.0,0.0,0.0,0.0,0.0,0.0,0.0,0.0,0.0,0.0,0.0,0.0,0.0,0.0,0.0,0.0,0.0,0.0,0.0,0.0,0.0,0.0,0.0,0.0,0.0,0.0,0.0,0.0,0.0,0.0,0.0,0.0,0.0,0.0,0.0,0.0,0.0,0.0,0.0,0.0,0.0,0.0,0.0,0.0,0.0,0.0,0.0,0.0,0.0,0.0,0.0,0.0,0.0,0.0,0.0,0.0,0.0,0.0,0.0,0.0,0.0,0.0,0.0,0.0,0.0,0.0,0.0,0.0,0.0,0.0,0.0,0.0,0.0,0.0,0.0,0.0,0.0,0.0,0.0,0.0,0.0,0.0,0.0,0.0,0.0,0.0,0.0,0.0,0.0,0.0,0.0,0.0,0.0,0.0,0.0,0.0,0.0,0.0,0.0,0.0,0.0,0.0,0.0,0.0,0.0,0.0,0.0,0.0,0.0,0.0,0.0,0.0,0.0,0.0,0.0,0.0,0.0,0.0,0.0,0.0,0.0,0.0,0.0,0.0,0.0,0.0,0.0,0.0,0.0,0.0,0.0,0.0,0.0,0.0,0.0,0.0,0.0,0.0,0.0,0.0,0.0,0.0,0.0,0.0,0.0,0.0,0.0,0.0,0.0,0.0,0.0,0.0,0.0,0.0,0.0,0.0,0.0,0.0,0.0,0.0,0.0,0.0,0.0,0.0,0.0,0.0,0.0,0.0,0.0,0.0,0.0,0.0,0.0,0.0,0.0,0.0,0.0,0.0,0.0,0.0,0.0,0.0,0.0,0.0,0.0,0.0,0.0,0.0,0.0,0.0,0.0,0.0,0.0,0.0,0.0,0.0,0.0,0.0,0.0,0.0,0.0,0.0,0.0,0.0,0.0,0.0,0.0,0.0,0.0,0.0,0.0,0.0,0.0,0.0,0.0,0.0,0.0,0.0,0.0,0.0,0.0,0.0,0.0,0.0,0.0,0.0,0.0,0.0,0.0,0.0,0.0,0.0,0.0,0.0,0.0,0.0,0.0,0.0,0.0,0.0,0.0,0.0,0.0,0.0,0.0,0.0,0.0,0.0,0.0,0.0,0.0,0.0,0.0,0.0,0.0,0.0,0.0,0.0,0.0,0.0,0.0,0.0,0.0,0.0,0.0,0.0,0.0,0.0,0.0,0.0,0.0,0.0,0.0,0.0,0.0,0.0,0.0,0.0,0.0,0.0,0.0,0.0,0.0,0.0,0.0,0.0,0.0,0.0,0.0,0.0,0.0,0.0,0.0,0.0,0.0,0.0,0.0,0.0,0.0,0.0,0.0,0.0,0.0,0.0,0.0,0.0,0.0,0.0,0.0,0.0,0.0,0.0,0.0,0.0,0.0,0.0,0.0,0.0,0.0,0.0,0.0,0.0,0.0,0.0,0.0,0.0,0.0,0.0,0.0,0.0,0.0,0.0,0.0,0.0,0.0,0.0,0.0,0.0,0.0,0.0,0.0,0.0,0.0,0.0,0.0,0.0,0.0,0.0,0.0,0.0,0.0,0.0,0.0,0.0,0.0,0.0,0.0,0.0,0.0,0.0,0.0,0.0,0.0,0.0,0.0,0.0,0.0,0.0,0.0,0.0,0.0,0.0,0.0,0.0,0.0,0.0,0.0,0.0,0.0,0.0,0.0,0.0,0.0,0.0,0.0,0.0,0.0,0.0,0.0,0.0,0.0,0.0,0.0,0.0,0.0,0.0,0.0,0.0,0.0,0.0,0.0,0.0,0.0,0.0,0.0,0.0,0.0,0.0,0.0,0.0,0.0,0.0,0.0,0.0,0.0,0.0,0.0,0.0,0.0,0.0,0.0,0.0,0.0,0.0,0.0,0.0,0.0,0.0,0.0,0.0,0.0,0.0,0.0,0.0,0.0,0.0,0.0,0.0,0.0,0.0,0.0,0.0,0.0,0.0,0.0,0.0,0.0,0.0,0.0,0.0,0.0,0.0,0.0,0.0,0.0,0.0,0.0,0.0,0.0,0.0,0.0,0.0,0.0,0.0,0.0,0.0,0.0,0.0,0.0,0.0,0.0,0.0,0.0,0.0,0.0,0.0,0.0,0.0,0.0,0.0,0.0,0.0,0.0,0.0,0.0,0.0,0.0,0.0,0.0,0.0,0.0,0.0,0.0,0.0,0.0,0.0,0.0,0.0,0.0,0.0,0.0,0.0,0.0,0.0,0.0,0.0,0.0,0.0,0.0,0.0,0.0,0.0,0.0,0.0,0.0,0.0,0.0,0.0,0.0,0.0,0.0,0.0,0.0,0.0,0.0,0.0,0.0,0.0,0.0,0.0,0.0,0.0,0.0,0.0,0.0,0.0,0.0,0.0,0.0,0.0,0.0,0.0,0.0,0.0,0.0,0.0,0.0,0.0,0.0,0.0,0.0,0.0,0.0,0.0,0.0,0.0,0.0,0.0,0.0,0.0,0.0,0.0,0.0,0.0,0.0,0.0,0.0,0.0,0.0,0.0,0.0,0.0,0.0,0.0,0.0,0.0,0.0,0.0,0.0,0.0,0.0,0.0,0.0,0.0,0.0,0.0,0.0,0.0,0.0,0.0,0.0,0.0,0.0,0.0,0.0,0.0,0.0,0.0,0.0,0.0,0.0,0.0,0.0,0.0,0.0,0.0,0.0,0.0,0.0,0.0,0.0,0.0,0.0,0.0,0.0,0.0,0.0,0.0,0.0,0.0,0.0,0.0,0.0,0.0,0.0,0.0,0.0,0.0,0.0,0.0,-0.5819,0.0,0.0,0.0,0.0,0.0,0.0,0.0,0.0,0.0,0.0,0.0,0.0,0.0,0.0,0.0,0.0,0.0,0.0,0.0,0.0,0.0,0.0,0.0,0.0,0.0,0.0,0.0,0.0,0.0,0.0,0.0,0.0,0.0,0.0,0.0,0.0,0.0,0.0,0.0,0.0,0.0,0.0,0.0,0.0,0.0,0.0,0.0,0.0,0.0,0.0,0.0,0.0,0.0,0.0,0.0,0.0,0.0,0.0,0.0,0.0,0.0,0.0,0.0,0.0,0.0,0.0,0.0,0.0,0.0,0.0,0.0,0.0,0.0,0.0,0.0,0.0,0.0,0.0,0.0,0.0,0.0,0.0,0.0,0.0,0.0,0.0,0.0,0.0,0.0,0.0,0.0,0.0,0.0,0.0,0.0,0.0,0.0,0.0,0.0,0.0,0.0,0.0,0.0,0.0,0.0,0.0,0.0,0.0,0.0,0.0,-0.5847,-0.5847,-0.5847,-0.5828,-0.58,0.0,0.0,0.0,0.0,0.0,0.0,0.0,0.0,0.0,0.0,0.0,0.0,0.0,0.0,0.0,0.0,0.0,0.0,0.0,0.0,0.0,0.0,0.0,0.0,0.0,0.0,0.0,0.0,0.0,0.0,0.0,0.0,0.0,0.0,0.0,0.0,0.0,0.0,0.0,0.0,0.0,0.0,0.0,0.0,0.0,0.0,0.0,0.0,0.0,0.0,0.0,0.0,0.0,0.0,0.0,0.0,0.0,0.0,0.0,0.0,0.0,0.0,0.0,0.0,0.0,0.0,0.0,0.0,0.0,0.0,0.0,0.0,0.0,0.0,0.0,0.0,0.0,0.0,0.0,0.0,0.0,0.0,0.0,0.0,0.0,0.0,0.0,0.0,0.0,0.0,0.0,0.0,0.0,0.0,0.0,0.0,0.0,0.0,0.0,0.0,0.0,0.0,0.0,0.0,0.0,0.0,0.0,0.0,0.0,0.0,0.0,0.0,-0.6113,-0.6113,-0.6123,0.0,0.0,0.0,0.0,0.0,0.0,0.0,0.0,0.0,0.0,0.0,0.0,0.0,0.0,0.0,0.0,0.0,0.0,0.0,0.0,0.0,0.0,0.0,0.0,0.0,0.0,0.0,0.0,0.0,0.0,0.0,0.0,0.0,0.0,0.0,0.0,0.0,0.0,0.0,0.0,0.0,0.0,0.0,0.0,0.0,0.0,0.0,0.0,0.0,0.0,0.0,0.0,0.0,0.0,0.0,0.0,0.0,0.0,0.0,0.0,0.0,0.0,0.0,0.0,0.0,0.0,0.0,0.0,0.0,0.0,0.0,0.0,0.0,0.0,0.0,0.0,0.0,0.0,0.0,0.0,0.0,0.0,0.0,0.0,0.0,0.0,0.0,0.0,0.0,0.0,0.0,0.0,0.0,0.0,0.0,0.0,0.0,0.0,0.0,0.0,0.0,0.0,0.0,0.0,0.0,0.0,0.0,0.0,0.0,0.0,-0.6202,-0.7044,-0.7066,0.0,-0.7066,0.0,0.0,0.0,0.0,0.0,0.0,0.0,0.0,0.0,0.0,0.0,0.0,0.0,0.0,0.0,0.0,0.0,0.0,0.0,0.0,0.0,0.0,0.0,0.0,0.0,0.0,0.0,0.0,0.0,0.0,0.0,0.0,0.0,0.0,0.0,0.0,0.0,0.0,0.0,0.0,0.0,0.0,0.0,0.0,0.0,0.0,0.0,0.0,0.0,0.0,0.0,0.0,0.0,0.0,0.0,0.0,0.0,0.0,0.0,0.0,0.0,0.0,0.0,0.0,0.0,0.0,0.0,0.0,0.0,0.0,0.0,0.0,0.0,0.0,0.0,0.0,0.0,0.0,0.0,0.0,0.0,0.0,0.0,0.0,0.0,0.0,0.0,0.0,0.0,0.0,0.0,0.0,0.0,0.0,0.0,0.0,0.0,0.0,0.0,0.0,0.0,0.0,0.0,0.0,0.0,0.0,0.0,0.0,0.0,0.0,0.0,-0.7197,-0.7208,-0.7208,0.0,0.0,0.0,0.0,0.0,0.0,0.0,0.0,0.0,0.0,0.0,0.0,0.0,0.0,0.0,0.0,0.0,0.0,0.0,0.0,0.0,0.0,0.0,0.0,0.0,0.0,0.0,0.0,0.0,0.0,0.0,0.0,0.0,0.0,0.0,0.0,0.0,0.0,0.0,0.0,0.0,0.0,0.0,0.0,0.0,0.0,0.0,0.0,0.0,0.0,0.0,0.0,0.0,0.0,0.0,0.0,0.0,0.0,0.0,0.0,0.0,0.0,0.0,0.0,0.0,0.0,0.0,0.0,0.0,0.0,0.0,0.0,0.0,0.0,0.0,0.0,0.0,0.0,0.0,0.0,0.0,0.0,0.0,0.0,0.0,0.0,0.0,0.0,0.0,0.0,0.0,0.0,0.0,0.0,0.0,0.0,0.0,0.0,0.0,0.0,0.0,0.0,0.0,0.0,0.0,0.0,0.0,0.0,0.0,0.0,-0.699,0.0,-0.7567,-0.7458,-0.7328,-0.7208,0.0,0.0,0.0,0.0,0.0,0.0,0.0,0.0,0.0,0.0,0.0,0.0,0.0,0.0,0.0,0.0,0.0,0.0,0.0,0.0,0.0,0.0,0.0,0.0,0.0,0.0,0.0,0.0,0.0,0.0,0.0,0.0,0.0,0.0,0.0,0.0,0.0,0.0,0.0,0.0,0.0,0.0,0.0,0.0,0.0,0.0,0.0,0.0,0.0,0.0,0.0,0.0,0.0,0.0,0.0,0.0,0.0,0.0,0.0,0.0,0.0,0.0,0.0,0.0,0.0,0.0,0.0,0.0,0.0,0.0,0.0,0.0,0.0,0.0,0.0,0.0,0.0,0.0,0.0,0.0,0.0,0.0,0.0,0.0,0.0,0.0,0.0,0.0,0.0,0.0,0.0,0.0,0.0,0.0,0.0,0.0,0.0,0.0,0.0,0.0,0.0,0.0,0.0,0.0,0.0,0.0,0.0,0.0,0.0,-0.761,-0.762,-0.848,-0.8104,-0.7656,0.0,0.0,0.0,0.0,0.0,0.0,0.0,0.0,0.0,0.0,0.0,0.0,0.0,0.0,0.0,0.0,0.0,0.0,0.0,0.0,0.0,0.0,0.0,0.0,0.0,0.0,0.0,0.0,0.0,0.0,0.0,0.0,0.0,0.0,0.0,0.0,0.0,0.0,0.0,0.0,0.0,0.0,0.0,0.0,0.0,0.0,0.0,0.0,0.0,0.0,0.0,0.0,0.0,0.0,0.0,0.0,0.0,0.0,0.0,0.0,0.0,0.0,0.0,0.0,0.0,0.0,0.0,0.0,0.0,0.0,0.0,0.0,0.0,0.0,0.0,0.0,0.0,0.0,0.0,0.0,0.0,0.0,0.0,0.0,0.0,0.0,0.0,0.0,0.0,0.0,0.0,0.0,0.0,0.0,0.0,0.0,0.0,0.0,0.0,0.0,0.0,0.0,0.0,0.0,0.0,0.0,0.0,0.0,0.0,-0.6662,-0.6965,-0.7748,-0.8945,-0.8012,-0.7514,0.0,0.0,0.0,0.0,0.0,0.0,0.0,0.0,0.0,0.0,0.0,0.0,0.0,0.0,0.0,0.0,0.0,0.0,0.0,0.0,0.0,0.0,0.0,0.0,0.0,0.0,0.0,0.0,0.0,0.0,0.0,0.0,0.0,0.0,0.0,0.0,0.0,0.0,0.0,0.0,0.0,0.0,0.0,0.0,0.0,0.0,0.0,0.0,0.0,0.0,0.0,0.0,0.0,0.0,0.0,0.0,0.0,0.0,0.0,0.0,0.0,0.0,0.0,0.0,0.0,0.0,0.0,0.0,0.0,0.0,0.0,0.0,0.0,0.0,0.0,0.0,0.0,0.0,0.0,0.0,0.0,0.0,0.0,0.0,0.0,0.0,0.0,0.0,0.0,0.0,0.0,0.0,0.0,0.0,0.0,0.0,0.0,0.0,0.0,0.0,0.0,0.0,0.0,0.0,0.0,0.0,0.0,0.0,0.0,-0.6318,0.0,-0.7997,0.0,-0.7785,-0.7219,0.0,0.0,0.0,0.0,0.0,0.0,0.0,0.0,0.0,0.0,0.0,0.0,0.0,0.0,0.0,0.0,0.0,0.0,0.0,0.0,0.0,0.0,0.0,0.0,0.0,0.0,0.0,0.0,0.0,0.0,0.0,0.0,0.0,0.0,0.0,0.0,0.0,0.0,0.0,0.0,0.0,0.0,0.0,0.0,0.0,0.0,0.0,0.0,0.0,0.0,0.0,0.0,0.0,0.0,0.0,0.0,0.0,0.0,0.0,0.0,0.0,0.0,0.0,0.0,0.0,0.0,0.0,0.0,0.0,0.0,0.0,0.0,0.0,0.0,0.0,0.0,0.0,0.0,0.0,0.0,0.0,0.0,0.0,0.0,0.0,0.0,0.0,0.0,0.0,0.0,0.0,0.0,0.0,0.0,0.0,0.0,0.0,0.0,0.0,0.0,0.0,0.0,0.0,0.0,0.0,0.0,0.0,0.0,-0.6308,-0.7695,-0.8258,-0.8328,-0.7931,-0.746,-0.6782,0.0,0.0,0.0,0.0,0.0,0.0,0.0,0.0,0.0,0.0,0.0,0.0,0.0,0.0,0.0,0.0,0.0,0.0,0.0,0.0,0.0,0.0,0.0,0.0,0.0,0.0,0.0,0.0,0.0,0.0,0.0,0.0,0.0,0.0,0.0,0.0,0.0,0.0,0.0,0.0,0.0,0.0,0.0,0.0,0.0,0.0,0.0,0.0,0.0,0.0,0.0,0.0,0.0,0.0,0.0,0.0,0.0,0.0,0.0,0.0,0.0,0.0,0.0,0.0,0.0,0.0,0.0,0.0,0.0,0.0,0.0,0.0,0.0,0.0,0.0,0.0,0.0,0.0,0.0,0.0,0.0,0.0,0.0,0.0,0.0,0.0,0.0,0.0,0.0,0.0,0.0,0.0,0.0,0.0,0.0,0.0,0.0,0.0,0.0,0.0,0.0,0.0,0.0,0.0,0.0,0.0,0.0,0.0,0.0,-0.6789,-0.76,-0.816,-0.8328,-0.7296,-0.6881,0.0,0.0,0.0,0.0,0.0,0.0,0.0,0.0,0.0,0.0,0.0,0.0,0.0,0.0,0.0,0.0,0.0,0.0,0.0,0.0,0.0,0.0,0.0,0.0,0.0,0.0,0.0,0.0,0.0,0.0,0.0,0.0,0.0,0.0,0.0,0.0,0.0,0.0,0.0,0.0,0.0,0.0,0.0,0.0,0.0,0.0,0.0,0.0,0.0,0.0,0.0,0.0,0.0,0.0,0.0,0.0,0.0,0.0,0.0,0.0,0.0,0.0,0.0,0.0,0.0,0.0,0.0,0.0,0.0,0.0,0.0,0.0,0.0,0.0,0.0,0.0,0.0,0.0,0.0,0.0,0.0,0.0,0.0,0.0,0.0,0.0,0.0,0.0,0.0,0.0,0.0,0.0,0.0,0.0,0.0,0.0,0.0,0.0,0.0,0.0,0.0,0.0,0.0,0.0,0.0,0.0,0.0,0.0,0.0,-0.7607,-0.8406,-0.8944,-0.9152,-0.7929,-0.7295,-0.7351,0.0,0.0,0.0,0.0,0.0,0.0,0.0,0.0,0.0,0.0,0.0,0.0,0.0,0.0,0.0,0.0,0.0,0.0,0.0,0.0,0.0,0.0,0.0,0.0,0.0,0.0,0.0,0.0,0.0,0.0,0.0,0.0,0.0,0.0,0.0,0.0,0.0,0.0,0.0,0.0,0.0,0.0,0.0,0.0,0.0,0.0,0.0,0.0,0.0,0.0,0.0,0.0,0.0,0.0,0.0,0.0,0.0,0.0,0.0,0.0,0.0,0.0,0.0,0.0,0.0,0.0,0.0,0.0,0.0,0.0,0.0,0.0,0.0,0.0,0.0,0.0,0.0,0.0,0.0,0.0,0.0,0.0,0.0,0.0,0.0,0.0,0.0,0.0,0.0,0.0,0.0,0.0,0.0,0.0,0.0,0.0,0.0,0.0,0.0,0.0,0.0,0.0,0.0,0.0,0.0,0.0,0.0,0.0,-0.9776,-1.0464,-1.0629,-1.0245,-0.921,-0.8047,0.0,0.0,0.0,0.0,0.0,0.0,0.0,0.0,0.0,0.0,0.0,0.0,0.0,0.0,0.0,0.0,0.0,0.0,0.0,0.0,0.0,0.0,0.0,0.0,0.0,0.0,0.0,0.0,0.0,0.0,0.0,0.0,0.0,0.0,0.0,0.0,0.0,0.0,0.0,0.0,0.0,0.0,0.0,0.0,0.0,0.0,0.0,0.0,0.0,0.0,0.0,0.0,0.0,0.0,0.0,0.0,0.0,0.0,0.0,0.0,0.0,0.0,0.0,0.0,0.0,0.0,0.0,0.0,0.0,0.0,0.0,0.0,0.0,0.0,0.0,0.0,0.0,0.0,0.0,0.0,0.0,0.0,0.0,0.0,0.0,0.0,0.0,0.0,0.0,0.0,0.0,0.0,0.0,0.0,0.0,0.0,0.0,0.0,0.0,0.0,0.0,0.0,0.0,0.0,0.0,0.0,0.0,0.0,0.0,-1.0741,-1.2542,-1.2964,-1.1903,-1.0314,-0.9167,0.0,0.0,0.0,0.0,0.0,0.0,0.0,0.0,0.0,0.0,0.0,0.0,0.0,0.0,0.0,0.0,0.0,0.0,0.0,0.0,0.0,0.0,0.0,0.0,0.0,0.0,0.0,0.0,0.0,0.0,0.0,0.0,0.0,0.0,0.0,0.0,0.0,0.0,0.0,0.0,0.0,0.0,0.0,0.0,0.0,0.0,0.0,0.0,0.0,0.0,0.0,0.0,0.0,0.0,0.0,0.0,0.0,0.0,0.0,0.0,0.0,0.0,0.0,0.0,0.0,0.0,0.0,0.0,0.0,0.0,0.0,0.0,0.0,0.0,0.0,0.0,0.0,0.0,0.0,0.0,0.0,0.0,0.0,0.0,0.0,0.0,0.0,0.0,0.0,0.0,0.0,0.0,0.0,0.0,0.0,0.0,0.0,0.0,0.0,0.0,0.0,0.0,0.0,0.0,0.0,0.0,0.0,0.0,-1.0472,-1.186,-1.3938,-1.4662,-1.3952,-1.2043,-1.0434,0.0,0.0,0.0,0.0,0.0,0.0,0.0,0.0,0.0,0.0,0.0,0.0,0.0,0.0,0.0,0.0,0.0,0.0,0.0,0.0,0.0,0.0,0.0,0.0,0.0,0.0,0.0,0.0,0.0,0.0,0.0,0.0,0.0,0.0,0.0,0.0,0.0,0.0,0.0,0.0,0.0,0.0,0.0,0.0,0.0,0.0,0.0,0.0,0.0,0.0,0.0,0.0,0.0,0.0,0.0,0.0,0.0,0.0,0.0,0.0,0.0,0.0,0.0,0.0,0.0,0.0,0.0,0.0,0.0,0.0,0.0,0.0,0.0,0.0,0.0,0.0,0.0,0.0,0.0,0.0,0.0,0.0,0.0,0.0,0.0,0.0,0.0,0.0,0.0,0.0,0.0,0.0,0.0,0.0,0.0,0.0,0.0,0.0,0.0,0.0,0.0,0.0,0.0,0.0,0.0,0.0,0.0,0.0,-1.12,-1.2946,-1.48,-1.5825,-1.5905,-1.3893,-1.1664,0.0,0.0,0.0,0.0,0.0,0.0,0.0,0.0,0.0,0.0,0.0,0.0,0.0,0.0,0.0,0.0,0.0,0.0,0.0,0.0,0.0,0.0,0.0,0.0,0.0,0.0,0.0,0.0,0.0,0.0,0.0,0.0,0.0,0.0,0.0,0.0,0.0,0.0,0.0,0.0,0.0,0.0,0.0,0.0,0.0,0.0,0.0,0.0,0.0,0.0,0.0,0.0,0.0,0.0,0.0,0.0,0.0,0.0,0.0,0.0,0.0,0.0,0.0,0.0,0.0,0.0,0.0,0.0,0.0,0.0,0.0,0.0,0.0,0.0,0.0,0.0,0.0,0.0,0.0,0.0,0.0,0.0,0.0,0.0,0.0,0.0,0.0,0.0,0.0,0.0,0.0,0.0,0.0,0.0,0.0,0.0,0.0,0.0,0.0,0.0,0.0,0.0,0.0,0.0,0.0,0.0,0.0,0.0,-1.1996,-1.3421,-1.5277,-1.6314,-1.6441,-1.4261,-1.2351,0.0,0.0,0.0,0.0,0.0,0.0,0.0,0.0,0.0,0.0,0.0,0.0,0.0,0.0,0.0,0.0,0.0,0.0,0.0,0.0,0.0,0.0,0.0,0.0,0.0,0.0,0.0,0.0,0.0,0.0,0.0,0.0,0.0,0.0,0.0,0.0,0.0,0.0,0.0,0.0,0.0,0.0,0.0,0.0,0.0,0.0,0.0,0.0,-0.4929,0.0,0.0,0.0,0.0,0.0,0.0,0.0,0.0,0.0,0.0,0.0,0.0,0.0,0.0,0.0,0.0,0.0,0.0,0.0,0.0,0.0,0.0,0.0,0.0,0.0,0.0,0.0,0.0,0.0,0.0,0.0,0.0,0.0,0.0,0.0,0.0,0.0,0.0,0.0,0.0,0.0,0.0,0.0,0.0,0.0,0.0,0.0,0.0,0.0,0.0,0.0,0.0,0.0,0.0,0.0,0.0,0.0,0.0,0.0,-1.269,-1.4231,-1.5649,-1.6459,-1.6507,-1.5052,-1.3401,0.0,0.0,0.0,0.0,0.0,0.0,0.0,0.0,0.0,0.0,0.0,0.0,0.0,0.0,0.0,0.0,0.0,0.0,0.0,0.0,0.0,0.0,0.0,0.0,0.0,0.0,0.0,0.0,0.0,0.0,0.0,0.0,0.0,0.0,0.0,0.0,0.0,0.0,0.0,0.0,0.0,0.0,0.0,0.0,0.0,0.0,0.0,0.0,0.0,0.0,0.0,0.0,0.0,0.0,0.0,0.0,0.0,0.0,0.0,0.0,0.0,0.0,0.0,0.0,0.0,0.0,0.0,0.0,0.0,0.0,0.0,0.0,0.0,0.0,0.0,0.0,0.0,0.0,0.0,0.0,0.0,0.0,0.0,0.0,0.0,0.0,0.0,0.0,0.0,0.0,0.0,0.0,0.0,0.0,0.0,0.0,0.0,0.0,0.0,0.0,0.0,0.0,0.0,0.0,0.0,0.0,0.0,-1.1316,-1.3155,-1.5132,-1.6008,-1.6488,-1.6588,-1.5807,-1.4312,-1.2084,0.0,0.0,0.0,0.0,0.0,0.0,0.0,0.0,0.0,0.0,0.0,0.0,0.0,0.0,0.0,0.0,0.0,0.0,0.0,0.0,0.0,0.0,0.0,0.0,0.0,0.0,0.0,0.0,0.0,0.0,0.0,0.0,0.0,0.0,0.0,0.0,0.0,0.0,-0.4502,-0.4814,0.0,0.0,0.0,0.0,0.0,0.0,0.0,0.0,-0.4965,0.0,0.0,0.0,0.0,0.0,0.0,0.0,0.0,0.0,0.0,0.0,0.0,0.0,0.0,0.0,0.0,0.0,0.0,0.0,0.0,0.0,0.0,0.0,0.0,0.0,0.0,0.0,0.0,0.0,0.0,0.0,0.0,0.0,0.0,0.0,0.0,0.0,0.0,0.0,0.0,0.0,0.0,0.0,0.0,0.0,0.0,0.0,0.0,0.0,0.0,0.0,0.0,0.0,0.0,0.0,0.0,-1.1727,-1.1572,-1.2973,-1.6091,-1.633,-1.6488,-1.6578,-1.5726,-1.4328,-1.2478,0.0,0.0,0.0,0.0,0.0,0.0,0.0,0.0,0.0,0.0,0.0,0.0,0.0,0.0,0.0,0.0,0.0,0.0,0.0,0.0,0.0,0.0,0.0,0.0,0.0,0.0,0.0,0.0,0.0,0.0,0.0,0.0,0.0,0.0,0.0,0.0,0.0,0.0,0.0,-0.6259,-0.6482,0.0,0.0,0.0,0.0,0.0,0.0,0.0,0.0,-0.5229,0.0,0.0,0.0,0.0,0.0,0.0,0.0,0.0,0.0,0.0,0.0,0.0,0.0,0.0,0.0,0.0,0.0,0.0,0.0,0.0,0.0,0.0,0.0,0.0,0.0,0.0,0.0,0.0,0.0,0.0,0.0,0.0,0.0,0.0,0.0,0.0,0.0,0.0,0.0,0.0,0.0,0.0,0.0,0.0,0.0,0.0,0.0,0.0,0.0,0.0,0.0,0.0,0.0,0.0,0.0,-1.1297,-1.2361,-1.4012,-1.6309,-1.6402,-1.6431,-1.6475,-1.5211,-1.3852,0.0,0.0,0.0,0.0,0.0,0.0,0.0,0.0,0.0,0.0,0.0,0.0,0.0,0.0,0.0,0.0,0.0,0.0,0.0,0.0,0.0,0.0,0.0,0.0,0.0,0.0,0.0,0.0,0.0,0.0,0.0,0.0,0.0,0.0,0.0,0.0,0.0,0.0,0.0,0.0,-0.6602,-0.7007,-0.7547,0.0,0.0,0.0,0.0,0.0,0.0,-0.6189,-0.5759,0.0,0.0,0.0,0.0,0.0,0.0,0.0,0.0,0.0,0.0,0.0,0.0,0.0,0.0,0.0,0.0,0.0,0.0,0.0,0.0,0.0,0.0,0.0,0.0,0.0,0.0,0.0,0.0,0.0,0.0,0.0,0.0,0.0,0.0,0.0,0.0,0.0,0.0,0.0,0.0,0.0,0.0,0.0,0.0,0.0,0.0,0.0,0.0,0.0,0.0,0.0,0.0,0.0,0.0,0.0,-1.0688,-1.2845,-1.4738,-1.6319,-1.6402,-1.6431,-1.64,-1.4912,-1.3476,0.0,0.0,0.0,0.0,0.0,0.0,0.0,0.0,0.0,0.0,0.0,0.0,0.0,0.0,0.0,0.0,0.0,0.0,0.0,0.0,0.0,0.0,0.0,0.0,0.0,0.0,0.0,0.0,0.0,0.0,0.0,0.0,0.0,0.0,0.0,0.0,0.0,0.0,0.0,0.0,0.0,-0.7592,-0.8316,-0.7603,0.0,0.0,0.0,0.0,-0.7277,-0.7093,0.0,0.0,0.0,0.0,0.0,0.0,0.0,0.0,0.0,0.0,0.0,0.0,0.0,0.0,0.0,0.0,0.0,0.0,0.0,0.0,0.0,0.0,0.0,0.0,0.0,0.0,0.0,0.0,0.0,0.0,0.0,0.0,0.0,0.0,0.0,0.0,0.0,0.0,0.0,0.0,0.0,0.0,0.0,0.0,0.0,0.0,0.0,0.0,0.0,0.0,0.0,0.0,0.0,0.0,0.0,0.0,-1.0799,-1.2143,-1.396,-1.6278,-1.6506,-1.6581,-1.656,-1.5299,-1.3738,0.0,0.0,0.0,0.0,0.0,0.0,0.0,0.0,0.0,0.0,0.0,0.0,0.0,0.0,0.0,0.0,0.0,0.0,0.0,0.0,0.0,0.0,0.0,0.0,0.0,0.0,0.0,0.0,0.0,0.0,0.0,0.0,0.0,0.0,0.0,0.0,0.0,0.0,0.0,0.0,0.0,-0.8966,-0.8537,-0.8086,-0.7921,0.0,0.0,-0.8088,-0.9112,-0.9051,0.0,0.0,0.0,0.0,0.0,0.0,0.0,0.0,0.0,0.0,0.0,0.0,0.0,0.0,0.0,0.0,0.0,0.0,0.0,0.0,0.0,0.0,0.0,0.0,0.0,0.0,0.0,0.0,0.0,0.0,0.0,0.0,0.0,0.0,0.0,0.0,0.0,0.0,0.0,0.0,0.0,0.0,0.0,0.0,0.0,0.0,0.0,0.0,0.0,0.0,0.0,0.0,0.0,0.0,0.0,-0.9213,-1.0918,-1.2919,-1.4764,-1.634,-1.6534,-1.6609,-1.6599,-1.4595,-1.2966,0.0,0.0,0.0,0.0,0.0,0.0,0.0,0.0,0.0,0.0,0.0,0.0,0.0,0.0,0.0,0.0,0.0,0.0,0.0,0.0,0.0,0.0,0.0,0.0,0.0,0.0,0.0,0.0,0.0,0.0,0.0,0.0,0.0,0.0,0.0,0.0,0.0,0.0,0.0,0.0,0.0,0.0,-0.9549,-0.9081,0.0,0.0,0.0,-0.8888,-0.9405,0.0,0.0,0.0,0.0,0.0,0.0,0.0,0.0,0.0,0.0,0.0,0.0,0.0,0.0,0.0,0.0,0.0,0.0,0.0,0.0,0.0,0.0,0.0,0.0,0.0,0.0,0.0,0.0,0.0,0.0,0.0,0.0,0.0,0.0,0.0,0.0,0.0,0.0,0.0,0.0,0.0,0.0,0.0,0.0,0.0,0.0,0.0,0.0,0.0,0.0,0.0,0.0,0.0,0.0,0.0,0.0,0.0,-1.0928,-1.3647,-1.5496,-1.6418,-1.662,-1.6701,-1.6669,-1.4545,0.0,0.0,0.0,0.0,0.0,0.0,0.0,0.0,0.0,0.0,0.0,0.0,0.0,0.0,0.0,0.0,0.0,0.0,0.0,0.0,0.0,0.0,0.0,0.0,0.0,0.0,0.0,-0.3368,0.0,0.0,0.0,0.0,0.0,0.0,0.0,0.0,0.0,0.0,0.0,0.0,0.0,0.0,-0.9346,-1.0275,-0.9957,-0.99,0.0,0.0,-0.9708,-1.0012,-1.0345,-0.9951,0.0,0.0,0.0,0.0,0.0,0.0,0.0,0.0,0.0,0.0,0.0,0.0,0.0,0.0,0.0,0.0,0.0,0.0,0.0,0.0,0.0,0.0,0.0,0.0,0.0,0.0,0.0,0.0,0.0,0.0,0.0,0.0,0.0,0.0,0.0,0.0,0.0,0.0,0.0,0.0,0.0,0.0,0.0,0.0,0.0,0.0,0.0,0.0,0.0,0.0,0.0,0.0,0.0,0.0,0.0,-1.0952,-1.3732,-1.5636,-1.6567,-1.6842,-1.6955,-1.6972,-1.6066,-1.4488,0.0,0.0,0.0,0.0,0.0,0.0,0.0,0.0,0.0,0.0,0.0,0.0,0.0,0.0,0.0,0.0,0.0,0.0,0.0,0.0,0.0,0.0,0.0,0.0,0.0,0.0,0.0,0.0,0.0,0.0,0.0,0.0,0.0,0.0,0.0,0.0,0.0,0.0,0.0,0.0,0.0,-1.0299,-1.0149,-1.0295,-1.077,0.0,0.0,-1.0727,-1.1679,-1.2146,-1.1686,-0.9597,0.0,0.0,0.0,0.0,0.0,0.0,0.0,0.0,0.0,0.0,0.0,0.0,0.0,0.0,0.0,0.0,0.0,0.0,0.0,0.0,0.0,0.0,0.0,0.0,0.0,0.0,0.0,0.0,0.0,0.0,0.0,0.0,0.0,0.0,0.0,0.0,0.0,0.0,0.0,0.0,0.0,0.0,0.0,0.0,0.0,0.0,0.0,0.0,0.0,0.0,0.0,0.0,0.0,-1.0295,-1.1063,-1.4052,-1.5974,-1.6691,-1.6899,-1.7011,-1.7011,-1.6211,-1.4795,0.0,0.0,0.0,0.0,0.0,0.0,0.0,0.0,0.0,0.0,0.0,0.0,0.0,0.0,0.0,0.0,0.0,0.0,0.0,0.0,0.0,0.0,0.0,0.0,0.0,0.0,0.0,0.0,-0.4735,-0.4779,-0.4696,0.0,0.0,0.0,0.0,0.0,0.0,0.0,0.0,0.0,0.0,-1.0493,-1.1181,-1.1145,0.0,0.0,-1.1478,-1.118,-1.1628,-1.1638,-1.1043,-0.9368,-0.8641,0.0,0.0,0.0,0.0,0.0,0.0,0.0,0.0,0.0,0.0,0.0,0.0,0.0,0.0,0.0,0.0,0.0,0.0,0.0,0.0,0.0,0.0,0.0,0.0,0.0,0.0,0.0,0.0,0.0,0.0,0.0,0.0,0.0,0.0,0.0,0.0,0.0,0.0,0.0,0.0,0.0,0.0,0.0,0.0,0.0,0.0,0.0,0.0,0.0,0.0,0.0,0.0,-1.0625,-1.1346,-1.445,-1.629,-1.6842,-1.7022,-1.7106,-1.7056,-1.6531,-1.5407,0.0,0.0,0.0,0.0,0.0,0.0,0.0,0.0,0.0,0.0,0.0,0.0,0.0,0.0,0.0,0.0,0.0,0.0,0.0,0.0,0.0,0.0,0.0,0.0,0.0,0.0,0.0,0.0,-0.5009,-0.4941,-0.4731,0.0,0.0,0.0,0.0,0.0,0.0,0.0,0.0,0.0,0.0,-1.0821,-1.172,-1.1606,-1.154,-1.1802,-1.1513,-1.1347,-1.1483,-1.1384,-1.0859,-0.9591,0.0,0.0,0.0,0.0,0.0,0.0,0.0,0.0,0.0,0.0,0.0,0.0,0.0,0.0,0.0,0.0,0.0,0.0,0.0,0.0,0.0,0.0,0.0,0.0,0.0,0.0,0.0,0.0,0.0,0.0,-0.5544,0.0,0.0,0.0,0.0,0.0,0.0,0.0,0.0,0.0,0.0,0.0,0.0,0.0,0.0,0.0,0.0,0.0,0.0,0.0,0.0,0.0,0.0,-1.0891,-1.1923,-1.4841,-1.6575,-1.7,-1.72,-1.7278,-1.7306,-1.7273,-1.6546,-1.5039,0.0,0.0,0.0,0.0,0.0,0.0,0.0,0.0,0.0,0.0,0.0,0.0,0.0,0.0,0.0,0.0,0.0,0.0,0.0,0.0,0.0,0.0,0.0,0.0,0.0,0.0,-0.4383,-0.4545,-0.4704,0.0,0.0,0.0,0.0,0.0,0.0,0.0,0.0,0.0,0.0,-1.0589,-1.1491,-1.1503,-1.1511,-1.1514,-1.1551,-1.1265,-1.1153,-1.1471,-1.1765,-1.1646,0.0,0.0,0.0,0.0,0.0,0.0,0.0,0.0,0.0,0.0,0.0,0.0,0.0,0.0,0.0,0.0,0.0,0.0,0.0,0.0,0.0,0.0,0.0,0.0,0.0,0.0,0.0,-0.9102,-0.8385,0.0,0.0,0.0,0.0,0.0,0.0,0.0,0.0,0.0,0.0,0.0,-1.2872,-1.3399,0.0,0.0,0.0,0.0,0.0,0.0,0.0,0.0,0.0,0.0,0.0,0.0,-1.1474,-1.2654,-1.5354,-1.6915,-1.72,-1.7267,-1.7306,-1.7306,-1.7306,-1.6448,-1.4692,0.0,0.0,0.0,0.0,0.0,0.0,0.0,0.0,0.0,0.0,0.0,0.0,0.0,0.0,0.0,0.0,0.0,0.0,0.0,0.0,0.0,0.0,0.0,0.0,0.0,-0.4811,0.0,0.0,0.0,0.0,0.0,0.0,0.0,0.0,0.0,0.0,0.0,-0.9581,-1.0074,-1.0717,-1.1328,-1.1773,-1.1837,-1.2003,0.0,0.0,0.0,0.0,0.0,0.0,0.0,0.0,0.0,0.0,0.0,0.0,0.0,0.0,-1.0027,-0.804,-0.756,-0.7558,-0.7857,0.0,0.0,0.0,0.0,0.0,0.0,0.0,0.0,0.0,0.0,0.0,0.0,0.0,0.0,-1.1406,0.0,-1.0685,0.0,0.0,0.0,0.0,0.0,0.0,0.0,0.0,-1.4073,-1.5181,-1.5408,-1.594,-1.5908,0.0,-1.4567,-1.3076,0.0,0.0,0.0,0.0,0.0,0.0,0.0,0.0,-1.2311,-1.3456,-1.5842,-1.7172,-1.7278,-1.7306,-1.7306,-1.7306,-1.7306,-1.6617,-1.517,-1.3892,-1.256,0.0,0.0,0.0,0.0,0.0,0.0,0.0,0.0,0.0,0.0,0.0,0.0,0.0,0.0,0.0,0.0,0.0,0.0,0.0,0.0,0.0,0.0,0.0,-0.5502,0.0,0.0,0.0,0.0,0.0,0.0,0.0,0.0,0.0,-0.9979,-1.0288,-1.0645,-1.1165,-1.1531,-1.1797,-1.1988,0.0,0.0,0.0,0.0,0.0,0.0,0.0,-1.166,-1.143,-1.1443,-1.1501,-1.1646,-1.2216,-1.2639,-1.2569,0.0,0.0,-1.0086,-0.9551,-0.9614,-1.0026,-1.0103,-1.0299,-1.1041,-1.1159,-1.1201,0.0,0.0,0.0,0.0,0.0,0.0,0.0,0.0,-1.3793,-1.3524,0.0,-1.3049,0.0,0.0,0.0,0.0,0.0,-1.3114,0.0,0.0,-1.7284,-1.8259,-1.7846,-1.7856,-1.7838,-1.7835,-1.7473,-1.676,-1.5625,-1.2989,0.0,0.0,0.0,0.0,0.0,0.0,-1.3434,-1.4451,-1.6343,-1.7306,-1.7306,-1.7306,-1.7306,-1.7306,-1.7306,-1.7065,-1.6509,-1.5618,-1.4448,-1.2998,-1.1184,0.0,0.0,0.0,0.0,0.0,0.0,0.0,0.0,0.0,0.0,0.0,0.0,0.0,0.0,0.0,0.0,0.0,0.0,0.0,0.0,-0.6776,0.0,0.0,0.0,0.0,0.0,0.0,0.0,0.0,0.0,0.0,-1.1832,-1.1675,-1.1786,-1.2455,0.0,0.0,0.0,0.0,-1.2375,-1.1749,-1.1606,-1.163,-1.1654,-1.248,-1.3116,-1.3132,0.0,0.0,-1.4153,-1.4148,-1.4053,-1.3711,-1.3934,-1.3839,-1.2869,-1.2064,-1.1798,-1.2336,-1.2316,-1.2418,-1.2943,-1.3331,-1.3581,-1.7802,0.0,0.0,0.0,0.0,-1.5653,-1.6363,-1.7543,-1.7532,-1.6891,-1.5839,-1.5839,0.0,0.0,0.0,0.0,0.0,0.0,-1.5575,-1.6483,-1.7849,-1.8644,-1.8933,-1.9165,-1.9186,-1.8942,-1.8761,-1.8382,-1.7817,-1.701,-1.4684,-1.1021,0.0,0.0,0.0,0.0,-1.4122,-1.5411,-1.6645,-1.7306,-1.7306,-1.7306,-1.7306,-1.7306,-1.7306,-1.724,-1.7087,-1.6459,-1.5607,-1.4515,-1.2954,0.0,0.0,0.0,0.0,0.0,0.0,0.0,0.0,0.0,0.0,0.0,0.0,0.0,0.0,0.0,0.0,0.0,0.0,0.0,-0.6946,-0.7518,-0.7713,0.0,0.0,0.0,0.0,0.0,0.0,0.0,0.0,0.0,-1.2925,-1.2589,-1.2211,0.0,0.0,-1.2089,-1.2391,-1.2742,-1.3132,-1.3656,-1.371,0.0,0.0,-1.3958,-1.3902,-1.4122,-1.4665,-1.499,-1.4895,-1.507,-1.5197,-1.5123,-1.5194,-1.5118,-1.4847,-1.4221,-1.3904,-1.4265,-1.4348,-1.4462,-1.482,-1.5041,-1.5115,-2.0932,-1.9331,-1.8019,-1.7812,-1.8339,-1.836,-1.8918,-1.9882,-1.9882,-1.9303,-1.8349,-1.8339,-1.7439,-1.5955,-1.5642,0.0,0.0,0.0,-1.7693,-1.8507,-1.9347,-1.9922,-2.0293,-2.0477,-2.0466,-2.0282,-1.9998,-1.9781,-1.9539,-1.896,-1.7119,-1.412,0.0,0.0,-1.3521,-1.458,-1.564,-1.665,-1.7453,-1.7776,-1.7601,-1.7376,-1.7306,-1.7306,-1.7306,-1.7306,-1.7306,-1.6972,-1.647,-1.5694,-1.4448,-1.2976,0.0,0.0,0.0,0.0,0.0,0.0,0.0,0.0,0.0,0.0,0.0,-0.8007,0.0,0.0,0.0,0.0,-0.6785,-0.8023,-0.8222,-0.8949,0.0,0.0,0.0,0.0,0.0,0.0,0.0,-1.1132,-1.234,-1.3358,-1.3924,-1.4024,-1.3874,-1.3348,-1.3084,-1.306,-1.3346,0.0,-1.4093,-1.4534,-1.4605,-1.4676,-1.4927,-1.4839,-1.4903,-1.5358,-1.5611,-1.5793,-1.5809,-1.5968,-1.6087,-1.6095,-1.6095,-1.6095,-1.6095,-1.5707,-1.5437,-1.557,-1.5586,-1.5705,-1.6023,-1.6206,-1.6349,-2.3329,-2.308,-2.0565,-1.9955,-2.0638,-2.0612,-2.0876,-2.1269,-2.128,-2.1021,-2.0586,-2.0622,-2.0159,-1.9289,-1.8585,0.0,-1.9212,-1.9792,-2.0268,-2.0699,-2.1315,-2.1592,-2.1603,-2.1592,-2.1603,-2.1605,-2.1168,-2.096,-2.0883,-1.9571,-1.8622,-1.8163,-1.7693,-1.7136,-1.6552,-1.7005,-1.7547,-1.7999,-1.8414,-1.8436,-1.8065,-1.7623,-1.7361,-1.7344,-1.7328,-1.7306,-1.7306,-1.7306,-1.706,-1.6552,-1.5716,-1.4557,-1.3128,0.0,0.0,0.0,0.0,0.0,0.0,0.0,0.0,0.0,0.0,0.0,0.0,0.0,0.0,0.0,-0.8609,0.0,-1.0282,-1.0832,0.0,0.0,0.0,-1.14,-1.1737,-1.2654,-1.311,-1.2787,0.0,0.0,-1.486,-1.5751,-1.619,-1.5514,-1.5325,-1.5104,-1.4764,-1.5032,-1.5147,-1.4827,-1.4779,-1.4795,-1.4962,-1.5388,-1.592,-1.6451,-1.6689,-1.6634,-1.6634,-1.6642,-1.6681,-1.665,-1.6681,-1.6673,-1.6681,-1.6642,-1.6675,-1.6341,-1.6293,-1.6389,-1.669,-1.7008,-1.7281,-2.454,-2.4125,-2.3505,-2.2926,-2.2532,-2.2532,-2.2594,-2.2687,-2.2845,-2.2663,-2.2234,-2.2436,-2.2067,-2.1311,-2.0915,-2.0834,-2.0977,-2.112,-2.1228,-2.1348,-2.1538,-2.1603,-2.1603,-2.1603,-2.1603,-2.1581,-2.1472,-2.1417,-2.1385,-2.073,-2.0107,-1.9605,-1.9115,-1.8079,-1.6563,-1.7027,-1.7518,-1.801,-1.8119,-1.8283,-1.8512,-1.8075,-1.7824,-1.7824,-1.7492,-1.7306,-1.7306,-1.7306,-1.7251,-1.7092,-1.6514,-1.5694,-1.4611,-1.23,0.0,0.0,0.0,0.0,0.0,0.0,0.0,0.0,0.0,-1.0826,-0.8185,0.0,-0.9585,0.0,-0.958,-1.1877,-1.2036,-1.2221,0.0,0.0,-1.3255,-1.3602,-1.4194,-1.482,-1.5178,-1.5044,-1.577,-1.6341,-1.6432,-1.6666,-1.6989,-1.7243,-1.6421,-1.5663,-1.5564,-1.5827,-1.6008,-1.5878,-1.6015,-1.6198,-1.6158,-1.6317,-1.6524,-1.6665,-1.6689,-1.6689,-1.6689,-1.6689,-1.6689,-1.6689,-1.6689,-1.6689,-1.6713,-1.6953,-1.7111,-1.7048,-1.7024,-1.7048,-1.7143,-1.7456,-1.766,-2.5368,-2.5119,-2.5063,-2.4721,-2.4242,-2.3919,-2.3681,-2.3546,-2.3617,-2.3468,-2.3119,-2.3356,-2.3281,-2.2967,-2.282,-2.2833,-2.287,-2.2652,-2.2542,-2.2521,-2.2313,-2.2215,-2.2215,-2.2215,-2.2226,-2.2204,-2.2018,-2.192,-2.1887,-2.1417,-2.0948,-2.0467,-2.0194,-1.931,-1.7839,-1.7868,-1.8043,-1.8305,-1.8305,-1.8534,-1.8971,-1.8359,-1.7912,-1.7682,-1.7202,-1.6852,-1.6645,-1.6634,-1.6535,-1.6354,-1.6214,-1.5756,-1.481,-1.3096,-1.1798,0.0,0.0,0.0,0.0,0.0,0.0,0.0,0.0,0.0,0.0,0.0,-1.122,-0.9193,-1.1866,-1.3663,-1.3497,-1.3828,-1.4297,-1.4909,-1.536,-1.5754,-1.6147,-1.6613,-1.6938,-1.6982,-1.7286,-1.7621,-1.7956,-1.8018,-1.813,-1.8532,-1.792,-1.7272,-1.6864,-1.6968,-1.7044,-1.7013,-1.7017,-1.6935,-1.673,-1.6861,-1.6943,-1.6738,-1.6689,-1.6689,-1.6697,-1.6832,-1.6976,-1.6984,-1.7088,-1.7199,-1.7199,-1.7342,-1.7536,-1.756,-1.7671,-1.766,-1.754,-1.7763,-1.8001,-2.6027,-2.5979,-2.5816,-2.5746,-2.566,-2.5044,-2.4522,-2.4044,-2.4086,-2.4022,-2.3796,-2.3913,-2.4121,-2.4292,-2.4238,-2.4346,-2.4465,-2.4028,-2.3782,-2.376,-2.3318,-2.3088,-2.3099,-2.3034,-2.3001,-2.2979,-2.256,-2.2411,-2.239,-2.1909,-2.1439,-2.0993,-2.0927,-2.0413,-1.9441,-1.9004,-1.8753,-1.8698,-1.8742,-1.8993,-1.9366,-1.8461,-1.777,-1.7317,-1.6787,-1.628,-1.5833,-1.5811,-1.5615,-1.5236,-1.5571,-1.5451,-1.4703,-1.3685,-1.2922,0.0,-1.1246,0.0,0.0,0.0,0.0,0.0,0.0,0.0,0.0,-1.307,-1.2922,-1.2723,-1.4846,-1.5923,-1.5087,-1.5642,-1.6191,-1.6514,-1.7211,-1.7642,-1.7669,-1.8018,-1.8319,-1.8577,-1.8715,-1.8926,-1.918,-1.9292,-1.9292,-1.9253,-1.9231,-1.8921,-1.8327,-1.8101,-1.8029,-1.8031,-1.7716,-1.7351,-1.7074,-1.727,-1.7401,-1.6982,-1.6972,-1.6907,-1.6905,-1.7143,-1.7342,-1.7366,-1.7591,-1.7775,-1.7806,-1.783,-1.7886,-1.7842,-1.8105,-1.8224,-1.7962,-1.812,-1.8351,-2.6704,-2.6536,-2.6496,-2.6509,-2.6453,-2.6368,-2.5794,-2.4946,-2.5167,-2.5345,-2.5435,-2.5085,-2.4992,-2.5011,-2.46,-2.4486,-2.4526,-2.4388,-2.4355,-2.4323,-2.382,-2.3553,-2.352,-2.3187,-2.3001,-2.299,-2.2914,-2.287,-2.2859,-2.24,-2.1931,-2.1485,-2.108,-2.038,-1.9462,0.0,0.0,0.0,-1.9091,-1.9321,-1.9344,-1.849,-1.7781,-1.7317,-1.6776,0.0,-1.5844,-1.5811,-1.5767,-1.568,-1.5767,0.0,0.0,0.0,0.0,0.0,0.0,0.0,0.0,0.0,0.0,0.0,-1.5305,-1.4864,-1.421,-1.4117,-1.4613,-1.5833,-1.7908,-1.8769,-1.7777,-1.7785,-1.7852,-1.7779,-1.8201,-1.8485,-1.8457,-1.8834,-1.91,-1.9136,-1.9182,-1.9219,-1.9311,-1.9292,-1.9311,-1.9356,-1.9604,-1.9569,-1.9127,-1.8807,-1.8469,-1.808,-1.7993,-1.7878,-1.7797,-1.8092,-1.822,-1.7812,-1.7966,-1.7969,-1.7634,-1.7596,-1.7719,-1.7727,-1.7775,-1.783,-1.783,-1.7993,-1.82,-1.82,-1.8486,-1.8621,-1.8287,-1.8478,-1.8678,-2.7159,0.0,-2.7037,-2.7078,0.0,-2.7035,-2.6691,-2.6228,-2.5873,-2.5775,-2.5759,-2.5603,-2.5535,-2.5524,-2.5295,-2.5185,-2.5185,-2.4934,-2.4876,-2.4781,-2.4071,-2.3733,-2.3711,-2.3241,-2.3001,-2.3001,-2.3001,-2.3001,-2.299,-2.2772,-2.2422,-2.1953,-2.1701,-2.121,-2.0511,-2.0489,-2.0009,-1.9058,-1.9288,-1.9507,-1.9715,-1.9038,-1.8469,-1.8006,0.0,0.0,0.0,0.0,0.0,0.0,0.0,0.0,0.0,0.0,0.0,-1.612,-1.5487,-1.54,-1.6099,-1.619,-1.6579,-1.7508,-1.7838,-1.7426,-1.5985,-1.5866,-1.6466,-1.7981,-2.0132,-2.0797,-1.9187,-1.8993,-1.8917,-1.8727,-1.8889,-1.8999,-1.9017,-1.9182,-1.9393,-1.9577,-1.9604,-1.9637,-1.9879,-1.9907,-1.9897,-1.9907,-2.0072,-2.0104,-1.9912,-1.9711,-1.9424,-1.8976,-1.8748,-1.8614,-1.8668,-1.902,-1.9044,-1.8456,-1.8357,-1.8284,-1.7901,-1.7914,-1.8033,-1.8041,-1.8168,-1.8295,-1.8311,-1.8446,-1.8557,-1.8573,-1.87,-1.878,-1.8589,-1.87,-1.8781,-2.7536,-2.7741,-2.7604,-2.7675,-2.7861,-2.764,-2.7512,-2.7358,0.0,0.0,0.0,-2.5942,-2.5972,-2.5906,-2.5895,-2.5895,-2.5874,-2.548,-2.5347,-2.5251,-2.4388,-2.3984,-2.3951,-2.3394,-2.3132,-2.3132,-2.3045,-2.3001,-2.3001,-2.3001,-2.2815,-2.2466,-2.2444,-2.2193,-2.1745,-2.1636,-2.1002,-1.9856,-1.9637,-1.9671,-1.9965,-1.9507,-1.9058,-1.8589,-1.7842,-1.7169,-1.665,-1.6269,-1.5876,-1.5531,-1.5854,-1.6105,-1.6203,-1.6541,-1.7005,-1.7475,-1.7558,-1.7737,-1.8217,-1.825,-1.849,-1.9037,-1.9899,-1.9727,-1.8226,-1.8141,-1.8646,-1.9823,-2.1814,-2.2184,-2.0266,-2.0038,-1.9918,-1.9659,-1.9713,-1.975,-1.9799,-1.9834,-2.012,-2.0329,-2.0435,-2.0434,-2.0648,-2.0685,-2.0647,-2.0521,-2.0549,-2.0625,-2.0695,-2.0525,-2.0271,-1.9973,-1.962,-1.943,-1.9503,-1.9847,-1.9829,-1.9092,-1.8934,-1.8794,-1.8441,-1.8467,-1.8636,-1.875,-1.891,-1.9039,-1.9042,-1.9117,-1.9058,-1.9058,-1.9058,-1.905,-1.9058,-1.905,-1.9058,-2.8045,-2.829,-2.8505,-2.8612,-2.8648,-2.8628,-2.8309,-2.786,-2.7336,-2.6868,-2.6443,-2.6486,-2.6289,-2.5895,-2.5895,-2.5895,-2.5895,-2.583,-2.5797,-2.5764,-2.5229,-2.4967,-2.4964,-2.405,-2.3585,-2.3553,-2.3198,-2.3001,-2.3001,-2.3001,-2.2957,-2.2914,-2.2903,-2.2673,-2.2226,-2.18,-2.1494,-2.1275,-2.0445,-1.9845,-1.9496,-1.9037,-1.8578,-1.813,-1.7999,-1.7671,-1.7191,-1.7131,-1.7076,-1.7,-1.7038,-1.7256,-1.7671,-1.7759,-1.801,-1.8447,-1.852,-1.8698,-1.9179,-1.9222,-1.9604,-2.0511,-2.1068,-2.125,-2.1062,-2.1255,-2.1558,-2.188,-2.2589,-2.2692,-2.1855,-2.1694,-2.1458,-2.1002,-2.1282,-2.1541,-2.1461,-2.1769,-2.2017,-2.2025,-2.2208,-2.1942,-2.1531,-2.1457,-2.1225,-2.0763,-2.0851,-2.1145,-2.1266,-2.0909,-2.0525,-2.04,-2.0163,-2.0108,-2.031,-2.0586,-2.0569,-2.0227,-2.0333,-2.0303,-1.9811,-1.9788,-1.9839,-1.9971,-1.9923,-2.0002,-2.0019,-2.011,-2.0019,-1.9973,-1.9973,-2.0019,-1.9973,-1.999,-1.9808,-2.8149,-2.8395,-2.8535,-2.8675,-2.8803,-2.8803,-2.8683,-2.8407,-2.8189,-2.7676,-2.7031,-2.6998,-2.6747,-2.631,-2.6299,-2.6147,-2.5895,-2.5895,-2.5895,-2.5863,-2.5393,-2.5215,-2.515,-2.4465,-2.3995,-2.3694,-2.3514,-2.3263,-2.3023,-2.3001,-2.3001,-2.3001,-2.3001,-2.2892,-2.2684,-2.2466,-2.2226,-2.1974,-2.1035,-2.0424,-2.0205,-1.9736,-1.9386,-1.9137,-1.8916,-1.8676,-1.8447,-1.8185,-1.8072,-1.8072,-1.8072,-1.8261,-1.8742,-1.8774,-1.8951,-1.9452,-1.9725,-1.9997,-2.0216,-2.0445,-2.0904,-2.1592,-2.1854,-2.2095,-2.2335,-2.2018,-2.2062,-2.2619,-2.2881,-2.2886,-2.2503,-2.2496,-2.232,-2.1988,-2.216,-2.2271,-2.2292,-2.2443,-2.2511,-2.2431,-2.2397,-2.2359,-2.2273,-2.226,-2.2174,-2.1806,-2.1618,-2.1539,-2.1659,-2.1394,-2.1138,-2.111,-2.0808,-2.0744,-2.1046,-2.1229,-2.1163,-2.082,-2.0873,-2.0808,-2.0419,-2.0292,-2.0292,-2.0292,-2.0292,-2.0292,-2.0292,-2.0292,-2.0292,-2.0292,-2.0292,-2.0292,-2.03,-2.0437,-2.0445,-2.8243,-2.8405,-2.8488,-2.8628,-2.8803,-2.8803,-2.8803,-2.8803,-2.8792,-2.8377,-2.7687,-2.7523,-2.7217,-2.6759,-2.6639,-2.642,-2.6081,-2.595,-2.5895,-2.5852,-2.5513,-2.5338,-2.5284,-2.4869,-2.4443,-2.405,-2.3804,-2.3487,-2.3198,-2.3067,-2.3001,-2.3001,-2.3001,-2.3001,-2.3001,-2.3001,-2.2826,-2.2433,-2.1636,-2.1168,-2.1047,-2.0664,-2.0445,-2.0412,-2.0107,-1.9899,-1.9856,-1.955,-1.9342,-1.9342,-1.9342,-1.9517,-1.9867,-1.9878,-2.0042,-2.0434,-2.0817,-2.1058,-2.1091,-2.1518,-2.192,-2.228,-2.2411,-2.2673,-2.3034,-2.24,-2.2248,-2.3012,-2.3209,-2.3226,-2.3235,-2.3204,-2.3116,-2.3041,-2.3134,-2.3267,-2.3196,-2.3279,-2.3288,-2.3068,-2.3053,-2.315,-2.3037,-2.3003,-2.2843,-2.2438,-2.2043,-2.1731,-2.1687,-2.1687,-2.1687,-2.1614,-2.133,-2.122,-2.1623,-2.1668,-2.1526,-2.1186,-2.1177,-2.1051,-2.0789,-2.0654,-2.0654,-2.0699,-2.0654,-2.0699,-2.0654,-2.0654,-2.0654,-2.0699,-2.0823,-2.0883,-2.1014,-2.1261,-2.1249,-2.8395,-2.8441,-2.8664,-2.8757,-2.8803,-2.8803,-2.8803,-2.8803,-2.8803,-2.8771,-2.8585,-2.8167,-2.7708,-2.7184,-2.6791,-2.6584,-2.6464,-2.6103,-2.5906,-2.5895,-2.5852,-2.583,-2.5764,-2.5338,-2.5128,-2.4942,-2.4181,-2.3766,-2.3646,-2.323,-2.3001,-2.3001,-2.3001,-2.3001,-2.3001,-2.3001,-2.2979,-2.2936,-2.2444,-2.1964,-2.1583,-2.1483,-2.1461,-2.145,-2.1407,-2.1385,-2.1297,-2.1341,-2.1308,-2.1319,-2.1265,-2.1319,-2.1352,-2.1374,-2.1396,-2.1417,-2.1483,-2.1516,-2.1559,-2.1964,-2.228,-2.2299,-2.2728,-2.3143,-2.358,-2.3187,-2.3078,-2.3591,-2.3809,-2.4071,-2.4327,-2.4342,-2.4295,-2.4317,-2.4608,-2.4976,-2.4897,-2.5337,-2.5577,-2.5546,-2.5136,-2.5105,-2.3877,-2.3594,-2.3115,-2.2176,-2.1874,-2.1687,-2.1687,-2.1687,-2.1687,-2.1687,-2.1614,-2.1614,-2.1687,-2.1687,-2.1642,-2.1597,-2.1597,-2.1508,-2.1419,-2.1428,-2.1562,-2.1284,-2.1463,-2.1419,-2.1463,-2.1553,-2.1535,-2.15,-2.1744,-2.2143,-2.2526,-2.2624,-2.2378,-2.8617,-2.8617,-2.8757,-2.8803,-2.8803,-2.8803,-2.8803,-2.8803,-2.8803,-2.8803,-2.8781,-2.8549,-2.8189,-2.773,-2.75,-2.7129,-2.6584,-2.6377,-2.6168,-2.5917,-2.5895,-2.5895,-2.5874,-2.571,-2.5511,-2.5215,-2.476,-2.4443,-2.4137,-2.3678,-2.3285,-2.3023,-2.3001,-2.3001,-2.3001,-2.3001,-2.3001,-2.299,-2.2815,-2.2619,-2.2379,-2.1876,-2.1603,-2.1603,-2.1603,-2.1603,-2.1603,-2.1603,-2.1603,-2.1603,-2.1603,-2.1603,-2.1603,-2.1603,-2.1603,-2.1603,-2.1865,-2.2138,-2.24,-2.2608,-2.2848,-2.3084,-2.3291,-2.3646,-2.4115,-2.3995,-2.4071,-2.453,-2.4902,-2.5076,-2.4964,-2.4931,-2.5,-2.5262,-2.5502,-2.56,-2.5611,-2.5775,-2.578,-2.538,-2.4935,-2.4498,-2.3887,-2.3464,-2.3003,-2.2362,-2.2052,-2.1731,-2.1687,-2.1687,-2.1687,-2.1687,-2.1687,-2.1687,-2.1687,-2.1687,-2.1687,-2.1687,-2.1687,-2.1687,-2.1687,-2.1687,-2.1687,-2.1696,-2.1714,-2.1714,-2.1642,-2.1916,-2.2044,-2.2126,-2.2373,-2.2776,-2.3178,-2.3251,-2.3133,-2.8803,-2.8803,-2.8803,-2.8803,-2.8803,-2.8803,-2.8803,-2.8803,-2.8803,-2.8803,-2.8803,-2.8803,-2.8617,-2.8254,-2.8056,-2.7609,-2.6998,-2.6715,-2.6441,-2.6103,-2.5972,-2.5895,-2.5895,-2.5895,-2.5721,-2.5404,-2.5259,-2.4964,-2.4497,-2.4148,-2.3689,-2.3263,-2.3209,-2.3132,-2.3012,-2.3001,-2.3001,-2.3001,-2.3001,-2.3001,-2.2892,-2.2335,-2.1974,-2.1974,-2.1974,-2.1974,-2.1974,-2.1974,-2.1985,-2.1974,-2.1974,-2.1974,-2.1974,-2.1974,-2.1974,-2.2007,-2.2302,-2.2652,-2.2979,-2.3121,-2.3351,-2.3651,-2.3804,-2.4137,-2.4541,-2.4563,-2.477,-2.5306,-2.5699,-2.5688,-2.5489,-2.5423,-2.5576,-2.5852,-2.5895,-2.5895,-2.5884,-2.5895,-2.5728,-2.5211,-2.4935,-2.4274,-2.4069,-2.3551,-2.3091,-2.2759,-2.2318,-2.1865,-2.1731,-2.1687,-2.1687,-2.1687,-2.1687,-2.1687,-2.1687,-2.1687,-2.1687,-2.1687,-2.1687,-2.1687,-2.1687,-2.1687,-2.1806,-2.1879,-2.1842,-2.1961,-2.2163,-2.2364,-2.2529,-2.2648,-2.2867,-2.3206,-2.3639,-2.3694,-2.3822,-2.8803,-2.8803,-2.8803,-2.8803,-2.8803,-2.8803,-2.8803,-2.8803,-2.8803,-2.8803,-2.8803,-2.8803,-2.8792,-2.8716,-2.8265,-2.798,-2.7794,-2.7031,-2.6617,-2.6475,-2.6136,-2.5906,-2.5895,-2.5895,-2.5884,-2.5764,-2.5467,-2.5029,-2.4581,-2.4476,-2.4203,-2.3684,-2.3662,-2.3433,-2.3143,-2.3067,-2.3012,-2.3056,-2.3023,-2.3001,-2.299,-2.2936,-2.287,-2.2859,-2.2914,-2.2859,-2.2892,-2.2914,-2.2903,-2.2914,-2.2881,-2.2892,-2.2903,-2.2892,-2.2881,-2.2914,-2.2957,-2.299,-2.3099,-2.3471,-2.3694,-2.3793,-2.4224,-2.465,-2.5054,-2.4836,-2.4978,-2.5764,-2.5863,-2.5863,-2.583,-2.5786,-2.5819,-2.5874,-2.5895,-2.5895,-2.5895,-2.5895,-2.5895,-2.5812,-2.5601,-2.52,-2.4807,-2.4198,-2.3507,-2.3057,-2.2794,-2.2574,-2.2097,-2.183,-2.1911,-2.192,-2.1885,-2.1759,-2.1759,-2.1787,-2.176,-2.1861,-2.1961,-2.1787,-2.1714,-2.1733,-2.1943,-2.2126,-2.2208,-2.24,-2.2721,-2.294,-2.3078,-2.3206,-2.3343,-2.3694,-2.3923,-2.4119,-2.4183,-2.8803,-2.8803,-2.8803,-2.8803,-2.8803,-2.8803,-2.8803,-2.8803,-2.8803,-2.8803,-2.8803,-2.8803,-2.8803,-2.8792,-2.8582,-2.832,-2.7969,-2.762,-2.7173,-2.6639,-2.6399,-2.6201,-2.5917,-2.5895,-2.5895,-2.5874,-2.5721,-2.5393,-2.5007,-2.4964,-2.4694,-2.429,-2.4224,-2.4104,-2.3929,-2.3624,-2.346,-2.3427,-2.3176,-2.3001,-2.3023,-2.3001,-2.3001,-2.3001,-2.3001,-2.3001,-2.3001,-2.3001,-2.3001,-2.3001,-2.3001,-2.3001,-2.3001,-2.3001,-2.3143,-2.3427,-2.3471,-2.3613,-2.3919,-2.4115,-2.4355,-2.4639,-2.4814,-2.5161,-2.5502,-2.5491,-2.5546,-2.5819,-2.5895,-2.5895,-2.5895,-2.5895,-2.5906,-2.5895,-2.5895,-2.5895,-2.5895,-2.5895,-2.5895,-2.5853,-2.5549,-2.4988,-2.4529,-2.3983,-2.3714,-2.3507,-2.3464,-2.3319,-2.3218,-2.3296,-2.3402,-2.345,-2.3319,-2.3237,-2.3246,-2.2491,-2.2135,-2.2373,-2.2492,-2.2483,-2.2437,-2.2373,-2.2547,-2.2602,-2.2666,-2.2748,-2.3032,-2.3242,-2.3425,-2.3739,-2.3877,-2.3895,-2.4165,-2.4202,-2.4211,-2.8803,-2.8803,-2.8803,-2.8803,-2.8803,-2.8803,-2.8803,-2.8803,-2.8803,-2.8803,-2.8803,-2.8803,-2.8803,-2.8803,-2.8803,-2.8639,-2.8265,-2.8067,-2.7653,-2.7042,-2.6737,-2.6399,-2.6157,-2.5972,-2.5895,-2.5895,-2.5895,-2.5721,-2.5489,-2.5404,-2.5193,-2.4727,-2.4705,-2.4628,-2.4454,-2.4137,-2.3934,-2.3886,-2.3493,-2.3307,-2.3416,-2.3165,-2.3176,-2.3372,-2.3187,-2.3001,-2.3001,-2.3001,-2.3001,-2.3001,-2.3001,-2.3067,-2.3209,-2.323,-2.346,-2.3897,-2.3934,-2.4115,-2.4454,-2.4628,-2.4876,-2.5193,-2.5368,-2.5579,-2.5874,-2.5895,-2.5895,-2.5895,-2.5906,-2.5939,-2.6092,-2.6136,-2.607,-2.595,-2.5895,-2.5895,-2.5895,-2.5895,-2.5895,-2.5886,-2.5721,-2.5252,-2.4833,-2.4904,-2.4856,-2.4661,-2.4617,-2.4584,-2.4415,-2.4519,-2.4785,-2.4761,-2.4554,-2.4496,-2.4456,-2.3857,-2.2917,-2.2954,-2.2849,-2.294,-2.3004,-2.2977,-2.3023,-2.3078,-2.3133,-2.3178,-2.3306,-2.3517,-2.3813,-2.4146,-2.4156,-2.4119,-2.4202,-2.4202,-2.4211,-2.8803,-2.8803,-2.8803,-2.8803,-2.8803,-2.8803,-2.8803,-2.8803,-2.8803,-2.8803,-2.8803,-2.8803,-2.8803,-2.8803,-2.8803,-2.8781,-2.8672,-2.8287,-2.8002,-2.7794,-2.7075,-2.6671,-2.6573,-2.619,-2.5939,-2.5906,-2.5895,-2.5895,-2.5841,-2.5808,-2.559,-2.5281,-2.5226,-2.5051,-2.4581,-2.4541,-2.4486,-2.4377,-2.3995,-2.3962,-2.4301,-2.358,-2.3536,-2.4192,-2.3558,-2.3132,-2.3088,-2.3067,-2.3088,-2.311,-2.3099,-2.3263,-2.364,-2.3705,-2.3951,-2.4388,-2.4486,-2.4497,-2.4596,-2.5007,-2.5237,-2.5306,-2.5611,-2.5841,-2.5884,-2.5895,-2.5928,-2.5983,-2.5994,-2.6114,-2.6497,-2.6627,-2.6485,-2.6037,-2.6081,-2.6081,-2.6016,-2.5939,-2.5917,-2.5963,-2.6172,-2.6562,-2.6639,-2.6682,-2.6591,-2.6214,-2.6091,-2.5947,-2.5533,-2.5511,-2.5422,-2.5442,-2.5559,-2.5653,-2.5515,-2.5208,-2.4221,-2.3409,-2.3238,-2.3151,-2.3224,-2.3242,-2.337,-2.3492,-2.3556,-2.3611,-2.373,-2.3923,-2.396,-2.4211,-2.4211,-2.4211,-2.4211,-2.4211,-2.4211,-2.8803,-2.8803,-2.8803,-2.8803,-2.8803,-2.8803,-2.8803,-2.8803,-2.8803,-2.8803,-2.8803,-2.8803,-2.8803,-2.8803,-2.8803,-2.8803,-2.8792,-2.8582,-2.8364,-2.798,-2.7674,-2.7347,-2.7064,-2.6616,-2.6223,-2.595,-2.5895,-2.5895,-2.5895,-2.5895,-2.5808,-2.5699,-2.5666,-2.5611,-2.5404,-2.5142,-2.4956,-2.4912,-2.4486,-2.4344,-2.4476,-2.4192,-2.4192,-2.441,-2.417,-2.4028,-2.4045,-2.3689,-2.3678,-2.3984,-2.4028,-2.4093,-2.4213,-2.4257,-2.4515,-2.488,-2.4996,-2.5171,-2.5426,-2.5557,-2.5655,-2.5699,-2.583,-2.5884,-2.5895,-2.5895,-2.6048,-2.631,-2.6409,-2.6551,-2.6977,-2.7097,-2.7031,-2.6889,-2.6878,-2.6824,-2.6758,-2.6562,-2.642,-2.6366,-2.6497,-2.6715,-2.7031,-2.7304,-2.7303,-2.7114,-2.7015,-2.6881,-2.6758,-2.6843,-2.7163,-2.7185,-2.7077,-2.6806,-2.6713,-2.6398,-2.5615,-2.4803,-2.4402,-2.3847,-2.3807,-2.3747,-2.3885,-2.3813,-2.3886,-2.3969,-2.4156,-2.4211,-2.4211,-2.4211,-2.4211,-2.4211,-2.4211,-2.4211,-2.4211,-2.8803,-2.8803,-2.8803,-2.8803,-2.8803,-2.8803,-2.8803,-2.8803,-2.8803,-2.8803,-2.8803,-2.8803,-2.8803,-2.8803,-2.8803,-2.8803,-2.8803,-2.8803,-2.8593,-2.8298,-2.8045,-2.7816,-2.7445,-2.6868,-2.6496,-2.619,-2.5994,-2.5906,-2.5895,-2.5895,-2.5895,-2.5895,-2.5895,-2.5884,-2.5884,-2.5611,-2.5448,-2.5423,-2.5029,-2.4836,-2.4902,-2.4672,-2.4672,-2.4902,-2.4683,-2.4683,-2.4923,-2.4541,-2.4334,-2.4465,-2.4526,-2.4563,-2.4745,-2.4749,-2.4956,-2.5379,-2.5459,-2.5579,-2.5863,-2.5863,-2.5895,-2.5895,-2.5895,-2.5895,-2.5895,-2.5895,-2.6114,-2.6486,-2.6616,-2.6889,-2.7424,-2.7588,-2.7654,-2.7839,-2.7479,-2.7348,-2.7272,-2.7064,-2.6791,-2.6759,-2.6933,-2.7184,-2.7424,-2.7763,-2.7818,-2.785,-2.785,-2.785,-2.7905,-2.8078,-2.8222,-2.8274,-2.8082,-2.7921,-2.7913,-2.7521,-2.6999,-2.6365,-2.5788,-2.5112,-2.4723,-2.4617,-2.4594,-2.4162,-2.411,-2.4101,-2.4211,-2.4211,-2.4211,-2.4211,-2.4211,-2.4211,-2.4211,-2.4211,-2.4211,-2.8803,-2.8803,-2.8803,-2.8803,-2.8803,-2.8803,-2.8803,-2.8803,-2.8803,-2.8803,-2.8803,-2.8803,-2.8803,-2.8803,-2.8803,-2.8803,-2.8803,-2.8803,-2.8792,-2.865,-2.8342,-2.8023,-2.7816,-2.7086,-2.6649,-2.6518,-2.6114,-2.5906,-2.5895,-2.5895,-2.5895,-2.5895,-2.5895,-2.5895,-2.5895,-2.5884,-2.5841,-2.5764,-2.5426,-2.5426,-2.5753,-2.5087,-2.5018,-2.5784,-2.519,-2.5143,-2.5763,-2.5543,-2.5088,-2.469,-2.4694,-2.488,-2.5171,-2.5259,-2.5467,-2.5819,-2.5884,-2.5863,-2.5895,-2.5895,-2.5895,-2.5895,-2.5895,-2.5928,-2.5994,-2.6048,-2.6278,-2.6748,-2.6802,-2.7107,-2.7827,-2.808,-2.8254,-2.8528,-2.8049,-2.7577,-2.7381,-2.7359,-2.7206,-2.713,-2.7489,-2.7958,-2.7883,-2.8342,-2.8606,-2.8683,-2.865,-2.8606,-2.8617,-2.8628,-2.8749,-2.8735,-2.8574,-2.8538,-2.8362,-2.8222,-2.7694,-2.7552,-2.6982,-2.636,-2.5538,-2.5246,-2.506,-2.4627,-2.4251,-2.4251,-2.4211,-2.4211,-2.4211,-2.4211,-2.4211,-2.4211,-2.4211,-2.4211,-2.4211,-2.8803,-2.8803,-2.8803,-2.8803,-2.8803,-2.8803,-2.8803,-2.8803,-2.8803,-2.8803,-2.8803,-2.8803,-2.8803,-2.8803,-2.8803,-2.8803,-2.8803,-2.8803,-2.8803,-2.8792,-2.8705,-2.8353,-2.7958,-2.7391,-2.6911,-2.6584,-2.6201,-2.5906,-2.5895,-2.5895,-2.5895,-2.5895,-2.5895,-2.5895,-2.5895,-2.5895,-2.5895,-2.5895,-2.5797,-2.5773,-2.5861,-2.5718,-2.5788,-2.6232,-2.6095,-2.6248,-2.6805,-2.6744,-2.6315,-2.5639,-2.5535,-2.5568,-2.5738,-2.5718,-2.5773,-2.5893,-2.5895,-2.5895,-2.5895,-2.5895,-2.5895,-2.5895,-2.5939,-2.6059,-2.6409,-2.6399,-2.6802,-2.7391,-2.7631,-2.7872,-2.8418,-2.8549,-2.8683,-2.8738,-2.8486,-2.8167,-2.7927,-2.7794,-2.7718,-2.7632,-2.7872,-2.8134,-2.8418,-2.8639,-2.8803,-2.8803,-2.8803,-2.8803,-2.8803,-2.8803,-2.8803,-2.8803,-2.8746,-2.8746,-2.871,-2.8606,-2.8513,-2.8513,-2.8081,-2.7552,-2.6542,-2.5722,-2.5441,-2.506,-2.4587,-2.444,-2.4301,-2.4211,-2.4211,-2.4211,-2.4211,-2.4211,-2.4211,-2.4211,-2.4211,-2.8803,-2.8803,-2.8803,-2.8803,-2.8803,-2.8803,-2.8803,-2.8803,-2.8803,-2.8803,-2.8803,-2.8803,-2.8803,-2.8803,-2.8803,-2.8803,-2.8803,-2.8803,-2.8803,-2.8803,-2.8792,-2.8639,-2.8276,-2.7839,-2.7326,-2.6868,-2.642,-2.6114,-2.5939,-2.5895,-2.5895,-2.5895,-2.5895,-2.5895,-2.5895,-2.5895,-2.6021,-2.6135,-2.6177,-2.6218,-2.6426,-2.6467,-2.6539,-2.6775,-2.6816,-2.694,-2.7185,-2.7174,-2.6928,-2.6528,-2.6456,-2.6456,-2.6415,-2.6249,-2.6177,-2.6135,-2.5979,-2.5895,-2.5895,-2.5895,-2.5895,-2.595,-2.6048,-2.6332,-2.6594,-2.6737,-2.7238,-2.7827,-2.798,-2.8287,-2.8683,-2.8803,-2.8803,-2.8803,-2.8803,-2.8672,-2.8364,-2.8331,-2.8298,-2.83,-2.8298,-2.8418,-2.8781,-2.8803,-2.8803,-2.8803,-2.8803,-2.8803,-2.8803,-2.8803,-2.8803,-2.8803,-2.8803,-2.8803,-2.8803,-2.871,-2.8664,-2.8757,-2.8664,-2.8222,-2.7447,-2.635,-2.5819,-2.5489,-2.4962,-2.4587,-2.444,-2.4301,-2.4211,-2.4211,-2.4211,-2.4211,-2.4211,-2.4211,-2.4211,-2.8803,-2.8803,-2.8803,-2.8803,-2.8803,-2.8803,-2.8803,-2.8803,-2.8803,-2.8803,-2.8803,-2.8803,-2.8803,-2.8803,-2.8803,-2.8803,-2.8803,-2.8803,-2.8803,-2.8803,-2.8803,-2.876,-2.8683,-2.8167,-2.7718,-2.7293,-2.6857,-2.6377,-2.6114,-2.5972,-2.5895,-2.5895,-2.5895,-2.5895,-2.5937,-2.5979,-2.6166,-2.6404,-2.6569,-2.6734,-2.6981,-2.7021,-2.7103,-2.7278,-2.7389,-2.7389,-2.7429,-2.7389,-2.7348,-2.736,-2.7267,-2.7144,-2.7103,-2.6734,-2.6487,-2.6373,-2.6093,-2.5895,-2.5895,-2.5895,-2.5961,-2.6059,-2.6366,-2.6671,-2.6846,-2.7173,-2.7621,-2.8156,-2.8067,-2.8375,-2.8694,-2.8803,-2.8803,-2.8803,-2.8803,-2.8803,-2.8803,-2.8803,-2.8803,-2.8803,-2.8792,-2.8803,-2.8803,-2.8803,-2.8803,-2.8803,-2.8803,-2.8803,-2.8803,-2.8803,-2.8803,-2.8803,-2.8803,-2.8803,-2.8803,-2.8803,-2.8803,-2.8803,-2.8803,-2.8513,-2.8023,-2.7115,-2.6446,-2.5926,-2.5732,-2.5206,-2.4627,-2.4489,-2.4399,-2.4211,-2.4211,-2.4211,-2.4211,-2.4211,-2.4211,-2.8803,-2.8803,-2.8803,-2.8803,-2.8803,-2.8803,-2.8803,-2.8803,-2.8803,-2.8803,-2.8803,-2.8803,-2.8803,-2.8803,-2.8803,-2.8803,-2.8803,-2.8803,-2.8803,-2.8803,-2.8803,-2.8803,-2.8716,-2.8287,-2.7958,-2.7642,-2.6966,-2.6551,-2.6366,-2.6114,-2.5895,-2.5937,-2.5979,-2.5937,-2.5979,-2.626,-2.6404,-2.6558,-2.6857,-2.7103,-2.7226,-2.7307,-2.7441,-2.7696,-2.8018,-2.8179,-2.8219,-2.8219,-2.8219,-2.8059,-2.7644,-2.7296,-2.7226,-2.6857,-2.661,-2.6487,-2.6177,-2.5937,-2.5906,-2.5939,-2.6081,-2.6366,-2.6595,-2.6889,-2.7642,-2.774,-2.8112,-2.8484,-2.8604,-2.8672,-2.8781,-2.8803,-2.8803,-2.8803,-2.8803,-2.8803,-2.8803,-2.8803,-2.8803,-2.8803,-2.8803,-2.8803,-2.8803,-2.8803,-2.8803,-2.8803,-2.8803,-2.8803,-2.8803,-2.8803,-2.8803,-2.8803,-2.8803,-2.8803,-2.8803,-2.8803,-2.8803,-2.8803,-2.8803,-2.8803,-2.8315,-2.793,-2.721,-2.6829,-2.6648,-2.5974,-2.5255,-2.506,-2.5109,-2.4686,-2.4251,-2.4251,-2.4301,-2.4251,-2.4211,-2.8803,-2.8803,-2.8803,-2.8803,-2.8803,-2.8803,-2.8803,-2.8803,-2.8803,-2.8803,-2.8803,-2.8803,-2.8803,-2.8803,-2.8803,-2.8803,-2.8803,-2.8803,-2.8803,-2.8803,-2.8803,-2.8803,-2.8781,-2.8495,-2.8276,-2.7969,-2.7544,-2.7086,-2.6628,-2.6376,-2.6251,-2.6188,-2.6177,-2.6385,-2.6498,-2.6745,-2.694,-2.7196,-2.736,-2.7615,-2.7777,-2.7805,-2.7898,-2.8151,-2.8391,-2.851,-2.8471,-2.8471,-2.851,-2.8391,-2.8059,-2.7805,-2.7736,-2.7412,-2.7115,-2.694,-2.6445,-2.6218,-2.6188,-2.624,-2.6354,-2.6584,-2.6955,-2.7445,-2.7936,-2.8176,-2.8473,-2.8727,-2.8792,-2.8803,-2.8803,-2.8803,-2.8803,-2.8803,-2.8803,-2.8803,-2.8803,-2.8803,-2.8803,-2.8803,-2.8803,-2.8803,-2.8803,-2.8803,-2.8803,-2.8803,-2.8803,-2.8803,-2.8803,-2.8803,-2.8803,-2.8803,-2.8803,-2.8803,-2.8803,-2.8803,-2.8803,-2.8803,-2.8803,-2.8803,-2.8606,-2.8315,-2.8023,-2.7647,-2.722,-2.6744,-2.6119,-2.5964,-2.5635,-2.5157,-2.4775,-2.4538,-2.435,-2.4251,-2.4202,-2.8803,-2.8803,-2.8803,-2.8803,-2.8803,-2.8803,-2.8803,-2.8803,-2.8803,-2.8803,-2.8803,-2.8803,-2.8803,-2.8803,-2.8803,-2.8803,-2.8803,-2.8803,-2.8803,-2.8803,-2.8803,-2.8803,-2.8781,-2.8716,-2.862,-2.8213,-2.7971,-2.7467,-2.6944,-2.6713,-2.6596,-2.6534,-2.661,-2.6734,-2.7103,-2.7319,-2.7452,-2.7708,-2.7909,-2.8111,-2.8351,-2.8391,-2.8431,-2.8431,-2.8471,-2.851,-2.851,-2.851,-2.851,-2.851,-2.851,-2.851,-2.8391,-2.8111,-2.7921,-2.7684,-2.7154,-2.6813,-2.6716,-2.6794,-2.691,-2.6846,-2.7456,-2.7969,-2.8222,-2.8473,-2.8705,-2.8771,-2.8803,-2.8803,-2.8803,-2.8803,-2.8803,-2.8803,-2.8803,-2.8803,-2.8803,-2.8803,-2.8803,-2.8803,-2.8803,-2.8803,-2.8803,-2.8803,-2.8803,-2.8803,-2.8803,-2.8803,-2.8803,-2.8803,-2.8803,-2.8803,-2.8803,-2.8803,-2.8803,-2.8803,-2.8803,-2.8803,-2.8803,-2.8803,-2.8803,-2.8606,-2.8362,-2.8117,-2.7694,-2.7305,-2.6982,-2.6733,-2.6302,-2.5732,-2.5255,-2.4913,-2.4627,-2.4341,-2.4251,-2.8803,-2.8803,-2.8803,-2.8803,-2.8803,-2.8803,-2.8803,-2.8803,-2.8803,-2.8803,-2.8803,-2.8803,-2.8803,-2.8803,-2.8803,-2.8803,-2.8803,-2.8803,-2.8803,-2.8803,-2.8803,-2.8803,-2.8896,-2.8896,-2.8958,-2.8964,-2.855,-2.7853,-2.736,-2.7148,-2.7001,-2.6723,-2.6899,-2.7185,-2.7348,-2.7534,-2.7788,-2.8002,-2.8191,-2.8391,-2.8471,-2.851,-2.851,-2.851,-2.851,-2.851,-2.851,-2.851,-2.851,-2.851,-2.851,-2.8534,-2.8515,-2.8205,-2.8189,-2.8224,-2.8005,-2.7607,-2.7361,-2.7583,-2.7789,-2.7809,-2.7947,-2.8265,-2.8563,-2.8727,-2.8792,-2.8803,-2.8803,-2.8803,-2.8803,-2.8803,-2.8803,-2.8803,-2.8803,-2.8803,-2.8803,-2.8803,-2.8803,-2.8803,-2.8803,-2.8803,-2.8803,-2.8803,-2.8803,-2.8803,-2.8803,-2.8803,-2.8803,-2.8803,-2.8803,-2.8803,-2.8803,-2.8803,-2.8803,-2.8803,-2.8803,-2.8803,-2.8803,-2.8803,-2.8803,-2.8803,-2.8606,-2.8409,-2.8269,-2.8081,-2.7799,-2.7505,-2.702,-2.6446,-2.5916,-2.5343,-2.4962,-2.4677,-2.4291,-2.8803,-2.8803,-2.8803,-2.8803,-2.8803,-2.8803,-2.8803,-2.8803,-2.8803,-2.8803,-2.8803,-2.8803,-2.8803,-2.8803,-2.8803,-2.8803,-2.8803,-2.8803,-2.8803,-2.8803,-2.8803,-2.8932,-2.9117,-2.9163,-2.9439,-2.9601,-2.9342,-2.8701,-2.8061,-2.7716,-2.7474,-2.7375,-2.7493,-2.7644,-2.7846,-2.8111,-2.8203,-2.8283,-2.8391,-2.851,-2.851,-2.851,-2.851,-2.851,-2.8522,-2.851,-2.851,-2.851,-2.8667,-2.8859,-2.8919,-2.8967,-2.9035,-2.9085,-2.9051,-2.9049,-2.8857,-2.8503,-2.8137,-2.8294,-2.8299,-2.8049,-2.8244,-2.8484,-2.8727,-2.8792,-2.8803,-2.8803,-2.8803,-2.8803,-2.8803,-2.8803,-2.8803,-2.8803,-2.8803,-2.8803,-2.8803,-2.8803,-2.8803,-2.8803,-2.8803,-2.8803,-2.8803,-2.8803,-2.8803,-2.8803,-2.8803,-2.8803,-2.8803,-2.8803,-2.8803,-2.8803,-2.8803,-2.8803,-2.8803,-2.8803,-2.8803,-2.8803,-2.8803,-2.8803,-2.8803,-2.8803,-2.8803,-2.871,-2.8664,-2.856,-2.8513,-2.8175,-2.7694,-2.7258,-2.6819,-2.6292,-2.5528,-2.5011,-2.4775,-2.8803,-2.8803,-2.8803,-2.8803,-2.8803,-2.8803,-2.8803,-2.8803,-2.8803,-2.8803,-2.8803,-2.8803,-2.8803,-2.8803,-2.8803,-2.8803,-2.8803,-2.8803,-2.8803,-2.8803,-2.8803,-2.9024,-2.9393,-2.9577,-2.976,-3.0238,-3.0065,-2.9742,-2.8932,-2.8445,-2.8208,-2.8,-2.8027,-2.8163,-2.8403,-2.8431,-2.851,-2.851,-2.851,-2.851,-2.851,-2.851,-2.851,-2.8558,-2.8607,-2.8703,-2.8739,-2.8907,-2.9112,-2.9364,-2.9472,-2.952,-2.9742,-3.0067,-3.014,-2.9887,-2.9748,-2.9472,-2.9161,-2.9067,-2.8936,-2.8561,-2.8642,-2.8749,-2.8792,-2.8803,-2.8803,-2.8803,-2.8803,-2.8803,-2.8803,-2.8803,-2.8803,-2.8803,-2.8803,-2.8803,-2.8803,-2.8803,-2.8803,-2.8803,-2.8803,-2.8803,-2.8803,-2.8803,-2.8803,-2.8803,-2.8803,-2.8803,-2.8803,-2.8803,-2.8803,-2.8803,-2.8803,-2.8803,-2.8803,-2.8803,-2.8803,-2.8803,-2.8803,-2.8803,-2.8803,-2.8803,-2.8803,-2.8803,-2.8803,-2.871,-2.8803,-2.8803,-2.8326,-2.793,-2.7731,-2.7295,-2.6532,-2.5868,-2.5489,-2.8803,-2.8803,-2.8803,-2.8803,-2.8803,-2.8803,-2.8803,-2.8803,-2.8803,-2.8803,-2.8803,-2.8803,-2.8803,-2.8803,-2.8803,-2.8803,-2.8803,-2.8803,-2.8803,-2.8803,-2.885,-2.9117,-2.9485,-2.9531,-3.0114,-3.0666,-3.0472,-2.9948,-2.9523,-2.9277,-2.8902,-2.8598,-2.8421,-2.8471,-2.8471,-2.851,-2.851,-2.851,-2.851,-2.8522,-2.8546,-2.8546,-2.8522,-2.8715,-2.8931,-2.9184,-2.9244,-2.9508,-2.9833,-2.9941,-2.9989,-3.0001,-3.0098,-3.0518,-3.0723,-3.0735,-3.0673,-3.0524,-3.0053,-2.9925,-2.967,-2.9215,-2.9037,-2.885,-2.8803,-2.8803,-2.8803,-2.8803,-2.8803,-2.8803,-2.8803,-2.8803,-2.8803,-2.8803,-2.8803,-2.8803,-2.8803,-2.8803,-2.8803,-2.8803,-2.8803,-2.8803,-2.8803,-2.8803,-2.8803,-2.8803,-2.8803,-2.8803,-2.8803,-2.8803,-2.8803,-2.8803,-2.8803,-2.8803,-2.8803,-2.8803,-2.8803,-2.8803,-2.8803,-2.8803,-2.8803,-2.8803,-2.8803,-2.8803,-2.8803,-2.8803,-2.8803,-2.8803,-2.8757,-2.8513,-2.8164,-2.7872,-2.7494,-2.6924,-2.6312,-2.8803,-2.8803,-2.8803,-2.8803,-2.8803,-2.8803,-2.8803,-2.8803,-2.8803,-2.8803,-2.8803,-2.8803,-2.8803,-2.8803,-2.8803,-2.8803,-2.8803,-2.8803,-2.8803,-2.8896,-2.9082,-2.9451,-2.9897,-3.017,-3.0713,-3.1057,-3.116,-3.1112,-3.0533,-2.9794,-2.9183,-2.9005,-2.8678,-2.8471,-2.8522,-2.851,-2.851,-2.851,-2.8534,-2.8667,-2.8799,-2.8727,-2.8799,-2.934,-2.9352,-2.9484,-2.9761,-2.9917,-3.0266,-3.0422,-3.053,-3.0699,-3.0927,-3.1192,-3.1356,-3.1368,-3.1368,-3.1105,-3.0655,-3.0608,-3.0227,-2.9715,-2.9312,-2.9128,-2.8896,-2.8803,-2.8803,-2.8803,-2.8803,-2.8803,-2.8803,-2.8803,-2.8803,-2.8803,-2.8803,-2.8803,-2.8803,-2.8803,-2.8803,-2.8803,-2.8803,-2.8803,-2.8803,-2.8803,-2.8803,-2.8803,-2.8803,-2.8803,-2.8803,-2.8803,-2.8803,-2.8803,-2.8803,-2.8803,-2.8803,-2.8803,-2.8803,-2.8803,-2.8803,-2.8803,-2.8803,-2.8803,-2.8803,-2.8803,-2.8803,-2.8803,-2.8803,-2.8803,-2.8757,-2.8664,-2.8513,-2.8222,-2.7882,-2.7589,-2.6877,-2.8803,-2.8803,-2.8803,-2.8803,-2.8803,-2.8803,-2.8803,-2.8803,-2.8803,-2.8803,-2.8803,-2.8803,-2.8803,-2.8803,-2.8803,-2.8803,-2.8803,-2.8803,-2.8803,-2.8989,-2.9301,-2.9715,-3.017,-3.0623,-3.1128,-3.1705,-3.1581,-3.1557,-3.1223,-3.0513,-2.9745,-2.9489,-2.8795,-2.857,-2.8546,-2.8703,-2.8835,-2.9051,-2.9027,-2.9184,-2.9364,-2.9148,-2.9436,-2.9749,-2.9893,-2.9869,-3.0218,-3.0537,-3.0826,-3.1007,-3.1115,-3.1271,-3.1548,-3.1597,-3.1633,-3.1633,-3.1633,-3.15,-3.1146,-3.0925,-3.0532,-3.0034,-2.9542,-2.9312,-2.9082,-2.8943,-2.8803,-2.8803,-2.8803,-2.8803,-2.8803,-2.8803,-2.8803,-2.8803,-2.8803,-2.8803,-2.8803,-2.8803,-2.8803,-2.8803,-2.8803,-2.8803,-2.8803,-2.8803,-2.8803,-2.8803,-2.8803,-2.8803,-2.8803,-2.8803,-2.8803,-2.8803,-2.8803,-2.8803,-2.8803,-2.8803,-2.8803,-2.8803,-2.8803,-2.8803,-2.8803,-2.8803,-2.8803,-2.8803,-2.8803,-2.8803,-2.8803,-2.8803,-2.8803,-2.871,-2.8606,-2.8466,-2.8222,-2.7977,-2.7552,-2.8803,-2.8803,-2.8803,-2.8803,-2.8803,-2.8803,-2.8803,-2.8803,-2.8803,-2.8803,-2.8803,-2.8803,-2.8803,-2.8803,-2.8803,-2.8803,-2.885,-2.8803,-2.8896,-2.9071,-2.9301,-2.9852,-3.0352,-3.0847,-3.1306,-3.1705,-3.1969,-3.1969,-3.1683,-3.142,-3.0599,-2.9977,-2.9193,-2.8723,-2.8755,-2.908,-2.9424,-2.9653,-2.9737,-2.9833,-2.9965,-2.9905,-2.9989,-3.0194,-3.0573,-3.0838,-3.0855,-3.1223,-3.1428,-3.1548,-3.1536,-3.1548,-3.1681,-3.1705,-3.1705,-3.1705,-3.1705,-3.1617,-3.1484,-3.1217,-3.0949,-3.0578,-3.0034,-2.9485,-2.9347,-2.8978,-2.885,-2.8803,-2.8803,-2.8803,-2.8803,-2.8803,-2.8803,-2.8803,-2.8803,-2.8803,-2.8803,-2.8803,-2.8803,-2.8803,-2.8803,-2.8803,-2.8803,-2.8803,-2.8803,-2.8803,-2.8803,-2.8803,-2.8803,-2.8803,-2.8803,-2.8803,-2.8803,-2.8803,-2.8803,-2.8803,-2.8803,-2.8803,-2.8803,-2.8803,-2.8803,-2.8803,-2.8803,-2.8803,-2.8803,-2.8803,-2.8803,-2.8803,-2.8803,-2.8803,-2.8757,-2.8606,-2.856,-2.842,-2.8034,-2.8803,-2.8803,-2.8803,-2.8803,-2.8803,-2.8803,-2.8803,-2.8803,-2.8803,-2.8803,-2.885,-2.8803,-2.8803,-2.8803,-2.885,-2.8978,-2.9209,-2.9255,-2.9382,-2.9749,-3.0125,-3.0454,-3.0904,-3.1472,-3.2145,-3.2351,-3.2655,-3.2914,-3.293,-3.2344,-3.2113,-3.1364,-3.0004,-2.9548,-2.9539,-2.969,-2.9935,-3.0037,-3.017,-3.0218,-3.0525,-3.0266,-3.0386,-3.1115,-3.0771,-3.1139,-3.1356,-3.1585,-3.1681,-3.1705,-3.1705,-3.1705,-3.1705,-3.1705,-3.1705,-3.1705,-3.1705,-3.1705,-3.1705,-3.1484,-3.1261,-3.0769,-3.008,-2.9531,-2.9577,-2.9082,-2.885,-2.8803,-2.8803,-2.8803,-2.8803,-2.8803,-2.8803,-2.8803,-2.8803,-2.8803,-2.8803,-2.8803,-2.8803,-2.8803,-2.8803,-2.8803,-2.8803,-2.8803,-2.8803,-2.8803,-2.8803,-2.8803,-2.8803,-2.8803,-2.8803,-2.8803,-2.8803,-2.8803,-2.8803,-2.8803,-2.8803,-2.8803,-2.8803,-2.8803,-2.8803,-2.8803,-2.8803,-2.8803,-2.8803,-2.8803,-2.8803,-2.8803,-2.8803,-2.8803,-2.8803,-2.8757,-2.8803,-2.8803,-2.842,-2.8803,-2.8803,-2.8803,-2.8803,-2.8803,-2.8803,-2.8803,-2.8803,-2.8803,-2.8978,-2.9198,-2.8978,-2.8978,-2.9163,-2.9244,-2.9244,-2.9566,-2.976,-2.9988,-3.034,-3.0791,-3.116,-3.1649,-3.2264,-3.2957,-3.3129,-3.3373,-3.3628,-3.356,-3.3302,-3.3086,-3.2446,-3.1318,-3.0631,-3.0338,-3.0401,-3.0429,-3.0518,-3.0603,-3.0699,-3.1067,-3.0886,-3.0838,-3.1548,-3.1288,-3.13,-3.1573,-3.1693,-3.1705,-3.1705,-3.1705,-3.1705,-3.1705,-3.1705,-3.1705,-3.1705,-3.1705,-3.1705,-3.1705,-3.1661,-3.1528,-3.1172,-3.0487,-3.008,-2.9772,-2.9312,-2.885,-2.9024,-2.8943,-2.8803,-2.8803,-2.8803,-2.8803,-2.8803,-2.8803,-2.8803,-2.8803,-2.8803,-2.8803,-2.8803,-2.8803,-2.8803,-2.8803,-2.8803,-2.8803,-2.8803,-2.8803,-2.8803,-2.8803,-2.8803,-2.8803,-2.8803,-2.8803,-2.8803,-2.8803,-2.8803,-2.8803,-2.8803,-2.8803,-2.8803,-2.8803,-2.8803,-2.8803,-2.8803,-2.8803,-2.8803,-2.8803,-2.8803,-2.8803,-2.8803,-2.8803,-2.8803,-2.8803,-2.8803,-2.8617,-2.8803,-2.8803,-2.8803,-2.8803,-2.8803,-2.8803,-2.8803,-2.8803,-2.8803,-2.9198,-2.9726,-2.9198,-2.929,-2.9863,-2.9863,-2.9875,-2.9932,-3.0464,-3.0779,-3.0836,-3.1625,-3.1945,-3.2413,-3.3031,-3.3683,-3.3683,-3.3924,-3.405,-3.3911,-3.3968,-3.3923,-3.3427,-3.2395,-3.1405,-3.1083,-3.0961,-3.1151,-3.156,-3.156,-3.156,-3.1548,-3.1476,-3.1573,-3.1609,-3.1621,-3.1621,-3.1669,-3.1705,-3.1705,-3.1705,-3.1705,-3.1705,-3.1705,-3.1705,-3.1705,-3.1705,-3.1705,-3.1705,-3.1705,-3.1705,-3.1661,-3.1528,-3.0892,-3.0634,-3.0499,-2.9806,-2.9024,-2.9301,-2.9024,-2.885,-2.8803,-2.8803,-2.8803,-2.8803,-2.8803,-2.8803,-2.8803,-2.8803,-2.8803,-2.8803,-2.8803,-2.8803,-2.8803,-2.8803,-2.8803,-2.8803,-2.8803,-2.8803,-2.8803,-2.8803,-2.8803,-2.8803,-2.8803,-2.8803,-2.8803,-2.8803,-2.8803,-2.8803,-2.8803,-2.8803,-2.8803,-2.8803,-2.8803,-2.8803,-2.8803,-2.8803,-2.8803,-2.8803,-2.8803,-2.8803,-2.8803,-2.8803,-2.8803,-2.8757,-2.8664,-2.8803,-2.8803,-2.8803,-2.8803,-2.8803,-2.8803,-2.8803,-2.8803,-2.885,-2.8978,-2.9244,-2.9163,-2.9393,-2.9749,-3.0238,-3.0385,-3.0656,-3.1226,-3.1548,-3.1945,-3.2729,-3.3031,-3.3403,-3.3827,-3.433,-3.4509,-3.4675,-3.4936,-3.5087,-3.4847,-3.463,-3.4198,-3.2986,-3.1953,-3.1333,-3.1182,-3.1573,-3.1669,-3.1693,-3.1705,-3.1705,-3.1705,-3.1705,-3.1705,-3.1705,-3.1705,-3.1705,-3.1705,-3.1705,-3.1705,-3.1705,-3.1705,-3.1705,-3.1705,-3.1705,-3.1705,-3.1705,-3.1705,-3.1705,-3.1705,-3.1705,-3.1528,-3.1261,-3.0994,-3.0769,-3.0216,-2.9806,-2.9439,-2.9071,-2.8896,-2.8803,-2.8803,-2.8803,-2.8803,-2.8803,-2.8803,-2.8803,-2.8803,-2.8803,-2.8803,-2.8803,-2.8803,-2.8803,-2.8803,-2.8803,-2.8803,-2.8803,-2.8803,-2.8803,-2.8803,-2.8803,-2.8803,-2.8803,-2.8803,-2.8803,-2.8803,-2.8803,-2.8803,-2.8803,-2.8803,-2.8803,-2.8803,-2.8803,-2.8803,-2.8803,-2.8803,-2.8803,-2.8803,-2.8803,-2.8803,-2.8803,-2.8803,-2.8803,-2.8803,-2.8757,-2.9198,-2.9738,-2.9417,-2.929,-2.9233,-2.8932,-2.8803,-2.8803,-2.885,-2.9152,-2.9806,-2.9943,-3.0384,-3.0878,-3.1291,-3.1347,-3.1757,-3.25,-3.2729,-3.3172,-3.3713,-3.3924,-3.4217,-3.4675,-3.4964,-3.5182,-3.5386,-3.5669,-3.5548,-3.5426,-3.4718,-3.3788,-3.3129,-3.2222,-3.1574,-3.1524,-3.1669,-3.1705,-3.1705,-3.1705,-3.1705,-3.1705,-3.1705,-3.1705,-3.1705,-3.1705,-3.1705,-3.1705,-3.1705,-3.1705,-3.1705,-3.1705,-3.1705,-3.1705,-3.1705,-3.1705,-3.1705,-3.1705,-3.1705,-3.1705,-3.1705,-3.1661,-3.135,-3.1205,-3.116,-3.0904,-3.0352,-2.9852,-2.9209,-2.8932,-2.885,-2.885,-2.885,-2.885,-2.8803,-2.8803,-2.8803,-2.8803,-2.885,-2.885,-2.885,-2.885,-2.8803,-2.8803,-2.8803,-2.8803,-2.8803,-2.8803,-2.8803,-2.8803,-2.8803,-2.8803,-2.8803,-2.8803,-2.8803,-2.8803,-2.8803,-2.8803,-2.8803,-2.8803,-2.8803,-2.8803,-2.8803,-2.8803,-2.8803,-2.8803,-2.8803,-2.8803,-2.8803,-2.8803,-2.8803,-2.8803,-2.8803,-2.8803,-2.8803,-2.9897,-3.1356,-3.0609,-3.0204,-3.0045,-2.929,-2.8932,-2.8896,-2.8896,-3.0022,-3.176,-3.0888,-3.1509,-3.3194,-3.3547,-3.325,-3.3079,-3.3827,-3.3924,-3.4008,-3.4426,-3.4634,-3.4922,-3.5291,-3.5467,-3.5588,-3.571,-3.571,-3.5629,-3.4964,-3.4021,-3.3185,-3.2754,-3.2115,-3.1765,-3.1789,-3.1793,-3.1749,-3.1705,-3.1705,-3.1705,-3.1705,-3.1705,-3.1705,-3.1705,-3.1705,-3.1705,-3.1705,-3.1705,-3.1705,-3.1705,-3.1705,-3.1705,-3.1705,-3.1705,-3.1705,-3.1705,-3.1705,-3.1705,-3.1705,-3.1705,-3.1705,-3.1661,-3.1661,-3.1617,-3.1439,-3.0982,-3.0261,-2.9577,-2.9163,-2.8885,-2.8896,-2.8896,-2.885,-2.8803,-2.8803,-2.8792,-2.8839,-2.8896,-2.8943,-2.8943,-2.8896,-2.885,-2.8803,-2.8896,-2.8803,-2.8803,-2.8803,-2.8803,-2.8803,-2.8803,-2.8803,-2.8803,-2.8803,-2.8803,-2.8803,-2.8803,-2.8803,-2.8803,-2.8803,-2.8803,-2.8803,-2.8803,-2.8803,-2.8803,-2.8803,-2.8803,-2.8803,-2.8803,-2.8803,-2.8803,-2.8803,-2.8803,-2.8803,-2.8803,-3.0519,-3.1533,-3.1311,-3.0833,-3.0215,-3.0056,-3.0011,-3.0011,-3.0011,-3.0899,-3.2153,-3.2265,-3.271,-3.3207,-3.3518,-3.3615,-3.3869,-3.4163,-3.4426,-3.4675,-3.5005,-3.5291,-3.5467,-3.5588,-3.571,-3.571,-3.571,-3.5669,-3.5426,-3.4675,-3.4008,-3.3458,-3.2667,-3.2101,-3.2057,-3.2189,-3.2057,-3.1969,-3.1881,-3.1925,-3.1837,-3.1849,-3.1793,-3.1793,-3.1705,-3.1705,-3.1705,-3.1705,-3.1705,-3.1705,-3.1705,-3.1705,-3.1705,-3.1705,-3.1705,-3.1705,-3.1705,-3.1705,-3.1705,-3.1705,-3.1705,-3.1705,-3.1705,-3.1705,-3.1705,-3.1617,-3.135,-3.0623,-3.017,-2.984,-2.9439,-2.9301,-2.922,-2.9128,-2.9082,-2.9082,-2.9071,-2.9209,-2.9255,-2.9301,-2.9301,-2.9209,-2.9082,-2.8978,-2.9024,-2.8896,-2.8803,-2.885,-2.8803,-2.8803,-2.8803,-2.8803,-2.8803,-2.8803,-2.8803,-2.8803,-2.8803,-2.8803,-2.8803,-2.8803,-2.8803,-2.8803,-2.8803,-2.8803,-2.8803,-2.8803,-2.8803,-2.8803,-2.8803,-2.8803,-2.8803,-2.8803,-2.8803,-2.8803,-2.8803,-3.1223,-3.2722,-3.2407,-3.2003,-3.1609,-3.1288,-3.1408,-3.176,-3.1408,-3.1904,-3.2955,-3.3224,-3.3619,-3.4178,-3.4454,-3.4551,-3.4592,-3.4922,-3.51,-3.5223,-3.5507,-3.5588,-3.571,-3.571,-3.571,-3.571,-3.571,-3.571,-3.5426,-3.4758,-3.405,-3.3586,-3.2742,-3.2568,-3.2655,-3.2914,-3.2859,-3.2698,-3.2568,-3.2469,-3.2394,-3.2232,-3.2101,-3.2013,-3.1881,-3.1705,-3.1705,-3.1705,-3.1705,-3.1705,-3.1705,-3.1705,-3.1705,-3.1705,-3.1705,-3.1705,-3.1705,-3.1705,-3.1705,-3.1705,-3.1705,-3.1705,-3.1705,-3.1705,-3.1705,-3.1661,-3.135,-3.0904,-3.0758,-3.0578,-3.0125,-2.976,-2.9577,-2.9451,-2.9405,-2.9405,-2.9485,-2.9623,-2.9715,-2.976,-2.9715,-2.9623,-2.9531,-2.9393,-2.9255,-2.922,-2.9082,-2.8989,-2.8896,-2.8803,-2.8803,-2.8803,-2.8803,-2.8803,-2.8803,-2.8803,-2.8803,-2.8803,-2.8803,-2.8803,-2.8803,-2.8803,-2.8803,-2.8803,-2.8803,-2.8803,-2.8803,-2.8803,-2.8803,-2.8803,-2.8803,-2.8803,-2.8803,-2.8803,-2.8803,-3.2059,-3.4618,-3.3759,-3.345,-3.3661,-3.2827,-3.3041,-3.3943,-3.3028,-3.3169,-3.4027,-3.4165,-3.4677,-3.5209,-3.5386,-3.5426,-3.5386,-3.5507,-3.5507,-3.5669,-3.5669,-3.571,-3.571,-3.571,-3.571,-3.571,-3.571,-3.571,-3.5507,-3.4922,-3.4246,-3.3797,-3.3586,-3.3416,-3.3373,-3.367,-3.3713,-3.367,-3.3713,-3.3742,-3.3373,-3.3043,-3.2667,-3.255,-3.2157,-3.1705,-3.1705,-3.1705,-3.1705,-3.1705,-3.1705,-3.1705,-3.1705,-3.1705,-3.1705,-3.1705,-3.1705,-3.1705,-3.1705,-3.1705,-3.1705,-3.1705,-3.1705,-3.1705,-3.1705,-3.1705,-3.1439,-3.1306,-3.1172,-3.0892,-3.0487,-3.0261,-3.0125,-2.9943,-2.9852,-2.9806,-2.9897,-2.9988,-3.0034,-3.008,-3.0034,-2.9988,-2.9943,-2.9806,-2.9715,-2.9577,-2.9497,-2.9359,-2.922,-2.9035,-2.8896,-2.8896,-2.8803,-2.8803,-2.8803,-2.8803,-2.8803,-2.8803,-2.8803,-2.8803,-2.8803,-2.8803,-2.8803,-2.8803,-2.8803,-2.8803,-2.8803,-2.8803,-2.8803,-2.8803,-2.8803,-2.8803,-2.8803,-2.8803,-2.8803,-3.2796,-3.4673,-3.394,-3.4024,-3.4634,-3.3914,-3.4165,-3.5046,-3.4991,-3.4978,-3.5237,-3.5277,-3.5359,-3.5629,-3.571,-3.571,-3.571,-3.571,-3.571,-3.571,-3.571,-3.571,-3.571,-3.571,-3.571,-3.571,-3.571,-3.571,-3.5548,-3.5087,-3.4662,-3.4426,-3.4134,-3.3924,-3.3911,-3.4217,-3.4468,-3.4509,-3.4758,-3.4509,-3.3882,-3.3215,-3.2667,-3.2537,-3.2145,-3.1793,-3.1749,-3.1705,-3.1705,-3.1705,-3.1705,-3.1705,-3.1705,-3.1705,-3.1705,-3.1705,-3.1705,-3.1705,-3.1705,-3.1705,-3.1705,-3.1705,-3.1705,-3.1705,-3.1705,-3.1705,-3.1673,-3.1629,-3.1439,-3.116,-3.0937,-3.0802,-3.0668,-3.0442,-3.0306,-3.0306,-3.0306,-3.0352,-3.0442,-3.0397,-3.0385,-3.0352,-3.0306,-3.0261,-3.0125,-3.008,-3.0034,-2.9943,-2.976,-2.9577,-2.9209,-2.9128,-2.885,-2.8803,-2.8803,-2.8803,-2.8803,-2.8803,-2.8803,-2.8803,-2.8803,-2.8803,-2.8803,-2.8803,-2.8803,-2.8803,-2.8803,-2.8803,-2.8803,-2.8803,-2.8803,-2.8803,-2.8803,-2.8803,-2.8803,-3.3317,-3.4936,-3.4758,-3.4868,-3.5223,-3.4909,-3.5073,-3.5467,-3.5629,-3.571,-3.571,-3.571,-3.571,-3.571,-3.571,-3.571,-3.571,-3.571,-3.571,-3.571,-3.571,-3.571,-3.571,-3.571,-3.571,-3.571,-3.571,-3.5669,-3.5629,-3.5467,-3.5127,-3.5046,-3.4675,-3.4551,-3.4592,-3.4964,-3.51,-3.5182,-3.5548,-3.5209,-3.4426,-3.3924,-3.3373,-3.3116,-3.2568,-3.2089,-3.1749,-3.1705,-3.1705,-3.1705,-3.1705,-3.1705,-3.1705,-3.1705,-3.1705,-3.1705,-3.1705,-3.1705,-3.1705,-3.1705,-3.1705,-3.1705,-3.1705,-3.1705,-3.1705,-3.1705,-3.1705,-3.1661,-3.1661,-3.1395,-3.1383,-3.125,-3.125,-3.1116,-3.1071,-3.1071,-3.1071,-3.1071,-3.1116,-3.1116,-3.1116,-3.1071,-3.1071,-3.1071,-3.0892,-3.0544,-3.0499,-3.0363,-3.0216,-3.008,-2.9715,-2.9439,-2.9209,-2.8896,-2.8803,-2.8803,-2.8803,-2.8803,-2.885,-2.8803,-2.8803,-2.8803,-2.8803,-2.8803,-2.8803,-2.8803,-2.8803,-2.8803,-2.8803,-2.8803,-2.8803,-2.8803,-2.8803,-2.8803,-2.8803,-3.3567,-3.5238,-3.5561,-3.5669,-3.571,-3.5669,-3.5669,-3.571,-3.571,-3.571,-3.571,-3.571,-3.571,-3.571,-3.571,-3.571,-3.571,-3.571,-3.571,-3.571,-3.571,-3.571,-3.571,-3.571,-3.571,-3.571,-3.571,-3.571,-3.5669,-3.5588,-3.5588,-3.5669,-3.571,-3.5669,-3.571,-3.5669,-3.5588,-3.5588,-3.571,-3.571,-3.5386,-3.5046,-3.4301,-3.3628,-3.3043,-3.2394,-3.1925,-3.1705,-3.1705,-3.1705,-3.1705,-3.1705,-3.1705,-3.1705,-3.1705,-3.1705,-3.1705,-3.1705,-3.1705,-3.1705,-3.1705,-3.1705,-3.1705,-3.1705,-3.1705,-3.1705,-3.1705,-3.1705,-3.1705,-3.1705,-3.1661,-3.1661,-3.1661,-3.1617,-3.1617,-3.1605,-3.1617,-3.1572,-3.1572,-3.1572,-3.1572,-3.1572,-3.1661,-3.1661,-3.1484,-3.1128,-3.0904,-3.0724,-3.0589,-3.0487,-3.0261,-2.9943,-2.9715,-2.9393,-2.9128,-2.8989,-2.9035,-2.8943,-2.8978,-2.8896,-2.8803,-2.8803,-2.8803,-2.8803,-2.8803,-2.8803,-2.8803,-2.8803,-2.8803,-2.8803,-2.8803,-2.8803,-2.8803,-2.8803,-2.8803,-3.3303,-3.4966,-3.5466,-3.571,-3.571,-3.571,-3.571,-3.571,-3.571,-3.571,-3.571,-3.571,-3.571,-3.571,-3.571,-3.571,-3.571,-3.571,-3.571,-3.571,-3.571,-3.571,-3.571,-3.571,-3.571,-3.571,-3.571,-3.571,-3.571,-3.571,-3.571,-3.571,-3.571,-3.571,-3.571,-3.571,-3.571,-3.571,-3.571,-3.571,-3.5548,-3.5046,-3.4384,-3.3713,-3.3056,-3.2407,-3.1893,-3.1705,-3.1705,-3.1705,-3.1705,-3.1705,-3.1705,-3.1705,-3.1705,-3.1705,-3.1705,-3.1705,-3.1705,-3.1705,-3.1705,-3.1705,-3.1705,-3.1705,-3.1705,-3.1705,-3.1705,-3.1705,-3.1705,-3.1705,-3.1705,-3.1705,-3.1661,-3.1661,-3.1661,-3.1661,-3.1661,-3.1484,-3.1306,-3.135,-3.1395,-3.1484,-3.1661,-3.1705,-3.1661,-3.1439,-3.1439,-3.1261,-3.1172,-3.0994,-3.0758,-3.0532,-3.0261,-3.0125,-2.9943,-2.9485,-2.9393,-2.9255,-2.9117,-2.9024,-2.8943,-2.8803,-2.8803,-2.8803,-2.8803,-2.8803,-2.8803,-2.8803,-2.8803,-2.8803,-2.8803,-2.8803,-2.8803,-2.8803,-2.8803]},{"header":{"parameterUnit":"m.s-1","parameterCategory":1,"la1":31.0,"la2":29.5877,"lo1":-88.7671,"lo2":-86.6584,"dy":0.0162,"dx":0.0185,"nx":115,"ny":88,"refTime":"2025-07-05T12:00:00:Z","depth":0,"parameterNumber":3,"parameterNumberName":"V-component_of_WINDS"},"data":[0.0,0.0,0.0,0.0,0.0,0.0,0.0,0.0,0.0,0.0,0.0,0.0,0.0,0.0,0.0,0.0,0.0,0.0,0.0,0.0,0.0,0.0,0.0,0.0,0.0,0.0,0.0,0.0,0.0,0.0,0.0,0.0,0.0,0.0,0.0,0.0,0.0,0.0,0.0,0.0,0.0,0.0,0.0,0.0,0.0,0.0,0.0,0.0,0.0,0.0,0.0,0.0,0.0,0.0,0.0,0.0,0.0,0.0,0.0,0.0,0.0,0.0,0.0,0.0,0.0,0.0,0.0,0.0,0.0,0.0,0.0,0.0,0.0,0.0,0.0,0.0,0.0,0.0,0.0,0.0,0.0,0.0,0.0,0.0,0.0,0.0,0.0,0.0,0.0,0.0,0.0,0.0,0.0,0.0,0.0,0.0,0.0,0.0,0.0,0.0,0.0,0.0,0.0,0.0,0.0,0.0,0.0,0.0,0.0,0.0,0.0,0.0,0.0,0.0,0.0,0.0,0.0,0.0,0.0,0.0,0.0,0.0,0.0,0.0,0.0,0.0,0.0,0.0,0.0,0.0,0.0,0.0,0.0,0.0,0.0,0.0,0.0,0.0,0.0,0.0,0.0,0.0,0.0,0.0,0.0,0.0,0.0,0.0,0.0,0.0,0.0,0.0,0.0,0.0,0.0,0.0,0.0,0.0,0.0,0.0,0.0,0.0,0.0,0.0,0.0,0.0,0.0,0.0,0.0,0.0,0.0,0.0,0.0,0.0,0.0,0.0,0.0,0.0,0.0,0.0,0.0,0.0,0.0,0.0,0.0,0.0,0.0,0.0,0.0,0.0,0.0,0.0,0.0,0.0,0.0,0.0,0.0,0.0,0.0,0.0,0.0,0.0,0.0,0.0,0.0,0.0,0.0,0.0,0.0,0.0,0.0,0.0,0.0,0.0,0.0,0.0,0.0,0.0,0.0,0.0,0.0,0.0,0.0,0.0,0.0,0.0,0.0,0.0,0.0,0.0,0.0,0.0,0.0,0.0,0.0,0.0,0.0,0.0,0.0,0.0,0.0,0.0,0.0,0.0,0.0,0.0,0.0,0.0,0.0,0.0,0.0,0.0,0.0,0.0,0.0,0.0,0.0,0.0,0.0,0.0,0.0,0.0,0.0,0.0,0.0,0.0,0.0,0.0,0.0,0.0,0.0,0.0,0.0,0.0,0.0,0.0,0.0,0.0,0.0,0.0,0.0,0.0,0.0,0.0,0.0,0.0,0.0,0.0,0.0,0.0,0.0,0.0,0.0,0.0,0.0,0.0,0.0,0.0,0.0,0.0,0.0,0.0,0.0,0.0,0.0,0.0,0.0,0.0,0.0,0.0,0.0,0.0,0.0,0.0,0.0,0.0,0.0,0.0,0.0,0.0,0.0,0.0,0.0,0.0,0.0,0.0,0.0,0.0,0.0,0.0,0.0,0.0,0.0,0.0,0.0,0.0,0.0,0.0,0.0,0.0,0.0,0.0,0.0,0.0,0.0,0.0,0.0,0.0,0.0,0.0,0.0,0.0,0.0,0.0,0.0,0.0,0.0,0.0,0.0,0.0,0.0,0.0,0.0,0.0,0.0,0.0,0.0,0.0,0.0,0.0,0.0,0.0,0.0,0.0,0.0,0.0,0.0,0.0,0.0,0.0,0.0,0.0,0.0,0.0,0.0,0.0,0.0,0.0,0.0,0.0,0.0,0.0,0.0,0.0,0.0,0.0,0.0,0.0,0.0,0.0,0.0,0.0,0.0,0.0,0.0,0.0,0.0,0.0,0.0,0.0,0.0,0.0,0.0,0.0,0.0,0.0,0.0,0.0,0.0,0.0,0.0,0.0,0.0,0.0,0.0,0.0,0.0,0.0,0.0,0.0,0.0,0.0,0.0,0.0,0.0,0.0,0.0,0.0,0.0,0.0,0.0,0.0,0.0,0.0,0.0,0.0,0.0,0.0,0.0,0.0,0.0,0.0,0.0,0.0,0.0,0.0,0.0,0.0,0.0,0.0,0.0,0.0,0.0,0.0,0.0,0.0,0.0,0.0,0.0,0.0,0.0,0.0,0.0,0.0,0.0,0.0,0.0,0.0,0.0,0.0,0.0,0.0,0.0,0.0,0.0,0.0,0.0,0.0,0.0,0.0,0.0,0.0,0.0,0.0,0.0,0.0,0.0,0.0,0.0,0.0,0.0,0.0,0.0,0.0,0.0,0.0,0.0,0.0,0.0,0.0,0.0,0.0,0.0,0.0,0.0,0.0,0.0,0.0,0.0,0.0,0.0,0.0,0.0,0.0,0.0,0.0,0.0,0.0,0.0,0.0,0.0,0.0,0.0,0.0,0.0,0.0,0.0,0.0,0.0,0.0,0.0,0.0,0.0,0.0,0.0,0.0,0.0,0.0,0.0,0.0,0.0,0.0,0.0,0.0,0.0,0.0,0.0,0.0,0.0,0.0,0.0,0.0,0.0,0.0,0.0,0.0,0.0,0.0,0.0,0.0,0.0,0.0,0.0,0.0,0.0,0.0,0.0,0.0,0.0,0.0,0.0,0.0,0.0,0.0,0.0,0.0,0.0,0.0,0.0,0.0,0.0,0.0,0.0,0.0,0.0,0.0,0.0,0.0,0.0,0.0,0.0,0.0,0.0,0.0,0.0,0.0,0.0,0.0,0.0,0.0,0.0,0.0,0.0,0.0,0.0,0.0,0.0,0.0,0.0,0.0,0.0,0.0,0.0,0.0,0.0,0.0,0.0,0.0,0.0,0.0,0.0,0.0,0.0,0.0,0.0,0.0,0.0,0.0,0.0,0.0,0.0,0.0,0.0,0.0,0.0,0.0,0.0,0.0,0.0,0.0,0.0,0.0,0.0,0.0,0.0,0.0,0.0,0.0,0.0,0.0,0.0,0.0,0.0,0.0,0.0,0.0,0.0,0.0,0.0,0.0,0.0,0.0,0.0,0.0,0.0,0.0,0.0,0.0,0.0,0.0,0.0,0.0,0.0,0.0,0.0,0.0,0.0,0.0,0.0,0.0,0.0,0.0,0.0,0.0,0.0,0.0,0.0,0.0,0.0,0.0,0.0,0.0,0.0,0.0,0.0,0.0,0.0,0.0,0.0,0.0,0.0,0.0,0.0,0.0,0.0,0.0,0.0,0.0,0.0,0.0,0.0,0.0,0.0,0.0,0.0,0.0,0.0,0.0,0.0,0.0,0.0,0.0,0.0,0.0,0.0,0.0,0.0,0.0,0.0,0.0,0.0,0.0,0.0,0.0,0.0,0.0,0.0,0.0,0.0,0.0,0.0,0.0,0.0,0.0,0.0,0.0,0.0,0.0,0.0,0.0,0.0,0.0,0.0,0.0,0.0,0.0,0.0,0.0,0.0,0.0,0.0,0.0,0.0,0.0,0.0,0.0,0.0,0.0,0.0,0.0,0.0,0.0,0.0,0.0,0.0,0.0,0.0,0.0,0.0,0.0,0.0,0.0,0.0,0.0,0.0,0.0,0.0,0.0,0.0,0.0,0.0,0.0,0.0,0.0,0.0,0.0,0.0,0.0,0.0,0.0,0.0,0.0,0.0,0.0,0.0,0.0,0.0,0.0,0.0,0.0,0.0,0.0,0.0,0.0,0.0,0.0,0.0,0.0,0.0,0.0,0.0,0.0,0.0,0.0,0.0,0.0,0.0,0.0,0.0,0.0,0.0,0.0,0.0,0.0,0.0,0.0,0.0,0.0,0.0,0.0,0.0,0.0,0.0,0.0,0.0,0.0,0.0,0.0,0.0,0.0,0.0,0.0,0.0,0.0,0.0,0.0,0.0,0.0,0.0,0.0,0.0,0.0,0.0,0.0,0.0,0.0,0.0,0.0,0.0,0.0,0.0,0.0,0.0,0.0,0.0,0.0,0.0,0.0,0.0,0.0,0.0,0.0,0.0,0.0,0.0,0.0,0.0,0.0,0.0,0.0,0.0,0.0,0.0,0.0,0.0,0.0,0.0,0.0,0.0,0.0,0.0,0.0,0.0,0.0,0.0,0.0,0.0,0.0,0.0,0.0,0.0,0.0,0.0,0.0,0.0,0.0,0.0,0.0,0.0,0.0,0.0,0.0,0.0,0.0,0.0,0.0,0.0,0.0,0.0,0.0,0.0,0.0,0.0,0.0,0.0,0.0,0.0,0.0,0.0,0.0,0.0,0.0,0.0,0.0,0.0,0.0,0.0,0.0,0.0,0.0,0.0,0.0,0.0,0.0,0.0,0.0,-0.8467,0.0,0.0,0.0,0.0,0.0,0.0,0.0,0.0,0.0,0.0,0.0,0.0,0.0,0.0,0.0,0.0,0.0,0.0,0.0,0.0,0.0,0.0,0.0,0.0,0.0,0.0,0.0,0.0,0.0,0.0,0.0,0.0,0.0,0.0,0.0,0.0,0.0,0.0,0.0,0.0,0.0,0.0,0.0,0.0,0.0,0.0,0.0,0.0,0.0,0.0,0.0,0.0,0.0,0.0,0.0,0.0,0.0,0.0,0.0,0.0,0.0,0.0,0.0,0.0,0.0,0.0,0.0,0.0,0.0,0.0,0.0,0.0,0.0,0.0,0.0,0.0,0.0,0.0,0.0,0.0,0.0,0.0,0.0,0.0,0.0,0.0,0.0,0.0,0.0,0.0,0.0,0.0,0.0,0.0,0.0,0.0,0.0,0.0,0.0,0.0,0.0,0.0,0.0,0.0,0.0,0.0,0.0,0.0,0.0,0.0,-0.8448,-0.8448,-0.8448,-0.846,-0.8479,0.0,0.0,0.0,0.0,0.0,0.0,0.0,0.0,0.0,0.0,0.0,0.0,0.0,0.0,0.0,0.0,0.0,0.0,0.0,0.0,0.0,0.0,0.0,0.0,0.0,0.0,0.0,0.0,0.0,0.0,0.0,0.0,0.0,0.0,0.0,0.0,0.0,0.0,0.0,0.0,0.0,0.0,0.0,0.0,0.0,0.0,0.0,0.0,0.0,0.0,0.0,0.0,0.0,0.0,0.0,0.0,0.0,0.0,0.0,0.0,0.0,0.0,0.0,0.0,0.0,0.0,0.0,0.0,0.0,0.0,0.0,0.0,0.0,0.0,0.0,0.0,0.0,0.0,0.0,0.0,0.0,0.0,0.0,0.0,0.0,0.0,0.0,0.0,0.0,0.0,0.0,0.0,0.0,0.0,0.0,0.0,0.0,0.0,0.0,0.0,0.0,0.0,0.0,0.0,0.0,0.0,0.0,0.0,0.0,0.0,0.0,0.0,-0.8999,-0.8999,-0.8992,0.0,0.0,0.0,0.0,0.0,0.0,0.0,0.0,0.0,0.0,0.0,0.0,0.0,0.0,0.0,0.0,0.0,0.0,0.0,0.0,0.0,0.0,0.0,0.0,0.0,0.0,0.0,0.0,0.0,0.0,0.0,0.0,0.0,0.0,0.0,0.0,0.0,0.0,0.0,0.0,0.0,0.0,0.0,0.0,0.0,0.0,0.0,0.0,0.0,0.0,0.0,0.0,0.0,0.0,0.0,0.0,0.0,0.0,0.0,0.0,0.0,0.0,0.0,0.0,0.0,0.0,0.0,0.0,0.0,0.0,0.0,0.0,0.0,0.0,0.0,0.0,0.0,0.0,0.0,0.0,0.0,0.0,0.0,0.0,0.0,0.0,0.0,0.0,0.0,0.0,0.0,0.0,0.0,0.0,0.0,0.0,0.0,0.0,0.0,0.0,0.0,0.0,0.0,0.0,0.0,0.0,0.0,0.0,0.0,0.0,-0.9151,-1.0468,-1.05,0.0,-1.05,0.0,0.0,0.0,0.0,0.0,0.0,0.0,0.0,0.0,0.0,0.0,0.0,0.0,0.0,0.0,0.0,0.0,0.0,0.0,0.0,0.0,0.0,0.0,0.0,0.0,0.0,0.0,0.0,0.0,0.0,0.0,0.0,0.0,0.0,0.0,0.0,0.0,0.0,0.0,0.0,0.0,0.0,0.0,0.0,0.0,0.0,0.0,0.0,0.0,0.0,0.0,0.0,0.0,0.0,0.0,0.0,0.0,0.0,0.0,0.0,0.0,0.0,0.0,0.0,0.0,0.0,0.0,0.0,0.0,0.0,0.0,0.0,0.0,0.0,0.0,0.0,0.0,0.0,0.0,0.0,0.0,0.0,0.0,0.0,0.0,0.0,0.0,0.0,0.0,0.0,0.0,0.0,0.0,0.0,0.0,0.0,0.0,0.0,0.0,0.0,0.0,0.0,0.0,0.0,0.0,0.0,0.0,0.0,0.0,0.0,0.0,-1.0671,-1.0711,-1.0711,0.0,0.0,0.0,0.0,0.0,0.0,0.0,0.0,0.0,0.0,0.0,0.0,0.0,0.0,0.0,0.0,0.0,0.0,0.0,0.0,0.0,0.0,0.0,0.0,0.0,0.0,0.0,0.0,0.0,0.0,0.0,0.0,0.0,0.0,0.0,0.0,0.0,0.0,0.0,0.0,0.0,0.0,0.0,0.0,0.0,0.0,0.0,0.0,0.0,0.0,0.0,0.0,0.0,0.0,0.0,0.0,0.0,0.0,0.0,0.0,0.0,0.0,0.0,0.0,0.0,0.0,0.0,0.0,0.0,0.0,0.0,0.0,0.0,0.0,0.0,0.0,0.0,0.0,0.0,0.0,0.0,0.0,0.0,0.0,0.0,0.0,0.0,0.0,0.0,0.0,0.0,0.0,0.0,0.0,0.0,0.0,0.0,0.0,0.0,0.0,0.0,0.0,0.0,0.0,0.0,0.0,0.0,0.0,0.0,0.0,-1.0363,0.0,-1.1246,-1.1084,-1.0889,-1.0687,0.0,0.0,0.0,0.0,0.0,0.0,0.0,0.0,0.0,0.0,0.0,0.0,0.0,0.0,0.0,0.0,0.0,0.0,0.0,0.0,0.0,0.0,0.0,0.0,0.0,0.0,0.0,0.0,0.0,0.0,0.0,0.0,0.0,0.0,0.0,0.0,0.0,0.0,0.0,0.0,0.0,0.0,0.0,0.0,0.0,0.0,0.0,0.0,0.0,0.0,0.0,0.0,0.0,0.0,0.0,0.0,0.0,0.0,0.0,0.0,0.0,0.0,0.0,0.0,0.0,0.0,0.0,0.0,0.0,0.0,0.0,0.0,0.0,0.0,0.0,0.0,0.0,0.0,0.0,0.0,0.0,0.0,0.0,0.0,0.0,0.0,0.0,0.0,0.0,0.0,0.0,0.0,0.0,0.0,0.0,0.0,0.0,0.0,0.0,0.0,0.0,0.0,0.0,0.0,0.0,0.0,0.0,0.0,0.0,-1.1335,-1.1351,-1.2632,-1.2015,-1.1351,0.0,0.0,0.0,0.0,0.0,0.0,0.0,0.0,0.0,0.0,0.0,0.0,0.0,0.0,0.0,0.0,0.0,0.0,0.0,0.0,0.0,0.0,0.0,0.0,0.0,0.0,0.0,0.0,0.0,0.0,0.0,0.0,0.0,0.0,0.0,0.0,0.0,0.0,0.0,0.0,0.0,0.0,0.0,0.0,0.0,0.0,0.0,0.0,0.0,0.0,0.0,0.0,0.0,0.0,0.0,0.0,0.0,0.0,0.0,0.0,0.0,0.0,0.0,0.0,0.0,0.0,0.0,0.0,0.0,0.0,0.0,0.0,0.0,0.0,0.0,0.0,0.0,0.0,0.0,0.0,0.0,0.0,0.0,0.0,0.0,0.0,0.0,0.0,0.0,0.0,0.0,0.0,0.0,0.0,0.0,0.0,0.0,0.0,0.0,0.0,0.0,0.0,0.0,0.0,0.0,0.0,0.0,0.0,0.0,-1.0065,-1.0474,-1.1595,-1.3355,-1.1935,-1.114,0.0,0.0,0.0,0.0,0.0,0.0,0.0,0.0,0.0,0.0,0.0,0.0,0.0,0.0,0.0,0.0,0.0,0.0,0.0,0.0,0.0,0.0,0.0,0.0,0.0,0.0,0.0,0.0,0.0,0.0,0.0,0.0,0.0,0.0,0.0,0.0,0.0,0.0,0.0,0.0,0.0,0.0,0.0,0.0,0.0,0.0,0.0,0.0,0.0,0.0,0.0,0.0,0.0,0.0,0.0,0.0,0.0,0.0,0.0,0.0,0.0,0.0,0.0,0.0,0.0,0.0,0.0,0.0,0.0,0.0,0.0,0.0,0.0,0.0,0.0,0.0,0.0,0.0,0.0,0.0,0.0,0.0,0.0,0.0,0.0,0.0,0.0,0.0,0.0,0.0,0.0,0.0,0.0,0.0,0.0,0.0,0.0,0.0,0.0,0.0,0.0,0.0,0.0,0.0,0.0,0.0,0.0,0.0,0.0,-0.9637,0.0,-1.1969,0.0,-1.157,-1.0703,0.0,0.0,0.0,0.0,0.0,0.0,0.0,0.0,0.0,0.0,0.0,0.0,0.0,0.0,0.0,0.0,0.0,0.0,0.0,0.0,0.0,0.0,0.0,0.0,0.0,0.0,0.0,0.0,0.0,0.0,0.0,0.0,0.0,0.0,0.0,0.0,0.0,0.0,0.0,0.0,0.0,0.0,0.0,0.0,0.0,0.0,0.0,0.0,0.0,0.0,0.0,0.0,0.0,0.0,0.0,0.0,0.0,0.0,0.0,0.0,0.0,0.0,0.0,0.0,0.0,0.0,0.0,0.0,0.0,0.0,0.0,0.0,0.0,0.0,0.0,0.0,0.0,0.0,0.0,0.0,0.0,0.0,0.0,0.0,0.0,0.0,0.0,0.0,0.0,0.0,0.0,0.0,0.0,0.0,0.0,0.0,0.0,0.0,0.0,0.0,0.0,0.0,0.0,0.0,0.0,0.0,0.0,0.0,-0.9644,-1.1653,-1.2358,-1.2405,-1.1731,-1.1059,-1.0032,0.0,0.0,0.0,0.0,0.0,0.0,0.0,0.0,0.0,0.0,0.0,0.0,0.0,0.0,0.0,0.0,0.0,0.0,0.0,0.0,0.0,0.0,0.0,0.0,0.0,0.0,0.0,0.0,0.0,0.0,0.0,0.0,0.0,0.0,0.0,0.0,0.0,0.0,0.0,0.0,0.0,0.0,0.0,0.0,0.0,0.0,0.0,0.0,0.0,0.0,0.0,0.0,0.0,0.0,0.0,0.0,0.0,0.0,0.0,0.0,0.0,0.0,0.0,0.0,0.0,0.0,0.0,0.0,0.0,0.0,0.0,0.0,0.0,0.0,0.0,0.0,0.0,0.0,0.0,0.0,0.0,0.0,0.0,0.0,0.0,0.0,0.0,0.0,0.0,0.0,0.0,0.0,0.0,0.0,0.0,0.0,0.0,0.0,0.0,0.0,0.0,0.0,0.0,0.0,0.0,0.0,0.0,0.0,0.0,-1.0379,-1.1482,-1.2212,-1.2405,-1.0816,-1.0201,0.0,0.0,0.0,0.0,0.0,0.0,0.0,0.0,0.0,0.0,0.0,0.0,0.0,0.0,0.0,0.0,0.0,0.0,0.0,0.0,0.0,0.0,0.0,0.0,0.0,0.0,0.0,0.0,0.0,0.0,0.0,0.0,0.0,0.0,0.0,0.0,0.0,0.0,0.0,0.0,0.0,0.0,0.0,0.0,0.0,0.0,0.0,0.0,0.0,0.0,0.0,0.0,0.0,0.0,0.0,0.0,0.0,0.0,0.0,0.0,0.0,0.0,0.0,0.0,0.0,0.0,0.0,0.0,0.0,0.0,0.0,0.0,0.0,0.0,0.0,0.0,0.0,0.0,0.0,0.0,0.0,0.0,0.0,0.0,0.0,0.0,0.0,0.0,0.0,0.0,0.0,0.0,0.0,0.0,0.0,0.0,0.0,0.0,0.0,0.0,0.0,0.0,0.0,0.0,0.0,0.0,0.0,0.0,0.0,-1.1827,-1.2822,-1.345,-1.3569,-1.1755,-1.084,-1.0873,0.0,0.0,0.0,0.0,0.0,0.0,0.0,0.0,0.0,0.0,0.0,0.0,0.0,0.0,0.0,0.0,0.0,0.0,0.0,0.0,0.0,0.0,0.0,0.0,0.0,0.0,0.0,0.0,0.0,0.0,0.0,0.0,0.0,0.0,0.0,0.0,0.0,0.0,0.0,0.0,0.0,0.0,0.0,0.0,0.0,0.0,0.0,0.0,0.0,0.0,0.0,0.0,0.0,0.0,0.0,0.0,0.0,0.0,0.0,0.0,0.0,0.0,0.0,0.0,0.0,0.0,0.0,0.0,0.0,0.0,0.0,0.0,0.0,0.0,0.0,0.0,0.0,0.0,0.0,0.0,0.0,0.0,0.0,0.0,0.0,0.0,0.0,0.0,0.0,0.0,0.0,0.0,0.0,0.0,0.0,0.0,0.0,0.0,0.0,0.0,0.0,0.0,0.0,0.0,0.0,0.0,0.0,0.0,-1.5309,-1.6074,-1.6059,-1.5188,-1.3719,-1.1959,0.0,0.0,0.0,0.0,0.0,0.0,0.0,0.0,0.0,0.0,0.0,0.0,0.0,0.0,0.0,0.0,0.0,0.0,0.0,0.0,0.0,0.0,0.0,0.0,0.0,0.0,0.0,0.0,0.0,0.0,0.0,0.0,0.0,0.0,0.0,0.0,0.0,0.0,0.0,0.0,0.0,0.0,0.0,0.0,0.0,0.0,0.0,0.0,0.0,0.0,0.0,0.0,0.0,0.0,0.0,0.0,0.0,0.0,0.0,0.0,0.0,0.0,0.0,0.0,0.0,0.0,0.0,0.0,0.0,0.0,0.0,0.0,0.0,0.0,0.0,0.0,0.0,0.0,0.0,0.0,0.0,0.0,0.0,0.0,0.0,0.0,0.0,0.0,0.0,0.0,0.0,0.0,0.0,0.0,0.0,0.0,0.0,0.0,0.0,0.0,0.0,0.0,0.0,0.0,0.0,0.0,0.0,0.0,0.0,-1.6779,-1.9545,-2.0155,-1.8329,-1.5845,-1.3982,0.0,0.0,0.0,0.0,0.0,0.0,0.0,0.0,0.0,0.0,0.0,0.0,0.0,0.0,0.0,0.0,0.0,0.0,0.0,0.0,0.0,0.0,0.0,0.0,0.0,0.0,0.0,0.0,0.0,0.0,0.0,0.0,0.0,0.0,0.0,0.0,0.0,0.0,0.0,0.0,0.0,0.0,0.0,0.0,0.0,0.0,0.0,0.0,0.0,0.0,0.0,0.0,0.0,0.0,0.0,0.0,0.0,0.0,0.0,0.0,0.0,0.0,0.0,0.0,0.0,0.0,0.0,0.0,0.0,0.0,0.0,0.0,0.0,0.0,0.0,0.0,0.0,0.0,0.0,0.0,0.0,0.0,0.0,0.0,0.0,0.0,0.0,0.0,0.0,0.0,0.0,0.0,0.0,0.0,0.0,0.0,0.0,0.0,0.0,0.0,0.0,0.0,0.0,0.0,0.0,0.0,0.0,0.0,-1.6718,-1.8706,-2.2036,-2.3126,-2.1796,-1.8588,-1.5953,0.0,0.0,0.0,0.0,0.0,0.0,0.0,0.0,0.0,0.0,0.0,0.0,0.0,0.0,0.0,0.0,0.0,0.0,0.0,0.0,0.0,0.0,0.0,0.0,0.0,0.0,0.0,0.0,0.0,0.0,0.0,0.0,0.0,0.0,0.0,0.0,0.0,0.0,0.0,0.0,0.0,0.0,0.0,0.0,0.0,0.0,0.0,0.0,0.0,0.0,0.0,0.0,0.0,0.0,0.0,0.0,0.0,0.0,0.0,0.0,0.0,0.0,0.0,0.0,0.0,0.0,0.0,0.0,0.0,0.0,0.0,0.0,0.0,0.0,0.0,0.0,0.0,0.0,0.0,0.0,0.0,0.0,0.0,0.0,0.0,0.0,0.0,0.0,0.0,0.0,0.0,0.0,0.0,0.0,0.0,0.0,0.0,0.0,0.0,0.0,0.0,0.0,0.0,0.0,0.0,0.0,0.0,0.0,-1.7967,-2.0768,-2.3686,-2.5141,-2.4905,-2.1393,-1.7833,0.0,0.0,0.0,0.0,0.0,0.0,0.0,0.0,0.0,0.0,0.0,0.0,0.0,0.0,0.0,0.0,0.0,0.0,0.0,0.0,0.0,0.0,0.0,0.0,0.0,0.0,0.0,0.0,0.0,0.0,0.0,0.0,0.0,0.0,0.0,0.0,0.0,0.0,0.0,0.0,0.0,0.0,0.0,0.0,0.0,0.0,0.0,0.0,0.0,0.0,0.0,0.0,0.0,0.0,0.0,0.0,0.0,0.0,0.0,0.0,0.0,0.0,0.0,0.0,0.0,0.0,0.0,0.0,0.0,0.0,0.0,0.0,0.0,0.0,0.0,0.0,0.0,0.0,0.0,0.0,0.0,0.0,0.0,0.0,0.0,0.0,0.0,0.0,0.0,0.0,0.0,0.0,0.0,0.0,0.0,0.0,0.0,0.0,0.0,0.0,0.0,0.0,0.0,0.0,0.0,0.0,0.0,0.0,-1.9197,-2.1531,-2.4448,-2.5918,-2.5745,-2.2224,-1.9156,0.0,0.0,0.0,0.0,0.0,0.0,0.0,0.0,0.0,0.0,0.0,0.0,0.0,0.0,0.0,0.0,0.0,0.0,0.0,0.0,0.0,0.0,0.0,0.0,0.0,0.0,0.0,0.0,0.0,0.0,0.0,0.0,0.0,0.0,0.0,0.0,0.0,0.0,0.0,0.0,0.0,0.0,0.0,0.0,0.0,0.0,0.0,0.0,-1.1039,0.0,0.0,0.0,0.0,0.0,0.0,0.0,0.0,0.0,0.0,0.0,0.0,0.0,0.0,0.0,0.0,0.0,0.0,0.0,0.0,0.0,0.0,0.0,0.0,0.0,0.0,0.0,0.0,0.0,0.0,0.0,0.0,0.0,0.0,0.0,0.0,0.0,0.0,0.0,0.0,0.0,0.0,0.0,0.0,0.0,0.0,0.0,0.0,0.0,0.0,0.0,0.0,0.0,0.0,0.0,0.0,0.0,0.0,0.0,-2.026,-2.2775,-2.5044,-2.615,-2.5911,-2.3457,-2.0734,0.0,0.0,0.0,0.0,0.0,0.0,0.0,0.0,0.0,0.0,0.0,0.0,0.0,0.0,0.0,0.0,0.0,0.0,0.0,0.0,0.0,0.0,0.0,0.0,0.0,0.0,0.0,0.0,0.0,0.0,0.0,0.0,0.0,0.0,0.0,0.0,0.0,0.0,0.0,0.0,0.0,0.0,0.0,0.0,0.0,0.0,0.0,0.0,0.0,0.0,0.0,0.0,0.0,0.0,0.0,0.0,0.0,0.0,0.0,0.0,0.0,0.0,0.0,0.0,0.0,0.0,0.0,0.0,0.0,0.0,0.0,0.0,0.0,0.0,0.0,0.0,0.0,0.0,0.0,0.0,0.0,0.0,0.0,0.0,0.0,0.0,0.0,0.0,0.0,0.0,0.0,0.0,0.0,0.0,0.0,0.0,0.0,0.0,0.0,0.0,0.0,0.0,0.0,0.0,0.0,0.0,0.0,-1.8286,-2.1052,-2.4216,-2.5556,-2.6132,-2.5975,-2.4574,-2.2145,-1.8608,0.0,0.0,0.0,0.0,0.0,0.0,0.0,0.0,0.0,0.0,0.0,0.0,0.0,0.0,0.0,0.0,0.0,0.0,0.0,0.0,0.0,0.0,0.0,0.0,0.0,0.0,0.0,0.0,0.0,0.0,0.0,0.0,0.0,0.0,0.0,0.0,0.0,0.0,-1.0053,-1.0813,0.0,0.0,0.0,0.0,0.0,0.0,0.0,0.0,-1.1557,0.0,0.0,0.0,0.0,0.0,0.0,0.0,0.0,0.0,0.0,0.0,0.0,0.0,0.0,0.0,0.0,0.0,0.0,0.0,0.0,0.0,0.0,0.0,0.0,0.0,0.0,0.0,0.0,0.0,0.0,0.0,0.0,0.0,0.0,0.0,0.0,0.0,0.0,0.0,0.0,0.0,0.0,0.0,0.0,0.0,0.0,0.0,0.0,0.0,0.0,0.0,0.0,0.0,0.0,0.0,0.0,-1.8812,-1.8885,-2.1119,-2.5689,-2.607,-2.6132,-2.5959,-2.4626,-2.2436,-1.94,0.0,0.0,0.0,0.0,0.0,0.0,0.0,0.0,0.0,0.0,0.0,0.0,0.0,0.0,0.0,0.0,0.0,0.0,0.0,0.0,0.0,0.0,0.0,0.0,0.0,0.0,0.0,0.0,0.0,0.0,0.0,0.0,0.0,0.0,0.0,0.0,0.0,0.0,0.0,-1.4017,-1.4602,0.0,0.0,0.0,0.0,0.0,0.0,0.0,0.0,-1.2357,0.0,0.0,0.0,0.0,0.0,0.0,0.0,0.0,0.0,0.0,0.0,0.0,0.0,0.0,0.0,0.0,0.0,0.0,0.0,0.0,0.0,0.0,0.0,0.0,0.0,0.0,0.0,0.0,0.0,0.0,0.0,0.0,0.0,0.0,0.0,0.0,0.0,0.0,0.0,0.0,0.0,0.0,0.0,0.0,0.0,0.0,0.0,0.0,0.0,0.0,0.0,0.0,0.0,0.0,0.0,-1.8389,-2.0073,-2.2589,-2.6036,-2.6185,-2.6168,-2.6048,-2.3935,-2.1744,0.0,0.0,0.0,0.0,0.0,0.0,0.0,0.0,0.0,0.0,0.0,0.0,0.0,0.0,0.0,0.0,0.0,0.0,0.0,0.0,0.0,0.0,0.0,0.0,0.0,0.0,0.0,0.0,0.0,0.0,0.0,0.0,0.0,0.0,0.0,0.0,0.0,0.0,0.0,0.0,-1.4784,-1.5737,-1.6951,0.0,0.0,0.0,0.0,0.0,0.0,-1.4581,-1.3405,0.0,0.0,0.0,0.0,0.0,0.0,0.0,0.0,0.0,0.0,0.0,0.0,0.0,0.0,0.0,0.0,0.0,0.0,0.0,0.0,0.0,0.0,0.0,0.0,0.0,0.0,0.0,0.0,0.0,0.0,0.0,0.0,0.0,0.0,0.0,0.0,0.0,0.0,0.0,0.0,0.0,0.0,0.0,0.0,0.0,0.0,0.0,0.0,0.0,0.0,0.0,0.0,0.0,0.0,0.0,-1.7571,-2.0808,-2.3701,-2.6053,-2.6185,-2.6168,-2.6118,-2.3407,-2.1103,0.0,0.0,0.0,0.0,0.0,0.0,0.0,0.0,0.0,0.0,0.0,0.0,0.0,0.0,0.0,0.0,0.0,0.0,0.0,0.0,0.0,0.0,0.0,0.0,0.0,0.0,0.0,0.0,0.0,0.0,0.0,0.0,0.0,0.0,0.0,0.0,0.0,0.0,0.0,0.0,0.0,-1.7102,-1.8789,-1.7331,0.0,0.0,0.0,0.0,-1.7513,-1.6509,0.0,0.0,0.0,0.0,0.0,0.0,0.0,0.0,0.0,0.0,0.0,0.0,0.0,0.0,0.0,0.0,0.0,0.0,0.0,0.0,0.0,0.0,0.0,0.0,0.0,0.0,0.0,0.0,0.0,0.0,0.0,0.0,0.0,0.0,0.0,0.0,0.0,0.0,0.0,0.0,0.0,0.0,0.0,0.0,0.0,0.0,0.0,0.0,0.0,0.0,0.0,0.0,0.0,0.0,0.0,0.0,-1.7365,-1.9864,-2.2781,-2.5987,-2.6097,-2.6026,-2.5994,-2.3786,-2.1307,0.0,0.0,0.0,0.0,0.0,0.0,0.0,0.0,0.0,0.0,0.0,0.0,0.0,0.0,0.0,0.0,0.0,0.0,0.0,0.0,0.0,0.0,0.0,0.0,0.0,0.0,0.0,0.0,0.0,0.0,0.0,0.0,0.0,0.0,0.0,0.0,0.0,0.0,0.0,0.0,0.0,-2.0317,-1.9992,-1.9165,-1.8832,0.0,0.0,-1.9228,-2.1466,-2.1004,0.0,0.0,0.0,0.0,0.0,0.0,0.0,0.0,0.0,0.0,0.0,0.0,0.0,0.0,0.0,0.0,0.0,0.0,0.0,0.0,0.0,0.0,0.0,0.0,0.0,0.0,0.0,0.0,0.0,0.0,0.0,0.0,0.0,0.0,0.0,0.0,0.0,0.0,0.0,0.0,0.0,0.0,0.0,0.0,0.0,0.0,0.0,0.0,0.0,0.0,0.0,0.0,0.0,0.0,0.0,-1.5108,-1.7429,-2.0877,-2.38,-2.6086,-2.6079,-2.6008,-2.5992,-2.2636,-2.0061,0.0,0.0,0.0,0.0,0.0,0.0,0.0,0.0,0.0,0.0,0.0,0.0,0.0,0.0,0.0,0.0,0.0,0.0,0.0,0.0,0.0,0.0,0.0,0.0,0.0,0.0,0.0,0.0,0.0,0.0,0.0,0.0,0.0,0.0,0.0,0.0,0.0,0.0,0.0,0.0,0.0,0.0,-2.1895,-2.1458,0.0,0.0,0.0,-2.1391,-2.236,0.0,0.0,0.0,0.0,0.0,0.0,0.0,0.0,0.0,0.0,0.0,0.0,0.0,0.0,0.0,0.0,0.0,0.0,0.0,0.0,0.0,0.0,0.0,0.0,0.0,0.0,0.0,0.0,0.0,0.0,0.0,0.0,0.0,0.0,0.0,0.0,0.0,0.0,0.0,0.0,0.0,0.0,0.0,0.0,0.0,0.0,0.0,0.0,0.0,0.0,0.0,0.0,0.0,0.0,0.0,0.0,0.0,-1.7446,-2.1735,-2.4679,-2.6083,-2.6025,-2.5903,-2.5854,-2.2343,0.0,0.0,0.0,0.0,0.0,0.0,0.0,0.0,0.0,0.0,0.0,0.0,0.0,0.0,0.0,0.0,0.0,0.0,0.0,0.0,0.0,0.0,0.0,0.0,0.0,0.0,0.0,-0.7565,0.0,0.0,0.0,0.0,0.0,0.0,0.0,0.0,0.0,0.0,0.0,0.0,0.0,0.0,-2.1557,-2.3283,-2.3315,-2.3466,0.0,0.0,-2.3292,-2.3588,-2.3721,-2.2615,0.0,0.0,0.0,0.0,0.0,0.0,0.0,0.0,0.0,0.0,0.0,0.0,0.0,0.0,0.0,0.0,0.0,0.0,0.0,0.0,0.0,0.0,0.0,0.0,0.0,0.0,0.0,0.0,0.0,0.0,0.0,0.0,0.0,0.0,0.0,0.0,0.0,0.0,0.0,0.0,0.0,0.0,0.0,0.0,0.0,0.0,0.0,0.0,0.0,0.0,0.0,0.0,0.0,0.0,0.0,-1.7569,-2.1658,-2.4544,-2.5943,-2.5811,-2.5738,-2.5703,-2.4101,-2.1632,0.0,0.0,0.0,0.0,0.0,0.0,0.0,0.0,0.0,0.0,0.0,0.0,0.0,0.0,0.0,0.0,0.0,0.0,0.0,0.0,0.0,0.0,0.0,0.0,0.0,0.0,0.0,0.0,0.0,0.0,0.0,0.0,0.0,0.0,0.0,0.0,0.0,0.0,0.0,0.0,0.0,-2.3336,-2.3551,-2.4253,-2.5218,0.0,0.0,-2.5194,-2.6463,-2.7281,-2.6247,-2.1618,0.0,0.0,0.0,0.0,0.0,0.0,0.0,0.0,0.0,0.0,0.0,0.0,0.0,0.0,0.0,0.0,0.0,0.0,0.0,0.0,0.0,0.0,0.0,0.0,0.0,0.0,0.0,0.0,0.0,0.0,0.0,0.0,0.0,0.0,0.0,0.0,0.0,0.0,0.0,0.0,0.0,0.0,0.0,0.0,0.0,0.0,0.0,0.0,0.0,0.0,0.0,0.0,0.0,-1.6436,-1.7407,-2.2057,-2.4954,-2.5886,-2.5775,-2.5701,-2.5701,-2.4262,-2.2037,0.0,0.0,0.0,0.0,0.0,0.0,0.0,0.0,0.0,0.0,0.0,0.0,0.0,0.0,0.0,0.0,0.0,0.0,0.0,0.0,0.0,0.0,0.0,0.0,0.0,0.0,0.0,0.0,-1.0634,-1.0764,-1.0609,0.0,0.0,0.0,0.0,0.0,0.0,0.0,0.0,0.0,0.0,-2.4061,-2.5487,-2.6099,0.0,0.0,-2.6636,-2.6339,-2.6272,-2.6139,-2.495,-2.1739,-2.0669,0.0,0.0,0.0,0.0,0.0,0.0,0.0,0.0,0.0,0.0,0.0,0.0,0.0,0.0,0.0,0.0,0.0,0.0,0.0,0.0,0.0,0.0,0.0,0.0,0.0,0.0,0.0,0.0,0.0,0.0,0.0,0.0,0.0,0.0,0.0,0.0,0.0,0.0,0.0,0.0,0.0,0.0,0.0,0.0,0.0,0.0,0.0,0.0,0.0,0.0,0.0,0.0,-1.6759,-1.7597,-2.2358,-2.5145,-2.5811,-2.5717,-2.5661,-2.5647,-2.4682,-2.2896,0.0,0.0,0.0,0.0,0.0,0.0,0.0,0.0,0.0,0.0,0.0,0.0,0.0,0.0,0.0,0.0,0.0,0.0,0.0,0.0,0.0,0.0,0.0,0.0,0.0,0.0,0.0,0.0,-1.1218,-1.1162,-1.0657,0.0,0.0,0.0,0.0,0.0,0.0,0.0,0.0,0.0,0.0,-2.4813,-2.6402,-2.6772,-2.6779,-2.6665,-2.6557,-2.6331,-2.5867,-2.5569,-2.4605,-2.2324,0.0,0.0,0.0,0.0,0.0,0.0,0.0,0.0,0.0,0.0,0.0,0.0,0.0,0.0,0.0,0.0,0.0,0.0,0.0,0.0,0.0,0.0,0.0,0.0,0.0,0.0,0.0,0.0,0.0,0.0,-0.8765,0.0,0.0,0.0,0.0,0.0,0.0,0.0,0.0,0.0,0.0,0.0,0.0,0.0,0.0,0.0,0.0,0.0,0.0,0.0,0.0,0.0,0.0,-1.6891,-1.8317,-2.2476,-2.4982,-2.5684,-2.5621,-2.5616,-2.5597,-2.5549,-2.4531,-2.2297,0.0,0.0,0.0,0.0,0.0,0.0,0.0,0.0,0.0,0.0,0.0,0.0,0.0,0.0,0.0,0.0,0.0,0.0,0.0,0.0,0.0,0.0,0.0,0.0,0.0,0.0,-0.9507,-1.012,-1.0627,0.0,0.0,0.0,0.0,0.0,0.0,0.0,0.0,0.0,0.0,-2.3784,-2.5734,-2.5836,-2.5854,-2.5938,-2.5943,-2.5301,-2.5051,-2.5765,-2.6425,-2.6157,0.0,0.0,0.0,0.0,0.0,0.0,0.0,0.0,0.0,0.0,0.0,0.0,0.0,0.0,0.0,0.0,0.0,0.0,0.0,0.0,0.0,0.0,0.0,0.0,0.0,0.0,0.0,-1.4602,-1.3484,0.0,0.0,0.0,0.0,0.0,0.0,0.0,0.0,0.0,0.0,0.0,-1.9773,-2.0781,0.0,0.0,0.0,0.0,0.0,0.0,0.0,0.0,0.0,0.0,0.0,0.0,-1.7584,-1.9028,-2.3143,-2.5436,-2.5621,-2.56,-2.5597,-2.5597,-2.5597,-2.4385,-2.173,0.0,0.0,0.0,0.0,0.0,0.0,0.0,0.0,0.0,0.0,0.0,0.0,0.0,0.0,0.0,0.0,0.0,0.0,0.0,0.0,0.0,0.0,0.0,0.0,0.0,-1.0406,0.0,0.0,0.0,0.0,0.0,0.0,0.0,0.0,0.0,0.0,0.0,-2.1518,-2.256,-2.407,-2.5444,-2.6443,-2.6586,-2.696,0.0,0.0,0.0,0.0,0.0,0.0,0.0,0.0,0.0,0.0,0.0,0.0,0.0,0.0,-2.3199,-1.9713,-1.9315,-1.9819,-2.0603,0.0,0.0,0.0,0.0,0.0,0.0,0.0,0.0,0.0,0.0,0.0,0.0,0.0,0.0,-1.8298,0.0,-1.7183,0.0,0.0,0.0,0.0,0.0,0.0,0.0,0.0,-2.1671,-2.321,-2.3389,-2.4371,-2.4322,0.0,-2.2165,-1.9897,0.0,0.0,0.0,0.0,0.0,0.0,0.0,0.0,-1.86,-2.0043,-2.371,-2.564,-2.5616,-2.5597,-2.5597,-2.5597,-2.5597,-2.4578,-2.2491,-2.0596,-1.8621,0.0,0.0,0.0,0.0,0.0,0.0,0.0,0.0,0.0,0.0,0.0,0.0,0.0,0.0,0.0,0.0,0.0,0.0,0.0,0.0,0.0,0.0,0.0,-1.1311,0.0,0.0,0.0,0.0,0.0,0.0,0.0,0.0,0.0,-2.2282,-2.3106,-2.3909,-2.5003,-2.5824,-2.6496,-2.6925,0.0,0.0,0.0,0.0,0.0,0.0,0.0,-2.6343,-2.6444,-2.6715,-2.7178,-2.8028,-2.8954,-2.9241,-2.8397,0.0,0.0,-2.3833,-2.3273,-2.3795,-2.4893,-2.5325,-2.5814,-2.682,-2.7447,-2.781,0.0,0.0,0.0,0.0,0.0,0.0,0.0,0.0,-2.2127,-2.1696,0.0,-2.0934,0.0,0.0,0.0,0.0,0.0,-2.0291,0.0,0.0,-2.6175,-2.7521,-2.6834,-2.6851,-2.6886,-2.6818,-2.6027,-2.4906,-2.3385,-1.9532,0.0,0.0,0.0,0.0,0.0,0.0,-1.9916,-2.1374,-2.4173,-2.5597,-2.5597,-2.5597,-2.5597,-2.5597,-2.5597,-2.5241,-2.4533,-2.3155,-2.147,-1.9362,-1.6581,0.0,0.0,0.0,0.0,0.0,0.0,0.0,0.0,0.0,0.0,0.0,0.0,0.0,0.0,0.0,0.0,0.0,0.0,0.0,0.0,-1.2255,0.0,0.0,0.0,0.0,0.0,0.0,0.0,0.0,0.0,0.0,-2.6267,-2.6145,-2.6394,-2.7892,0.0,0.0,0.0,0.0,-2.7714,-2.6389,-2.6068,-2.6122,-2.6175,-2.8031,-2.9458,-2.9494,0.0,0.0,-3.1882,-3.1778,-3.1564,-3.0796,-3.1296,-3.1082,-2.882,-2.7829,-2.788,-2.9328,-2.9103,-2.9166,-3.0492,-3.075,-3.0683,-2.8489,0.0,0.0,0.0,0.0,-2.5111,-2.6187,-2.8006,-2.799,-2.7031,-2.5409,-2.5409,0.0,0.0,0.0,0.0,0.0,0.0,-2.37,-2.4903,-2.6903,-2.7969,-2.8269,-2.8818,-2.8781,-2.8216,-2.8078,-2.751,-2.6477,-2.5278,-2.1924,-1.6572,0.0,0.0,0.0,0.0,-2.0936,-2.2847,-2.4677,-2.5597,-2.5597,-2.5597,-2.5597,-2.5597,-2.5597,-2.55,-2.5273,-2.4401,-2.3139,-2.1519,-1.925,0.0,0.0,0.0,0.0,0.0,0.0,0.0,0.0,0.0,0.0,0.0,0.0,0.0,0.0,0.0,0.0,0.0,0.0,0.0,-1.303,-1.4252,-1.4855,0.0,0.0,0.0,0.0,0.0,0.0,0.0,0.0,0.0,-2.8945,-2.7704,-2.6717,0.0,0.0,-2.7072,-2.775,-2.8534,-2.9494,-3.0672,-3.0883,0.0,0.0,-3.135,-3.1225,-3.1811,-3.2938,-3.3669,-3.3455,-3.3847,-3.4133,-3.3867,-3.4027,-3.3955,-3.3348,-3.213,-3.1693,-3.2516,-3.2608,-3.2771,-3.3681,-3.3882,-3.3849,-3.358,-3.1011,-2.8837,-2.8506,-2.942,-2.9453,-3.0348,-3.1818,-3.1818,-3.0891,-2.9437,-2.942,-2.7841,-2.5105,-2.4494,0.0,0.0,0.0,-2.6795,-2.7895,-2.8955,-2.9675,-3.0085,-3.0573,-3.0557,-3.0069,-2.9859,-2.9464,-2.8968,-2.8109,-2.544,-2.1032,0.0,0.0,-2.0093,-2.1616,-2.3187,-2.4744,-2.5875,-2.6293,-2.6034,-2.5762,-2.5597,-2.5597,-2.5597,-2.5597,-2.5597,-2.5163,-2.4418,-2.3268,-2.147,-1.9283,0.0,0.0,0.0,0.0,0.0,0.0,0.0,0.0,0.0,0.0,0.0,-1.2568,0.0,0.0,0.0,0.0,-1.2628,-1.5089,-1.5382,-1.6787,0.0,0.0,0.0,0.0,0.0,0.0,0.0,-2.2951,-2.5512,-2.7927,-2.969,-2.9319,-2.9087,-2.9718,-2.9387,-2.9333,-2.9976,0.0,-3.1653,-3.2739,-3.29,-3.3061,-3.3526,-3.333,-3.3473,-3.4596,-3.5167,-3.5471,-3.5507,-3.5864,-3.6131,-3.6149,-3.6149,-3.6149,-3.6149,-3.5381,-3.4774,-3.4972,-3.5007,-3.5275,-3.5989,-3.6399,-3.6613,-3.7334,-3.6936,-3.2911,-3.1934,-3.3027,-3.3066,-3.3408,-3.4038,-3.4054,-3.364,-3.2945,-3.2922,-3.2106,-3.0646,-2.9173,0.0,-2.9373,-2.9903,-3.0477,-3.1199,-3.1751,-3.2012,-3.2028,-3.2012,-3.2028,-3.1956,-3.1309,-3.1001,-3.0888,-2.8946,-2.7608,-2.6927,-2.6231,-2.5405,-2.4598,-2.5211,-2.5953,-2.6685,-2.73,-2.7332,-2.6782,-2.6066,-2.5678,-2.5713,-2.5629,-2.5597,-2.5597,-2.5597,-2.5292,-2.4598,-2.33,-2.1632,-1.951,0.0,0.0,0.0,0.0,0.0,0.0,0.0,0.0,0.0,0.0,0.0,0.0,0.0,0.0,0.0,-1.6149,0.0,-1.8597,-1.9743,0.0,0.0,0.0,-2.2556,-2.3349,-2.4767,-2.5455,-2.4962,0.0,0.0,-2.9561,-3.108,-3.2739,-3.414,-3.4119,-3.3725,-3.3064,-3.3565,-3.392,-3.34,-3.3293,-3.3328,-3.3703,-3.4561,-3.5757,-3.7059,-3.7595,-3.747,-3.747,-3.7488,-3.7577,-3.7506,-3.7577,-3.7559,-3.7577,-3.7488,-3.7452,-3.6702,-3.6595,-3.6809,-3.7487,-3.8201,-3.87,-3.9272,-3.8702,-3.7615,-3.6779,-3.6059,-3.6059,-3.6158,-3.6307,-3.6208,-3.5745,-3.5069,-3.4964,-3.4062,-3.2504,-3.1525,-3.118,-3.132,-3.1459,-3.1621,-3.1799,-3.1931,-3.2028,-3.2028,-3.2028,-3.2028,-3.1996,-3.1834,-3.1753,-3.1704,-3.0661,-2.981,-2.9135,-2.8406,-2.6866,-2.4614,-2.5243,-2.5972,-2.6701,-2.6863,-2.7106,-2.7446,-2.6798,-2.6426,-2.6426,-2.5872,-2.5597,-2.5597,-2.5597,-2.5516,-2.5341,-2.4482,-2.3268,-2.1713,-1.8278,0.0,0.0,0.0,0.0,0.0,0.0,0.0,0.0,0.0,-1.6279,-1.2336,0.0,-1.5796,0.0,-1.7645,-2.222,-2.2401,-2.2745,0.0,0.0,-2.56,-2.641,-2.7049,-2.9165,-3.0276,-2.9446,-3.1202,-3.2686,-3.3229,-3.3702,-3.4545,-3.6049,-3.4234,-3.293,-3.3472,-3.4233,-3.4924,-3.5454,-3.5971,-3.6488,-3.6399,-3.6756,-3.7113,-3.7541,-3.7595,-3.7595,-3.7595,-3.7595,-3.7595,-3.7595,-3.7595,-3.7595,-3.7648,-3.8076,-3.8433,-3.829,-3.8237,-3.829,-3.8504,-3.9092,-3.9664,-4.0597,-4.0199,-3.9819,-3.9181,-3.8421,-3.8186,-3.7897,-3.759,-3.7522,-3.7015,-3.6289,-3.6137,-3.5509,-3.4617,-3.4152,-3.3931,-3.3906,-3.3582,-3.342,-3.3388,-3.308,-3.2935,-3.2935,-3.2935,-3.2951,-3.2919,-3.2643,-3.2498,-3.2449,-3.1753,-3.1056,-3.0344,-2.9939,-2.8628,-2.651,-2.649,-2.6749,-2.7138,-2.7138,-2.7478,-2.8126,-2.7219,-2.6555,-2.6215,-2.5503,-2.4984,-2.4677,-2.4661,-2.4515,-2.4189,-2.4095,-2.3415,-2.1956,-1.9461,-1.7533,0.0,0.0,0.0,0.0,0.0,0.0,0.0,0.0,0.0,0.0,0.0,-1.9096,-1.6543,-2.2026,-2.5628,-2.5385,-2.5939,-2.6818,-2.804,-2.9194,-3.0024,-3.0368,-3.1999,-3.2975,-3.271,-3.3564,-3.449,-3.524,-3.5362,-3.5677,-3.6568,-3.517,-3.436,-3.5061,-3.5574,-3.6036,-3.6589,-3.7126,-3.7485,-3.7577,-3.7539,-3.7503,-3.7594,-3.7595,-3.7595,-3.7613,-3.7916,-3.813,-3.8148,-3.838,-3.8629,-3.8629,-3.895,-3.927,-3.9324,-3.9574,-3.9664,-3.9397,-3.9896,-4.0431,-4.1451,-4.1274,-4.0522,-4.0219,-4.0181,-3.9693,-3.9053,-3.8292,-3.8266,-3.7798,-3.7084,-3.6823,-3.6617,-3.6527,-3.6446,-3.635,-3.627,-3.5623,-3.5341,-3.5309,-3.457,-3.423,-3.4246,-3.4149,-3.4101,-3.4068,-3.3526,-3.3226,-3.3194,-3.2481,-3.1785,-3.105,-3.0953,-3.0192,-2.8822,-2.8174,-2.7802,-2.7721,-2.7786,-2.8158,-2.8778,-2.7433,-2.6345,-2.5613,-2.4887,-2.4193,-2.3528,-2.3496,-2.3204,-2.2588,-2.3139,-2.2961,-2.1746,-2.0289,-1.9248,0.0,-1.6633,0.0,0.0,0.0,0.0,0.0,0.0,0.0,0.0,-2.1859,-2.2782,-2.3251,-2.7343,-2.9403,-2.8078,-2.9111,-3.0212,-3.1058,-3.2369,-3.3179,-3.3231,-3.3886,-3.4545,-3.4938,-3.5197,-3.5594,-3.6167,-3.6284,-3.6284,-3.6305,-3.636,-3.6347,-3.6759,-3.6805,-3.6862,-3.697,-3.7143,-3.7316,-3.7465,-3.7461,-3.7529,-3.7699,-3.7897,-3.7862,-3.7969,-3.8504,-3.895,-3.9004,-3.9395,-3.9805,-3.9877,-3.993,-4.0055,-4.0075,-4.0663,-4.0931,-4.0342,-4.0699,-4.1217,-4.1716,-4.1058,-4.0898,-4.082,-4.0832,-4.0701,-3.991,-3.869,-3.857,-3.8383,-3.8066,-3.7454,-3.714,-3.708,-3.6556,-3.6303,-3.6276,-3.6157,-3.6108,-3.606,-3.5315,-3.5001,-3.4952,-3.4376,-3.4101,-3.4084,-3.3971,-3.3906,-3.389,-3.321,-3.2514,-3.1778,-3.1179,-3.0214,-2.8854,0.0,0.0,0.0,-2.8304,-2.8644,-2.8746,-2.7413,-2.6361,-2.5613,-2.4871,0.0,-2.3544,-2.3496,-2.3431,-2.3301,-2.3431,0.0,0.0,0.0,0.0,0.0,0.0,0.0,0.0,0.0,0.0,0.0,-2.3456,-2.2998,-2.1418,-2.2869,-2.4623,-2.6351,-3.0026,-3.2103,-3.1502,-3.1677,-3.2288,-3.335,-3.4231,-3.4766,-3.4803,-3.5421,-3.5921,-3.599,-3.6077,-3.6146,-3.6318,-3.6284,-3.6318,-3.6404,-3.687,-3.6999,-3.6547,-3.6713,-3.6841,-3.6968,-3.7097,-3.7066,-3.7105,-3.7613,-3.7985,-3.8307,-3.886,-3.9203,-3.9376,-3.9521,-3.9681,-3.9698,-3.9805,-3.993,-3.993,-4.0414,-4.0877,-4.0877,-4.152,-4.1823,-4.1074,-4.1502,-4.2076,-4.2631,0.0,-4.1734,-4.1498,0.0,-4.0942,-4.0326,-3.9626,-3.9369,-3.8942,-3.846,-3.8047,-3.7857,-3.7841,-3.7501,-3.7339,-3.7339,-3.6967,-3.6794,-3.674,-3.5687,-3.5185,-3.5153,-3.4457,-3.4101,-3.4101,-3.4101,-3.4101,-3.4084,-3.3761,-3.3242,-3.2546,-3.2174,-3.1445,-3.0409,-3.0376,-2.9664,-2.8255,-2.8595,-2.8989,-2.9297,-2.8292,-2.7381,-2.6633,0.0,0.0,0.0,0.0,0.0,0.0,0.0,0.0,0.0,0.0,0.0,-2.39,-2.296,-2.2831,-2.3867,-2.3947,-2.458,-2.5956,-2.6886,-2.6643,-2.497,-2.5828,-2.727,-2.9343,-3.1984,-3.3526,-3.3486,-3.3485,-3.3953,-3.5036,-3.5525,-3.5732,-3.5766,-3.6077,-3.6473,-3.6818,-3.687,-3.7029,-3.7387,-3.7439,-3.7422,-3.7439,-3.7749,-3.7909,-3.7547,-3.7564,-3.7714,-3.7853,-3.7094,-3.703,-3.7854,-3.7941,-3.83,-3.8911,-3.9368,-3.966,-3.9856,-4.0235,-4.0503,-4.0521,-4.0806,-4.1092,-4.1127,-4.1431,-4.168,-4.1716,-4.2002,-4.218,-4.1752,-4.2002,-4.2308,-4.3432,-4.3232,-4.2507,-4.2111,-4.1894,-4.1172,-4.0788,-4.0656,0.0,0.0,0.0,-3.8642,-3.8505,-3.8408,-3.8391,-3.8391,-3.8359,-3.7776,-3.7489,-3.7436,-3.6157,-3.5558,-3.5509,-3.4683,-3.4295,-3.4295,-3.4165,-3.4101,-3.4101,-3.4101,-3.3825,-3.3307,-3.3275,-3.2902,-3.2238,-3.2077,-3.1137,-2.9437,-2.9113,-2.9232,-2.967,-2.8989,-2.8255,-2.7559,-2.639,-2.5454,-2.4744,-2.4176,-2.3593,-2.3025,-2.3561,-2.3933,-2.4079,-2.4581,-2.5211,-2.5907,-2.5969,-2.6296,-2.7008,-2.7057,-2.7413,-2.8223,-2.9502,-2.9946,-2.9168,-2.9244,-3.0057,-3.1878,-3.3272,-3.4243,-3.4577,-3.4619,-3.5026,-3.602,-3.6212,-3.6281,-3.6277,-3.6435,-3.6769,-3.7345,-3.7442,-3.7732,-3.8327,-3.8396,-3.8527,-3.8594,-3.8646,-3.8893,-3.8922,-3.8703,-3.8528,-3.8573,-3.759,-3.7226,-3.8485,-3.8638,-3.8604,-3.9473,-3.9808,-3.9961,-4.0233,-4.0758,-4.1131,-4.1144,-4.1736,-4.2021,-4.2148,-4.2071,-4.2184,-4.2184,-4.2184,-4.2166,-4.2184,-4.2166,-4.2184,-4.3082,-4.2945,-4.2661,-4.2519,-4.2472,-4.2344,-4.197,-4.1401,-4.0718,-4.0021,-3.9388,-3.936,-3.8974,-3.8391,-3.8391,-3.8391,-3.8391,-3.8294,-3.8246,-3.8197,-3.7404,-3.7015,-3.6923,-3.5655,-3.5049,-3.5001,-3.4392,-3.4101,-3.4101,-3.4101,-3.4036,-3.3971,-3.3955,-3.3615,-3.2951,-3.2319,-3.1866,-3.1542,-3.0383,-2.9491,-2.8973,-2.8223,-2.7543,-2.6879,-2.6685,-2.6199,-2.5486,-2.5338,-2.5257,-2.5144,-2.526,-2.5584,-2.6199,-2.6328,-2.6701,-2.7348,-2.7393,-2.7721,-2.8433,-2.8498,-2.9065,-3.0338,-3.1235,-3.1653,-3.1521,-3.1885,-3.234,-3.2901,-3.3648,-3.4284,-3.4638,-3.4717,-3.4931,-3.5389,-3.595,-3.6296,-3.6343,-3.6865,-3.7285,-3.7485,-3.7422,-3.7624,-3.8152,-3.8216,-3.839,-3.8642,-3.9215,-3.9767,-4.0101,-3.9428,-3.8703,-3.857,-3.8121,-3.8018,-3.8706,-3.9024,-3.9408,-3.9913,-4.056,-4.0946,-4.1186,-4.137,-4.1476,-4.1521,-4.1652,-4.1701,-4.1736,-4.1692,-4.1736,-4.1758,-4.1758,-4.1736,-4.1758,-4.1793,-4.188,-4.3037,-4.2899,-4.2806,-4.2713,-4.2602,-4.2602,-4.2424,-4.2116,-4.1792,-4.1031,-4.0075,-4.0027,-3.9654,-3.9007,-3.8991,-3.8764,-3.8391,-3.8391,-3.8391,-3.8343,-3.7647,-3.7295,-3.7198,-3.627,-3.5574,-3.5211,-3.4862,-3.4489,-3.4133,-3.4101,-3.4101,-3.4101,-3.4101,-3.3939,-3.3631,-3.3307,-3.2951,-3.2579,-3.1186,-3.0279,-2.9955,-2.9259,-2.8741,-2.8438,-2.8045,-2.7688,-2.7348,-2.696,-2.673,-2.673,-2.673,-2.7073,-2.7786,-2.7834,-2.8163,-2.8838,-2.9243,-2.9577,-2.9901,-3.0312,-3.0992,-3.2012,-3.24,-3.2757,-3.3113,-3.2643,-3.2708,-3.3534,-3.3922,-3.4413,-3.5153,-3.5227,-3.5546,-3.6324,-3.6699,-3.6883,-3.6917,-3.7168,-3.7651,-3.8175,-3.8308,-3.8533,-3.9168,-3.9244,-3.9292,-3.9542,-4.0023,-4.0509,-4.0843,-4.0342,-3.9859,-3.9807,-3.9238,-3.9117,-3.9687,-4.0032,-4.0331,-4.0642,-4.0965,-4.1283,-4.152,-4.1604,-4.1604,-4.1604,-4.1604,-4.1604,-4.1604,-4.1604,-4.1604,-4.1604,-4.1604,-4.1604,-4.1622,-4.1903,-4.2268,-4.2976,-4.2916,-4.2837,-4.2744,-4.2602,-4.2602,-4.2602,-4.2602,-4.2586,-4.1971,-4.1047,-4.0804,-4.0351,-3.9765,-3.9586,-3.9169,-3.8667,-3.8472,-3.8391,-3.8327,-3.7825,-3.7566,-3.7485,-3.6869,-3.6238,-3.5655,-3.5373,-3.4903,-3.4392,-3.4198,-3.4101,-3.4101,-3.4101,-3.4101,-3.4101,-3.4101,-3.3841,-3.3259,-3.2077,-3.1309,-3.1131,-3.0635,-3.0383,-3.0334,-2.981,-2.9502,-2.9507,-2.8984,-2.8676,-2.8676,-2.8676,-2.8935,-2.9453,-2.954,-2.9783,-3.0366,-3.0862,-3.1147,-3.1195,-3.1826,-3.2498,-3.3032,-3.3226,-3.3615,-3.4149,-3.321,-3.2983,-3.4117,-3.4408,-3.4843,-3.5609,-3.5816,-3.6198,-3.7053,-3.7294,-3.7326,-3.7393,-3.7526,-3.791,-3.8774,-3.8942,-3.9202,-3.9901,-4.0146,-4.017,-4.0375,-4.0704,-4.0871,-4.0894,-4.0894,-4.0894,-4.0756,-4.0221,-4.0014,-4.0774,-4.086,-4.0913,-4.1134,-4.1117,-4.1203,-4.1358,-4.1426,-4.1426,-4.1403,-4.1426,-4.1403,-4.1426,-4.1426,-4.1426,-4.1403,-4.1538,-4.177,-4.2032,-4.2411,-4.2853,-4.2899,-4.2868,-4.2696,-4.2634,-4.2602,-4.2602,-4.2602,-4.2602,-4.2602,-4.2554,-4.2279,-4.1759,-4.1079,-4.0397,-3.9813,-3.9505,-3.9327,-3.8699,-3.8408,-3.8391,-3.8327,-3.8294,-3.8197,-3.7566,-3.7166,-3.6891,-3.5849,-3.5234,-3.5056,-3.4441,-3.4101,-3.4101,-3.4101,-3.4101,-3.4101,-3.4101,-3.4068,-3.4003,-3.3275,-3.2562,-3.1923,-3.185,-3.1817,-3.1801,-3.1737,-3.1704,-3.1575,-3.1639,-3.1591,-3.1607,-3.1526,-3.1607,-3.1656,-3.1688,-3.172,-3.1753,-3.185,-3.1898,-3.1963,-3.2562,-3.3032,-3.3137,-3.3696,-3.4311,-3.4959,-3.4376,-3.4214,-3.4975,-3.5299,-3.5687,-3.6151,-3.6259,-3.636,-3.6651,-3.7091,-3.7291,-3.7438,-3.7919,-3.837,-3.8414,-3.8614,-3.875,-3.9542,-3.9756,-4.0037,-4.0631,-4.0817,-4.0894,-4.0894,-4.0894,-4.0894,-4.0894,-4.0756,-4.0756,-4.0894,-4.0894,-4.0918,-4.0942,-4.0942,-4.0989,-4.1035,-4.1053,-4.0982,-4.1105,-4.1012,-4.1035,-4.1012,-4.0965,-4.1041,-4.1301,-4.1659,-4.2199,-4.2815,-4.3116,-4.3332,-4.2728,-4.2728,-4.2634,-4.2602,-4.2602,-4.2602,-4.2602,-4.2602,-4.2602,-4.2602,-4.257,-4.2326,-4.1792,-4.1112,-4.0867,-4.0316,-3.9505,-3.9197,-3.8796,-3.8424,-3.8391,-3.8391,-3.8359,-3.8116,-3.7732,-3.7295,-3.6707,-3.6238,-3.5785,-3.5104,-3.4522,-3.4133,-3.4101,-3.4101,-3.4101,-3.4101,-3.4101,-3.4084,-3.3825,-3.3534,-3.3178,-3.2433,-3.2028,-3.2028,-3.2028,-3.2028,-3.2028,-3.2028,-3.2028,-3.2028,-3.2028,-3.2028,-3.2028,-3.2028,-3.2028,-3.2028,-3.2417,-3.2821,-3.321,-3.3518,-3.3874,-3.4304,-3.4612,-3.5056,-3.5752,-3.5574,-3.5687,-3.6367,-3.6918,-3.7177,-3.6923,-3.6875,-3.7064,-3.7452,-3.7809,-3.7954,-3.797,-3.8213,-3.8492,-3.8711,-3.8952,-3.9206,-3.9558,-3.9833,-4.0146,-4.0551,-4.0721,-4.0871,-4.0894,-4.0894,-4.0894,-4.0894,-4.0894,-4.0894,-4.0894,-4.0894,-4.0894,-4.0894,-4.0894,-4.0894,-4.0894,-4.0894,-4.0894,-4.0912,-4.0946,-4.0946,-4.0918,-4.1326,-4.1567,-4.1723,-4.2189,-4.2948,-4.3707,-4.3845,-4.4084,-4.2602,-4.2602,-4.2602,-4.2602,-4.2602,-4.2602,-4.2602,-4.2602,-4.2602,-4.2602,-4.2602,-4.2602,-4.2327,-4.1889,-4.1693,-4.1029,-4.0121,-3.97,-3.9201,-3.8699,-3.8505,-3.8391,-3.8391,-3.8391,-3.8132,-3.7663,-3.736,-3.6923,-3.6319,-3.5801,-3.5121,-3.4489,-3.4408,-3.4295,-3.4117,-3.4101,-3.4101,-3.4101,-3.4101,-3.4101,-3.3939,-3.3113,-3.2579,-3.2579,-3.2579,-3.2579,-3.2579,-3.2579,-3.2595,-3.2579,-3.2579,-3.2579,-3.2579,-3.2579,-3.2579,-3.2627,-3.3064,-3.3582,-3.4068,-3.4279,-3.4619,-3.5146,-3.5373,-3.5785,-3.6384,-3.6416,-3.6724,-3.7517,-3.81,-3.8084,-3.77,-3.7603,-3.7829,-3.8327,-3.8391,-3.8391,-3.8375,-3.8391,-3.8504,-3.8821,-3.8952,-3.9322,-3.947,-3.9782,-4.0096,-4.033,-4.0576,-4.0799,-4.0871,-4.0894,-4.0894,-4.0894,-4.0894,-4.0894,-4.0894,-4.0894,-4.0894,-4.0894,-4.0894,-4.0894,-4.0894,-4.0894,-4.1119,-4.1257,-4.1188,-4.1412,-4.1792,-4.2171,-4.2482,-4.2706,-4.312,-4.3759,-4.4458,-4.4561,-4.4803,-4.2602,-4.2602,-4.2602,-4.2602,-4.2602,-4.2602,-4.2602,-4.2602,-4.2602,-4.2602,-4.2602,-4.2602,-4.2586,-4.2473,-4.1905,-4.1579,-4.1304,-4.017,-3.9554,-3.9343,-3.8748,-3.8408,-3.8391,-3.8391,-3.8375,-3.8197,-3.7667,-3.702,-3.6357,-3.6287,-3.5882,-3.5195,-3.5163,-3.4822,-3.4311,-3.4198,-3.4117,-3.4182,-3.4133,-3.4101,-3.4084,-3.4003,-3.3906,-3.389,-3.3971,-3.389,-3.3939,-3.3971,-3.3955,-3.3971,-3.3922,-3.3939,-3.3955,-3.3939,-3.3922,-3.3971,-3.4036,-3.4084,-3.4246,-3.4797,-3.5211,-3.5357,-3.5914,-3.6546,-3.7145,-3.6821,-3.7031,-3.8197,-3.8343,-3.8343,-3.8294,-3.823,-3.8278,-3.8359,-3.8391,-3.8391,-3.8391,-3.8391,-3.8391,-3.8448,-3.8588,-3.8805,-3.9034,-3.9391,-3.9808,-4.0138,-4.0288,-4.0412,-4.0697,-4.084,-4.0885,-4.0903,-4.0944,-4.0922,-4.0922,-4.1084,-4.1032,-4.1222,-4.1412,-4.1084,-4.0946,-4.0981,-4.1378,-4.1723,-4.1878,-4.224,-4.2844,-4.3258,-4.3517,-4.3759,-4.4018,-4.4561,-4.4992,-4.5242,-4.5363,-4.2602,-4.2602,-4.2602,-4.2602,-4.2602,-4.2602,-4.2602,-4.2602,-4.2602,-4.2602,-4.2602,-4.2602,-4.2602,-4.2586,-4.2375,-4.1986,-4.1563,-4.1045,-4.038,-3.9586,-3.923,-3.8845,-3.8424,-3.8391,-3.8391,-3.8359,-3.8132,-3.7647,-3.6988,-3.6923,-3.661,-3.6011,-3.5914,-3.5736,-3.5477,-3.5024,-3.4781,-3.4732,-3.436,-3.4101,-3.4133,-3.4101,-3.4101,-3.4101,-3.4101,-3.4101,-3.4101,-3.4101,-3.4101,-3.4101,-3.4101,-3.4101,-3.4101,-3.4101,-3.4311,-3.4732,-3.4797,-3.5007,-3.5461,-3.5752,-3.6108,-3.6529,-3.6788,-3.7214,-3.7809,-3.7792,-3.7873,-3.8278,-3.8391,-3.8391,-3.8391,-3.8391,-3.8408,-3.8391,-3.8391,-3.8391,-3.8391,-3.8391,-3.8391,-3.842,-3.86,-3.8942,-3.9255,-3.9523,-3.9662,-3.9808,-3.9833,-3.9986,-4.0113,-4.0451,-4.0841,-4.0926,-4.1427,-4.192,-4.1937,-4.1749,-4.174,-4.2189,-4.2413,-4.2396,-4.2309,-4.2189,-4.2516,-4.262,-4.2741,-4.2896,-4.3431,-4.3828,-4.4173,-4.4647,-4.4906,-4.4941,-4.5328,-4.5397,-4.5414,-4.2602,-4.2602,-4.2602,-4.2602,-4.2602,-4.2602,-4.2602,-4.2602,-4.2602,-4.2602,-4.2602,-4.2602,-4.2602,-4.2602,-4.2602,-4.236,-4.1905,-4.1709,-4.1093,-4.0186,-3.9732,-3.923,-3.878,-3.8505,-3.8391,-3.8391,-3.8391,-3.8132,-3.77,-3.7663,-3.7263,-3.6659,-3.6627,-3.6513,-3.6254,-3.5785,-3.5568,-3.5412,-3.4829,-3.4554,-3.4716,-3.4343,-3.436,-3.4651,-3.4376,-3.4101,-3.4101,-3.4101,-3.4101,-3.4101,-3.4101,-3.4198,-3.4408,-3.4441,-3.4781,-3.5428,-3.5568,-3.5752,-3.6254,-3.6513,-3.6794,-3.7263,-3.7522,-3.7922,-3.8359,-3.8391,-3.8391,-3.8391,-3.8408,-3.8456,-3.8683,-3.8748,-3.8651,-3.8472,-3.8391,-3.8391,-3.8391,-3.8391,-3.8391,-3.8468,-3.886,-3.9259,-3.9549,-3.9758,-3.9972,-4.0047,-4.0074,-4.0117,-4.0334,-4.0705,-4.1046,-4.1107,-4.1685,-4.2216,-4.2465,-4.2491,-4.2429,-4.2831,-4.3086,-4.3258,-4.3379,-4.3327,-4.3414,-4.3517,-4.3621,-4.3707,-4.3949,-4.4345,-4.4785,-4.5294,-4.5311,-4.5242,-4.5397,-4.5397,-4.5414,-4.2602,-4.2602,-4.2602,-4.2602,-4.2602,-4.2602,-4.2602,-4.2602,-4.2602,-4.2602,-4.2602,-4.2602,-4.2602,-4.2602,-4.2602,-4.257,-4.2408,-4.1938,-4.1612,-4.1304,-4.0235,-3.9635,-3.9489,-3.8829,-3.8456,-3.8408,-3.8391,-3.8391,-3.8311,-3.8262,-3.7938,-3.7392,-3.7311,-3.7053,-3.6357,-3.6384,-3.6303,-3.6141,-3.5574,-3.5525,-3.6027,-3.4959,-3.4894,-3.5866,-3.4926,-3.4295,-3.423,-3.4198,-3.423,-3.4262,-3.4246,-3.4489,-3.513,-3.5228,-3.5509,-3.6157,-3.6303,-3.6319,-3.6465,-3.6988,-3.7328,-3.7517,-3.797,-3.8311,-3.8375,-3.8391,-3.844,-3.8521,-3.8537,-3.8715,-3.9376,-3.9476,-3.9266,-3.8602,-3.8667,-3.8667,-3.857,-3.8456,-3.8424,-3.8582,-3.9076,-3.9473,-3.968,-4.0027,-4.0462,-4.0754,-4.0856,-4.0925,-4.1161,-4.1427,-4.1688,-4.1722,-4.2016,-4.2484,-4.2886,-4.3225,-4.325,-4.334,-4.3476,-4.3655,-4.3793,-4.3828,-4.4069,-4.4182,-4.4302,-4.4406,-4.463,-4.4992,-4.5061,-4.5414,-4.5414,-4.5414,-4.5414,-4.5414,-4.5414,-4.2602,-4.2602,-4.2602,-4.2602,-4.2602,-4.2602,-4.2602,-4.2602,-4.2602,-4.2602,-4.2602,-4.2602,-4.2602,-4.2602,-4.2602,-4.2602,-4.2586,-4.2375,-4.2051,-4.1579,-4.1126,-4.064,-4.0124,-3.946,-3.8877,-3.8472,-3.8391,-3.8391,-3.8391,-3.8391,-3.8262,-3.81,-3.8051,-3.797,-3.7663,-3.7274,-3.6999,-3.6934,-3.6303,-3.6092,-3.6287,-3.5866,-3.5866,-3.6189,-3.5833,-3.5623,-3.5564,-3.5121,-3.5104,-3.5558,-3.5623,-3.572,-3.5898,-3.5963,-3.626,-3.6886,-3.6972,-3.7231,-3.7695,-3.789,-3.8035,-3.81,-3.8294,-3.8375,-3.8391,-3.8391,-3.8618,-3.9007,-3.9153,-3.9457,-3.9994,-4.0173,-4.0075,-3.9865,-3.9849,-3.9768,-3.9671,-3.9379,-3.9169,-3.9181,-3.9376,-3.97,-4.0075,-4.048,-4.0669,-4.0772,-4.0815,-4.0903,-4.1007,-4.1533,-4.1629,-4.1661,-4.2196,-4.2692,-4.2958,-4.3289,-4.3485,-4.3617,-4.3797,-4.4035,-4.4191,-4.4311,-4.4569,-4.4785,-4.4923,-4.5079,-4.5311,-4.5414,-4.5414,-4.5414,-4.5414,-4.5414,-4.5414,-4.5414,-4.5414,-4.2602,-4.2602,-4.2602,-4.2602,-4.2602,-4.2602,-4.2602,-4.2602,-4.2602,-4.2602,-4.2602,-4.2602,-4.2602,-4.2602,-4.2602,-4.2602,-4.2602,-4.2602,-4.2391,-4.1954,-4.1677,-4.1336,-4.0785,-3.9927,-3.9282,-3.8829,-3.8537,-3.8408,-3.8391,-3.8391,-3.8391,-3.8391,-3.8391,-3.8375,-3.8375,-3.797,-3.7728,-3.7603,-3.702,-3.6821,-3.6918,-3.6578,-3.6578,-3.6918,-3.6594,-3.6594,-3.695,-3.6384,-3.6076,-3.627,-3.6276,-3.6416,-3.66,-3.6691,-3.6999,-3.7538,-3.7744,-3.7922,-3.8343,-3.8343,-3.8391,-3.8391,-3.8391,-3.8391,-3.8391,-3.8391,-3.8715,-3.936,-3.946,-3.9865,-4.0658,-4.0901,-4.0998,-4.1274,-4.0739,-4.0545,-4.0432,-4.0124,-3.9813,-3.9765,-4.0024,-4.0397,-4.0658,-4.116,-4.1241,-4.129,-4.129,-4.129,-4.1371,-4.1725,-4.184,-4.2017,-4.2427,-4.279,-4.2982,-4.3303,-4.363,-4.3879,-4.4108,-4.4385,-4.4602,-4.4639,-4.4829,-4.5086,-4.5225,-4.5207,-4.5414,-4.5414,-4.5414,-4.5414,-4.5414,-4.5414,-4.5414,-4.5414,-4.5414,-4.2602,-4.2602,-4.2602,-4.2602,-4.2602,-4.2602,-4.2602,-4.2602,-4.2602,-4.2602,-4.2602,-4.2602,-4.2602,-4.2602,-4.2602,-4.2602,-4.2602,-4.2602,-4.2586,-4.2376,-4.2019,-4.1644,-4.1336,-4.0251,-3.9603,-3.9314,-3.8715,-3.8408,-3.8391,-3.8391,-3.8391,-3.8391,-3.8391,-3.8391,-3.8391,-3.8375,-3.8311,-3.8197,-3.7695,-3.7695,-3.8181,-3.7193,-3.7004,-3.8137,-3.7171,-3.7014,-3.775,-3.7427,-3.6933,-3.6519,-3.661,-3.6886,-3.7231,-3.736,-3.7667,-3.8278,-3.8375,-3.8343,-3.8391,-3.8391,-3.8391,-3.8391,-3.8391,-3.844,-3.8537,-3.8618,-3.8958,-3.9748,-3.9829,-4.0283,-4.1353,-4.163,-4.1889,-4.2294,-4.1486,-4.0885,-4.0594,-4.0561,-4.0429,-4.0221,-4.085,-4.1547,-4.1338,-4.2019,-4.2311,-4.2424,-4.2376,-4.2311,-4.2327,-4.2344,-4.2522,-4.2601,-4.2663,-4.271,-4.2851,-4.2943,-4.3262,-4.3353,-4.371,-4.4088,-4.4569,-4.4735,-4.4862,-4.5123,-4.5371,-4.5371,-4.5414,-4.5414,-4.5414,-4.5414,-4.5414,-4.5414,-4.5414,-4.5414,-4.5414,-4.2602,-4.2602,-4.2602,-4.2602,-4.2602,-4.2602,-4.2602,-4.2602,-4.2602,-4.2602,-4.2602,-4.2602,-4.2602,-4.2602,-4.2602,-4.2602,-4.2602,-4.2602,-4.2602,-4.2586,-4.2457,-4.2035,-4.1547,-4.0704,-3.9991,-3.9505,-3.8845,-3.8408,-3.8391,-3.8391,-3.8391,-3.8391,-3.8391,-3.8391,-3.8391,-3.8391,-3.8391,-3.8391,-3.8246,-3.8121,-3.825,-3.804,-3.7875,-3.7901,-3.7616,-3.7486,-3.7666,-3.7494,-3.7582,-3.7834,-3.7857,-3.7906,-3.7979,-3.804,-3.8121,-3.8298,-3.8391,-3.8391,-3.8391,-3.8391,-3.8391,-3.8391,-3.8456,-3.8634,-3.9153,-3.923,-3.9829,-4.0704,-4.1061,-4.1322,-4.2132,-4.2326,-4.2424,-4.2505,-4.2133,-4.1759,-4.1403,-4.1304,-4.1191,-4.0966,-4.1322,-4.1711,-4.2132,-4.236,-4.2602,-4.2602,-4.2602,-4.2602,-4.2602,-4.2602,-4.2602,-4.2602,-4.2618,-4.2618,-4.2665,-4.2711,-4.2774,-4.2774,-4.3035,-4.3353,-4.3956,-4.444,-4.4625,-4.4862,-4.5167,-4.5247,-4.5344,-4.5414,-4.5414,-4.5414,-4.5414,-4.5414,-4.5414,-4.5414,-4.5414,-4.2602,-4.2602,-4.2602,-4.2602,-4.2602,-4.2602,-4.2602,-4.2602,-4.2602,-4.2602,-4.2602,-4.2602,-4.2602,-4.2602,-4.2602,-4.2602,-4.2602,-4.2602,-4.2602,-4.2602,-4.2586,-4.236,-4.1921,-4.1274,-4.0607,-3.9927,-3.9169,-3.8715,-3.8456,-3.8391,-3.8391,-3.8391,-3.8391,-3.8391,-3.8391,-3.8391,-3.8307,-3.8205,-3.8177,-3.8148,-3.8004,-3.7976,-3.7902,-3.7711,-3.7682,-3.7594,-3.7417,-3.7401,-3.7578,-3.7886,-3.796,-3.796,-3.7988,-3.8103,-3.8177,-3.8205,-3.8335,-3.8391,-3.8391,-3.8391,-3.8391,-3.8472,-3.8618,-3.9039,-3.9428,-3.9732,-4.0478,-4.1353,-4.1579,-4.1938,-4.2424,-4.2602,-4.2602,-4.2602,-4.2602,-4.2408,-4.2051,-4.2002,-4.1954,-4.1858,-4.1954,-4.2132,-4.257,-4.2602,-4.2602,-4.2602,-4.2602,-4.2602,-4.2602,-4.2602,-4.2602,-4.2602,-4.2602,-4.2602,-4.2602,-4.2665,-4.2696,-4.2634,-4.2696,-4.2943,-4.3396,-4.4071,-4.4384,-4.4597,-4.4917,-4.5167,-4.5247,-4.5344,-4.5414,-4.5414,-4.5414,-4.5414,-4.5414,-4.5414,-4.5414,-4.2602,-4.2602,-4.2602,-4.2602,-4.2602,-4.2602,-4.2602,-4.2602,-4.2602,-4.2602,-4.2602,-4.2602,-4.2602,-4.2602,-4.2602,-4.2602,-4.2602,-4.2602,-4.2602,-4.2602,-4.2602,-4.2538,-4.2424,-4.1759,-4.1191,-4.0559,-3.991,-3.9197,-3.8715,-3.8505,-3.8391,-3.8391,-3.8391,-3.8391,-3.8363,-3.8335,-3.816,-3.7972,-3.7857,-3.774,-3.7565,-3.7535,-3.7476,-3.7373,-3.7268,-3.7268,-3.7238,-3.7268,-3.7298,-3.7314,-3.7358,-3.7447,-3.7476,-3.774,-3.7915,-3.8017,-3.8234,-3.8391,-3.8391,-3.8391,-3.8489,-3.8634,-3.9181,-3.9635,-3.9894,-4.038,-4.095,-4.1743,-4.1709,-4.2067,-4.2441,-4.2602,-4.2602,-4.2602,-4.2602,-4.2602,-4.2602,-4.2602,-4.2602,-4.2602,-4.2586,-4.2602,-4.2602,-4.2602,-4.2602,-4.2602,-4.2602,-4.2602,-4.2602,-4.2602,-4.2602,-4.2602,-4.2602,-4.2602,-4.2602,-4.2602,-4.2602,-4.2602,-4.2602,-4.2774,-4.305,-4.3604,-4.4013,-4.4344,-4.4457,-4.478,-4.5123,-4.522,-4.5291,-4.5414,-4.5414,-4.5414,-4.5414,-4.5414,-4.5414,-4.2602,-4.2602,-4.2602,-4.2602,-4.2602,-4.2602,-4.2602,-4.2602,-4.2602,-4.2602,-4.2602,-4.2602,-4.2602,-4.2602,-4.2602,-4.2602,-4.2602,-4.2602,-4.2602,-4.2602,-4.2602,-4.2602,-4.2473,-4.1938,-4.1547,-4.1077,-4.0073,-3.9457,-3.9181,-3.8715,-3.8391,-3.8363,-3.8335,-3.8363,-3.8335,-3.8119,-3.7972,-3.7841,-3.7653,-3.7476,-3.7387,-3.7328,-3.7254,-3.7089,-3.6846,-3.6723,-3.6693,-3.6693,-3.6693,-3.6816,-3.7104,-3.7312,-3.7387,-3.7653,-3.7828,-3.7915,-3.8177,-3.8363,-3.8408,-3.8456,-3.8667,-3.9181,-3.9522,-3.9959,-4.1077,-4.1223,-4.1678,-4.2229,-4.2407,-4.2408,-4.257,-4.2602,-4.2602,-4.2602,-4.2602,-4.2602,-4.2602,-4.2602,-4.2602,-4.2602,-4.2602,-4.2602,-4.2602,-4.2602,-4.2602,-4.2602,-4.2602,-4.2602,-4.2602,-4.2602,-4.2602,-4.2602,-4.2602,-4.2602,-4.2602,-4.2602,-4.2602,-4.2602,-4.2602,-4.2602,-4.2881,-4.3111,-4.3545,-4.3781,-4.3914,-4.4316,-4.4752,-4.4862,-4.4835,-4.5113,-4.5371,-4.5371,-4.5344,-4.5371,-4.5414,-4.2602,-4.2602,-4.2602,-4.2602,-4.2602,-4.2602,-4.2602,-4.2602,-4.2602,-4.2602,-4.2602,-4.2602,-4.2602,-4.2602,-4.2602,-4.2602,-4.2602,-4.2602,-4.2602,-4.2602,-4.2602,-4.2602,-4.257,-4.2245,-4.1921,-4.1563,-4.0931,-4.0251,-3.957,-3.9104,-3.8646,-3.8193,-3.8177,-3.8033,-3.7931,-3.7756,-3.7594,-3.7433,-3.7314,-3.715,-3.7029,-3.6983,-3.6938,-3.677,-3.6585,-3.6492,-3.6523,-3.6523,-3.6492,-3.6585,-3.6816,-3.6983,-3.7059,-3.73,-3.7492,-3.7594,-3.7943,-3.8148,-3.8193,-3.863,-3.9072,-3.9505,-4.0056,-4.0785,-4.1515,-4.1871,-4.2213,-4.2489,-4.2586,-4.2602,-4.2602,-4.2602,-4.2602,-4.2602,-4.2602,-4.2602,-4.2602,-4.2602,-4.2602,-4.2602,-4.2602,-4.2602,-4.2602,-4.2602,-4.2602,-4.2602,-4.2602,-4.2602,-4.2602,-4.2602,-4.2602,-4.2602,-4.2602,-4.2602,-4.2602,-4.2602,-4.2602,-4.2602,-4.2602,-4.2602,-4.2711,-4.2881,-4.305,-4.3292,-4.3562,-4.3856,-4.4231,-4.4299,-4.4513,-4.4807,-4.5042,-4.5194,-4.5318,-4.5371,-4.5397,-4.2602,-4.2602,-4.2602,-4.2602,-4.2602,-4.2602,-4.2602,-4.2602,-4.2602,-4.2602,-4.2602,-4.2602,-4.2602,-4.2602,-4.2602,-4.2602,-4.2602,-4.2602,-4.2602,-4.2602,-4.2602,-4.2602,-4.257,-4.2473,-4.2231,-4.1729,-4.1468,-4.0818,-3.9946,-3.9418,-3.8789,-3.8072,-3.7828,-3.774,-3.7476,-3.7344,-3.727,-3.7105,-3.6953,-3.68,-3.6616,-3.6585,-3.6554,-3.6554,-3.6523,-3.6492,-3.6492,-3.6492,-3.6492,-3.6492,-3.6492,-3.6492,-3.6585,-3.68,-3.6969,-3.7074,-3.7632,-3.8115,-3.8421,-3.8985,-3.9615,-3.98,-4.0802,-4.1563,-4.184,-4.2213,-4.2457,-4.2554,-4.2602,-4.2602,-4.2602,-4.2602,-4.2602,-4.2602,-4.2602,-4.2602,-4.2602,-4.2602,-4.2602,-4.2602,-4.2602,-4.2602,-4.2602,-4.2602,-4.2602,-4.2602,-4.2602,-4.2602,-4.2602,-4.2602,-4.2602,-4.2602,-4.2602,-4.2602,-4.2602,-4.2602,-4.2602,-4.2602,-4.2602,-4.2602,-4.2602,-4.2711,-4.2851,-4.2988,-4.3262,-4.3486,-4.371,-4.3839,-4.41,-4.4457,-4.4752,-4.4944,-4.5123,-4.53,-4.5371,-4.2602,-4.2602,-4.2602,-4.2602,-4.2602,-4.2602,-4.2602,-4.2602,-4.2602,-4.2602,-4.2602,-4.2602,-4.2602,-4.2602,-4.2602,-4.2602,-4.2602,-4.2602,-4.2602,-4.2602,-4.2602,-4.2602,-4.2539,-4.2539,-4.2332,-4.2044,-4.1735,-4.11,-4.0183,-3.95,-3.8651,-3.7987,-3.7623,-3.7417,-3.7298,-3.721,-3.7044,-3.6908,-3.6739,-3.6585,-3.6523,-3.6492,-3.6492,-3.6492,-3.6492,-3.6492,-3.6492,-3.6492,-3.6492,-3.6492,-3.6492,-3.6522,-3.6662,-3.6925,-3.6986,-3.7033,-3.776,-3.8437,-3.8804,-3.9484,-4.0339,-4.1035,-4.1531,-4.1905,-4.2246,-4.2489,-4.2586,-4.2602,-4.2602,-4.2602,-4.2602,-4.2602,-4.2602,-4.2602,-4.2602,-4.2602,-4.2602,-4.2602,-4.2602,-4.2602,-4.2602,-4.2602,-4.2602,-4.2602,-4.2602,-4.2602,-4.2602,-4.2602,-4.2602,-4.2602,-4.2602,-4.2602,-4.2602,-4.2602,-4.2602,-4.2602,-4.2602,-4.2602,-4.2602,-4.2602,-4.2602,-4.2602,-4.2711,-4.282,-4.2912,-4.3035,-4.3218,-4.3383,-4.3663,-4.4013,-4.4328,-4.468,-4.4917,-4.5096,-4.5327,-4.2602,-4.2602,-4.2602,-4.2602,-4.2602,-4.2602,-4.2602,-4.2602,-4.2602,-4.2602,-4.2602,-4.2602,-4.2602,-4.2602,-4.2602,-4.2602,-4.2602,-4.2602,-4.2602,-4.2602,-4.2602,-4.2492,-4.2365,-4.2333,-4.2142,-4.1885,-4.1614,-4.099,-3.9983,-3.9127,-3.834,-3.7593,-3.724,-3.7104,-3.6952,-3.68,-3.6754,-3.6693,-3.6585,-3.6492,-3.6492,-3.6492,-3.6492,-3.6492,-3.6507,-3.6492,-3.6492,-3.6492,-3.6692,-3.6938,-3.7015,-3.7076,-3.7247,-3.748,-3.7605,-3.7433,-3.8122,-3.8873,-3.9355,-4.0034,-4.0888,-4.1486,-4.1873,-4.2229,-4.2489,-4.2586,-4.2602,-4.2602,-4.2602,-4.2602,-4.2602,-4.2602,-4.2602,-4.2602,-4.2602,-4.2602,-4.2602,-4.2602,-4.2602,-4.2602,-4.2602,-4.2602,-4.2602,-4.2602,-4.2602,-4.2602,-4.2602,-4.2602,-4.2602,-4.2602,-4.2602,-4.2602,-4.2602,-4.2602,-4.2602,-4.2602,-4.2602,-4.2602,-4.2602,-4.2602,-4.2602,-4.2602,-4.2602,-4.2665,-4.2696,-4.2743,-4.2774,-4.2974,-4.3262,-4.3515,-4.3764,-4.4083,-4.4552,-4.4889,-4.5042,-4.2602,-4.2602,-4.2602,-4.2602,-4.2602,-4.2602,-4.2602,-4.2602,-4.2602,-4.2602,-4.2602,-4.2602,-4.2602,-4.2602,-4.2602,-4.2602,-4.2602,-4.2602,-4.2602,-4.2602,-4.2602,-4.2429,-4.2174,-4.2045,-4.1916,-4.1524,-4.1191,-4.0749,-3.9913,-3.9061,-3.812,-3.7496,-3.7109,-3.6785,-3.66,-3.6554,-3.6492,-3.6492,-3.6492,-3.6492,-3.6492,-3.6492,-3.6492,-3.6553,-3.6615,-3.6738,-3.6784,-3.6999,-3.7261,-3.7584,-3.7723,-3.7784,-3.7983,-3.8398,-3.849,-3.834,-3.8769,-3.92,-3.9771,-4.0563,-4.1325,-4.1752,-4.2264,-4.2522,-4.2586,-4.2602,-4.2602,-4.2602,-4.2602,-4.2602,-4.2602,-4.2602,-4.2602,-4.2602,-4.2602,-4.2602,-4.2602,-4.2602,-4.2602,-4.2602,-4.2602,-4.2602,-4.2602,-4.2602,-4.2602,-4.2602,-4.2602,-4.2602,-4.2602,-4.2602,-4.2602,-4.2602,-4.2602,-4.2602,-4.2602,-4.2602,-4.2602,-4.2602,-4.2602,-4.2602,-4.2602,-4.2602,-4.2602,-4.2602,-4.2602,-4.2665,-4.2602,-4.2602,-4.2898,-4.3111,-4.3216,-4.3469,-4.3939,-4.4356,-4.4597,-4.2602,-4.2602,-4.2602,-4.2602,-4.2602,-4.2602,-4.2602,-4.2602,-4.2602,-4.2602,-4.2602,-4.2602,-4.2602,-4.2602,-4.2602,-4.2602,-4.2602,-4.2602,-4.2602,-4.2602,-4.2571,-4.2365,-4.2109,-4.2077,-4.1638,-4.116,-4.0622,-4.038,-3.9989,-3.9296,-3.8529,-3.7779,-3.6956,-3.6523,-3.6523,-3.6492,-3.6492,-3.6492,-3.6492,-3.6507,-3.6538,-3.6538,-3.6507,-3.6753,-3.703,-3.7353,-3.743,-3.7769,-3.8185,-3.8323,-3.8385,-3.84,-3.8523,-3.9062,-3.9323,-3.9339,-3.9437,-3.9601,-4.0155,-4.0906,-4.1596,-4.1917,-4.2349,-4.2571,-4.2602,-4.2602,-4.2602,-4.2602,-4.2602,-4.2602,-4.2602,-4.2602,-4.2602,-4.2602,-4.2602,-4.2602,-4.2602,-4.2602,-4.2602,-4.2602,-4.2602,-4.2602,-4.2602,-4.2602,-4.2602,-4.2602,-4.2602,-4.2602,-4.2602,-4.2602,-4.2602,-4.2602,-4.2602,-4.2602,-4.2602,-4.2602,-4.2602,-4.2602,-4.2602,-4.2602,-4.2602,-4.2602,-4.2602,-4.2602,-4.2602,-4.2602,-4.2602,-4.2602,-4.2634,-4.2774,-4.2958,-4.3125,-4.3366,-4.3722,-4.4117,-4.2602,-4.2602,-4.2602,-4.2602,-4.2602,-4.2602,-4.2602,-4.2602,-4.2602,-4.2602,-4.2602,-4.2602,-4.2602,-4.2602,-4.2602,-4.2602,-4.2602,-4.2602,-4.2602,-4.2539,-4.2413,-4.2158,-4.1818,-4.1621,-4.1223,-4.0842,-4.0517,-4.0455,-4.0062,-3.9004,-3.7947,-3.7715,-3.6955,-3.6523,-3.6507,-3.6492,-3.6492,-3.6492,-3.6522,-3.6692,-3.6861,-3.6769,-3.6861,-3.7554,-3.7569,-3.7738,-3.8092,-3.8292,-3.8739,-3.8939,-3.9077,-3.9293,-3.9585,-3.9924,-4.0043,-4.0059,-4.0059,-4.0263,-4.068,-4.1082,-4.1508,-4.1948,-4.2254,-4.2381,-4.2539,-4.2602,-4.2602,-4.2602,-4.2602,-4.2602,-4.2602,-4.2602,-4.2602,-4.2602,-4.2602,-4.2602,-4.2602,-4.2602,-4.2602,-4.2602,-4.2602,-4.2602,-4.2602,-4.2602,-4.2602,-4.2602,-4.2602,-4.2602,-4.2602,-4.2602,-4.2602,-4.2602,-4.2602,-4.2602,-4.2602,-4.2602,-4.2602,-4.2602,-4.2602,-4.2602,-4.2602,-4.2602,-4.2602,-4.2602,-4.2602,-4.2602,-4.2602,-4.2602,-4.2634,-4.2696,-4.2774,-4.2943,-4.3141,-4.3306,-4.3752,-4.2602,-4.2602,-4.2602,-4.2602,-4.2602,-4.2602,-4.2602,-4.2602,-4.2602,-4.2602,-4.2602,-4.2602,-4.2602,-4.2602,-4.2602,-4.2602,-4.2602,-4.2602,-4.2602,-4.2476,-4.2238,-4.1948,-4.1621,-4.129,-4.0935,-4.0489,-4.0512,-4.0481,-3.9874,-3.8793,-3.7732,-3.766,-3.6939,-3.6569,-3.6538,-3.6738,-3.6907,-3.7184,-3.7153,-3.7353,-3.7584,-3.7307,-3.7677,-3.8077,-3.8262,-3.8231,-3.8677,-3.8998,-3.9367,-3.9598,-3.9736,-3.9936,-4.029,-4.0351,-4.0397,-4.0397,-4.0397,-4.05,-4.0774,-4.1039,-4.1357,-4.172,-4.2093,-4.2254,-4.2413,-4.2508,-4.2602,-4.2602,-4.2602,-4.2602,-4.2602,-4.2602,-4.2602,-4.2602,-4.2602,-4.2602,-4.2602,-4.2602,-4.2602,-4.2602,-4.2602,-4.2602,-4.2602,-4.2602,-4.2602,-4.2602,-4.2602,-4.2602,-4.2602,-4.2602,-4.2602,-4.2602,-4.2602,-4.2602,-4.2602,-4.2602,-4.2602,-4.2602,-4.2602,-4.2602,-4.2602,-4.2602,-4.2602,-4.2602,-4.2602,-4.2602,-4.2602,-4.2602,-4.2602,-4.2665,-4.2711,-4.2805,-4.2943,-4.308,-4.3353,-4.2602,-4.2602,-4.2602,-4.2602,-4.2602,-4.2602,-4.2602,-4.2602,-4.2602,-4.2602,-4.2602,-4.2602,-4.2602,-4.2602,-4.2602,-4.2602,-4.2571,-4.2602,-4.2539,-4.2397,-4.2238,-4.1851,-4.1489,-4.1122,-4.0799,-4.0489,-4.0281,-4.0281,-4.001,-3.8542,-3.8126,-3.8196,-3.6949,-3.6598,-3.6722,-3.7137,-3.7661,-3.7954,-3.8061,-3.8185,-3.8354,-3.8277,-3.8385,-3.8646,-3.9044,-3.9382,-3.9493,-3.9874,-4.0136,-4.029,-4.0274,-4.029,-4.0459,-4.0489,-4.0489,-4.0489,-4.0489,-4.0558,-4.0662,-4.0867,-4.107,-4.1323,-4.172,-4.2109,-4.2206,-4.246,-4.2571,-4.2602,-4.2602,-4.2602,-4.2602,-4.2602,-4.2602,-4.2602,-4.2602,-4.2602,-4.2602,-4.2602,-4.2602,-4.2602,-4.2602,-4.2602,-4.2602,-4.2602,-4.2602,-4.2602,-4.2602,-4.2602,-4.2602,-4.2602,-4.2602,-4.2602,-4.2602,-4.2602,-4.2602,-4.2602,-4.2602,-4.2602,-4.2602,-4.2602,-4.2602,-4.2602,-4.2602,-4.2602,-4.2602,-4.2602,-4.2602,-4.2602,-4.2602,-4.2602,-4.2634,-4.2711,-4.2743,-4.2836,-4.3066,-4.2602,-4.2602,-4.2602,-4.2602,-4.2602,-4.2602,-4.2602,-4.2602,-4.2602,-4.2602,-4.2571,-4.2602,-4.2602,-4.2602,-4.2571,-4.246,-4.2302,-4.227,-4.2158,-4.19,-4.1654,-4.1439,-4.1104,-4.0646,-4.0141,-3.995,-3.9702,-3.9487,-3.9245,-3.8206,-3.8018,-3.7627,-3.6723,-3.6489,-3.6723,-3.7577,-3.8229,-3.8446,-3.8616,-3.8677,-3.8982,-3.8739,-3.8893,-3.9736,-3.9385,-3.9767,-4.0043,-4.0336,-4.0459,-4.0489,-4.0489,-4.0489,-4.0489,-4.0489,-4.0489,-4.0489,-4.0489,-4.0489,-4.0489,-4.0662,-4.0833,-4.1205,-4.1687,-4.2077,-4.2045,-4.2413,-4.2571,-4.2602,-4.2602,-4.2602,-4.2602,-4.2602,-4.2602,-4.2602,-4.2602,-4.2602,-4.2602,-4.2602,-4.2602,-4.2602,-4.2602,-4.2602,-4.2602,-4.2602,-4.2602,-4.2602,-4.2602,-4.2602,-4.2602,-4.2602,-4.2602,-4.2602,-4.2602,-4.2602,-4.2602,-4.2602,-4.2602,-4.2602,-4.2602,-4.2602,-4.2602,-4.2602,-4.2602,-4.2602,-4.2602,-4.2602,-4.2602,-4.2602,-4.2602,-4.2602,-4.2602,-4.2634,-4.2602,-4.2602,-4.2836,-4.2602,-4.2602,-4.2602,-4.2602,-4.2602,-4.2602,-4.2602,-4.2602,-4.2602,-4.246,-4.2285,-4.246,-4.246,-4.2333,-4.2254,-4.2254,-4.2029,-4.1916,-4.1753,-4.1474,-4.114,-4.0885,-4.0509,-4.0021,-3.9451,-3.9307,-3.9075,-3.8855,-3.8863,-3.7974,-3.7644,-3.7243,-3.6669,-3.6585,-3.7131,-3.8134,-3.8859,-3.9062,-3.917,-3.9293,-3.9674,-3.9444,-3.9382,-4.029,-4.0047,-4.0062,-4.032,-4.0474,-4.0489,-4.0489,-4.0489,-4.0489,-4.0489,-4.0489,-4.0489,-4.0489,-4.0489,-4.0489,-4.0489,-4.0524,-4.0627,-4.0901,-4.139,-4.1687,-4.1931,-4.2254,-4.2571,-4.2429,-4.2508,-4.2602,-4.2602,-4.2602,-4.2602,-4.2602,-4.2602,-4.2602,-4.2602,-4.2602,-4.2602,-4.2602,-4.2602,-4.2602,-4.2602,-4.2602,-4.2602,-4.2602,-4.2602,-4.2602,-4.2602,-4.2602,-4.2602,-4.2602,-4.2602,-4.2602,-4.2602,-4.2602,-4.2602,-4.2602,-4.2602,-4.2602,-4.2602,-4.2602,-4.2602,-4.2602,-4.2602,-4.2602,-4.2602,-4.2602,-4.2602,-4.2602,-4.2602,-4.2602,-4.2602,-4.2602,-4.2728,-4.2602,-4.2602,-4.2602,-4.2602,-4.2602,-4.2602,-4.2602,-4.2602,-4.2602,-4.2285,-4.1868,-4.2285,-4.2222,-4.177,-4.177,-4.1786,-4.1769,-4.1358,-4.1125,-4.1107,-4.0478,-4.025,-3.9849,-3.9364,-3.8833,-3.8833,-3.8598,-3.8486,-3.8583,-3.7643,-3.7183,-3.7288,-3.7184,-3.7261,-3.7707,-3.8837,-3.9782,-4.0305,-4.0305,-4.0305,-4.029,-4.0197,-4.032,-4.0366,-4.0382,-4.0382,-4.0443,-4.0489,-4.0489,-4.0489,-4.0489,-4.0489,-4.0489,-4.0489,-4.0489,-4.0489,-4.0489,-4.0489,-4.0489,-4.0489,-4.0524,-4.0627,-4.1088,-4.1305,-4.1406,-4.1883,-4.2429,-4.2238,-4.2429,-4.2571,-4.2602,-4.2602,-4.2602,-4.2602,-4.2602,-4.2602,-4.2602,-4.2602,-4.2602,-4.2602,-4.2602,-4.2602,-4.2602,-4.2602,-4.2602,-4.2602,-4.2602,-4.2602,-4.2602,-4.2602,-4.2602,-4.2602,-4.2602,-4.2602,-4.2602,-4.2602,-4.2602,-4.2602,-4.2602,-4.2602,-4.2602,-4.2602,-4.2602,-4.2602,-4.2602,-4.2602,-4.2602,-4.2602,-4.2602,-4.2602,-4.2602,-4.2602,-4.2602,-4.2634,-4.2696,-4.2602,-4.2602,-4.2602,-4.2602,-4.2602,-4.2602,-4.2602,-4.2602,-4.2571,-4.246,-4.2254,-4.2333,-4.2174,-4.19,-4.1524,-4.144,-4.1241,-4.0786,-4.0562,-4.025,-3.9615,-3.9364,-3.9023,-3.8657,-3.8211,-3.8075,-3.7924,-3.7711,-3.7544,-3.7206,-3.7381,-3.7566,-3.8197,-3.8762,-3.904,-3.9733,-4.032,-4.0443,-4.0474,-4.0489,-4.0489,-4.0489,-4.0489,-4.0489,-4.0489,-4.0489,-4.0489,-4.0489,-4.0489,-4.0489,-4.0489,-4.0489,-4.0489,-4.0489,-4.0489,-4.0489,-4.0489,-4.0489,-4.0489,-4.0489,-4.0489,-4.0627,-4.0833,-4.1037,-4.1205,-4.1588,-4.1883,-4.2142,-4.2397,-4.2539,-4.2602,-4.2602,-4.2602,-4.2602,-4.2602,-4.2602,-4.2602,-4.2602,-4.2602,-4.2602,-4.2602,-4.2602,-4.2602,-4.2602,-4.2602,-4.2602,-4.2602,-4.2602,-4.2602,-4.2602,-4.2602,-4.2602,-4.2602,-4.2602,-4.2602,-4.2602,-4.2602,-4.2602,-4.2602,-4.2602,-4.2602,-4.2602,-4.2602,-4.2602,-4.2602,-4.2602,-4.2602,-4.2602,-4.2602,-4.2602,-4.2602,-4.2602,-4.2602,-4.2602,-4.2634,-4.2285,-4.1884,-4.211,-4.2222,-4.2238,-4.2492,-4.2602,-4.2602,-4.2571,-4.2317,-4.1787,-4.1689,-4.1344,-4.0977,-4.0687,-4.0668,-4.0374,-3.9778,-3.9615,-3.9271,-3.8782,-3.8598,-3.8337,-3.7924,-3.7658,-3.7481,-3.7289,-3.7017,-3.7134,-3.725,-3.7805,-3.8613,-3.9307,-3.9526,-3.9872,-4.0259,-4.0443,-4.0489,-4.0489,-4.0489,-4.0489,-4.0489,-4.0489,-4.0489,-4.0489,-4.0489,-4.0489,-4.0489,-4.0489,-4.0489,-4.0489,-4.0489,-4.0489,-4.0489,-4.0489,-4.0489,-4.0489,-4.0489,-4.0489,-4.0489,-4.0489,-4.0524,-4.0765,-4.0851,-4.0885,-4.1104,-4.1489,-4.1851,-4.2302,-4.2492,-4.2571,-4.2571,-4.2571,-4.2571,-4.2602,-4.2602,-4.2602,-4.2602,-4.2571,-4.2571,-4.2571,-4.2571,-4.2602,-4.2602,-4.2602,-4.2602,-4.2602,-4.2602,-4.2602,-4.2602,-4.2602,-4.2602,-4.2602,-4.2602,-4.2602,-4.2602,-4.2602,-4.2602,-4.2602,-4.2602,-4.2602,-4.2602,-4.2602,-4.2602,-4.2602,-4.2602,-4.2602,-4.2602,-4.2602,-4.2602,-4.2602,-4.2602,-4.2602,-4.2602,-4.2602,-4.1722,-4.0588,-4.1178,-4.1477,-4.164,-4.2222,-4.2492,-4.2539,-4.2539,-4.1608,-4.0197,-4.0896,-4.042,-3.9124,-3.8848,-3.9103,-3.9247,-3.8657,-3.8598,-3.8523,-3.815,-3.7962,-3.7696,-3.7352,-3.7211,-3.7095,-3.6978,-3.6978,-3.7056,-3.7658,-3.8538,-3.9286,-3.9646,-4.0015,-4.0293,-4.0324,-4.042,-4.0455,-4.0489,-4.0489,-4.0489,-4.0489,-4.0489,-4.0489,-4.0489,-4.0489,-4.0489,-4.0489,-4.0489,-4.0489,-4.0489,-4.0489,-4.0489,-4.0489,-4.0489,-4.0489,-4.0489,-4.0489,-4.0489,-4.0489,-4.0489,-4.0489,-4.0524,-4.0524,-4.0558,-4.0696,-4.1021,-4.1555,-4.2045,-4.2333,-4.2523,-4.2539,-4.2539,-4.2571,-4.2602,-4.2602,-4.2586,-4.2555,-4.2539,-4.2508,-4.2508,-4.2539,-4.2571,-4.2602,-4.2539,-4.2602,-4.2602,-4.2602,-4.2602,-4.2602,-4.2602,-4.2602,-4.2602,-4.2602,-4.2602,-4.2602,-4.2602,-4.2602,-4.2602,-4.2602,-4.2602,-4.2602,-4.2602,-4.2602,-4.2602,-4.2602,-4.2602,-4.2602,-4.2602,-4.2602,-4.2602,-4.2602,-4.2602,-4.2602,-4.2602,-4.1245,-4.0451,-4.0622,-4.101,-4.1492,-4.1559,-4.1592,-4.1592,-4.1592,-4.0912,-3.9884,-3.9844,-3.9505,-3.9139,-3.8899,-3.8841,-3.862,-3.836,-3.815,-3.7924,-3.762,-3.7352,-3.7211,-3.7095,-3.6978,-3.6978,-3.6978,-3.7017,-3.725,-3.7924,-3.8523,-3.9002,-3.9717,-4.0176,-4.0211,-4.0106,-4.0211,-4.0281,-4.0351,-4.0316,-4.0385,-4.0401,-4.042,-4.042,-4.0489,-4.0489,-4.0489,-4.0489,-4.0489,-4.0489,-4.0489,-4.0489,-4.0489,-4.0489,-4.0489,-4.0489,-4.0489,-4.0489,-4.0489,-4.0489,-4.0489,-4.0489,-4.0489,-4.0489,-4.0489,-4.0558,-4.0765,-4.129,-4.1621,-4.1835,-4.2142,-4.2238,-4.2318,-4.2381,-4.2413,-4.2413,-4.2397,-4.2302,-4.227,-4.2238,-4.2238,-4.2302,-4.2413,-4.246,-4.2429,-4.2539,-4.2602,-4.2571,-4.2602,-4.2602,-4.2602,-4.2602,-4.2602,-4.2602,-4.2602,-4.2602,-4.2602,-4.2602,-4.2602,-4.2602,-4.2602,-4.2602,-4.2602,-4.2602,-4.2602,-4.2602,-4.2602,-4.2602,-4.2602,-4.2602,-4.2602,-4.2602,-4.2602,-4.2602,-4.2602,-4.069,-3.952,-3.9753,-4.0054,-4.0366,-4.0591,-4.0473,-4.0197,-4.0473,-4.0109,-3.9275,-3.9073,-3.876,-3.8294,-3.8098,-3.8037,-3.8,-3.7696,-3.7558,-3.7443,-3.7173,-3.7095,-3.6978,-3.6978,-3.6978,-3.6978,-3.6978,-3.6978,-3.725,-3.7848,-3.8486,-3.8892,-3.9631,-3.9773,-3.9702,-3.9487,-3.9508,-3.9666,-3.9773,-3.9829,-3.9915,-4.0071,-4.0176,-4.0246,-4.0351,-4.0489,-4.0489,-4.0489,-4.0489,-4.0489,-4.0489,-4.0489,-4.0489,-4.0489,-4.0489,-4.0489,-4.0489,-4.0489,-4.0489,-4.0489,-4.0489,-4.0489,-4.0489,-4.0489,-4.0489,-4.0524,-4.0765,-4.1104,-4.1189,-4.1323,-4.1654,-4.1916,-4.2045,-4.2158,-4.219,-4.219,-4.2109,-4.2013,-4.1948,-4.1916,-4.1948,-4.2013,-4.2077,-4.2174,-4.227,-4.2318,-4.2413,-4.2476,-4.2539,-4.2602,-4.2602,-4.2602,-4.2602,-4.2602,-4.2602,-4.2602,-4.2602,-4.2602,-4.2602,-4.2602,-4.2602,-4.2602,-4.2602,-4.2602,-4.2602,-4.2602,-4.2602,-4.2602,-4.2602,-4.2602,-4.2602,-4.2602,-4.2602,-4.2602,-4.2602,-4.0034,-3.8028,-3.8664,-3.8906,-3.8723,-3.9382,-3.9203,-3.845,-3.9188,-3.9094,-3.8376,-3.8279,-3.7843,-3.7429,-3.7289,-3.725,-3.7289,-3.7173,-3.7173,-3.7017,-3.7017,-3.6978,-3.6978,-3.6978,-3.6978,-3.6978,-3.6978,-3.6978,-3.7173,-3.7696,-3.8285,-3.8708,-3.8892,-3.9038,-3.9075,-3.8819,-3.8782,-3.8819,-3.8782,-3.873,-3.9075,-3.9379,-3.9717,-3.9839,-4.0156,-4.0489,-4.0489,-4.0489,-4.0489,-4.0489,-4.0489,-4.0489,-4.0489,-4.0489,-4.0489,-4.0489,-4.0489,-4.0489,-4.0489,-4.0489,-4.0489,-4.0489,-4.0489,-4.0489,-4.0489,-4.0489,-4.0696,-4.0799,-4.0901,-4.1088,-4.139,-4.1555,-4.1654,-4.1785,-4.1851,-4.1883,-4.1818,-4.1753,-4.172,-4.1687,-4.172,-4.1753,-4.1785,-4.1883,-4.1948,-4.2045,-4.2125,-4.2222,-4.2318,-4.2445,-4.2539,-4.2539,-4.2602,-4.2602,-4.2602,-4.2602,-4.2602,-4.2602,-4.2602,-4.2602,-4.2602,-4.2602,-4.2602,-4.2602,-4.2602,-4.2602,-4.2602,-4.2602,-4.2602,-4.2602,-4.2602,-4.2602,-4.2602,-4.2602,-4.2602,-3.9433,-3.8005,-3.8531,-3.8457,-3.7962,-3.8502,-3.8279,-3.7582,-3.7606,-3.7591,-3.7376,-3.7337,-3.726,-3.7056,-3.6978,-3.6978,-3.6978,-3.6978,-3.6978,-3.6978,-3.6978,-3.6978,-3.6978,-3.6978,-3.6978,-3.6978,-3.6978,-3.6978,-3.7134,-3.7544,-3.791,-3.815,-3.8412,-3.8598,-3.8583,-3.8337,-3.8113,-3.8075,-3.7848,-3.8075,-3.8634,-3.9235,-3.9717,-3.9824,-4.0141,-4.042,-4.0455,-4.0489,-4.0489,-4.0489,-4.0489,-4.0489,-4.0489,-4.0489,-4.0489,-4.0489,-4.0489,-4.0489,-4.0489,-4.0489,-4.0489,-4.0489,-4.0489,-4.0489,-4.0489,-4.0489,-4.0539,-4.0574,-4.0696,-4.0885,-4.1055,-4.1156,-4.1256,-4.1423,-4.1522,-4.1522,-4.1522,-4.1489,-4.1423,-4.1456,-4.144,-4.1489,-4.1522,-4.1555,-4.1654,-4.1687,-4.172,-4.1785,-4.1916,-4.2045,-4.2302,-4.2381,-4.2571,-4.2602,-4.2602,-4.2602,-4.2602,-4.2602,-4.2602,-4.2602,-4.2602,-4.2602,-4.2602,-4.2602,-4.2602,-4.2602,-4.2602,-4.2602,-4.2602,-4.2602,-4.2602,-4.2602,-4.2602,-4.2602,-4.2602,-3.8582,-3.7711,-3.7848,-3.772,-3.7443,-3.7682,-3.7529,-3.7211,-3.7056,-3.6978,-3.6978,-3.6978,-3.6978,-3.6978,-3.6978,-3.6978,-3.6978,-3.6978,-3.6978,-3.6978,-3.6978,-3.6978,-3.6978,-3.6978,-3.6978,-3.6978,-3.6978,-3.7017,-3.7056,-3.7211,-3.7505,-3.7582,-3.7924,-3.8037,-3.8,-3.7658,-3.7558,-3.7481,-3.7134,-3.7429,-3.815,-3.8598,-3.9075,-3.9292,-3.9773,-4.0161,-4.0455,-4.0489,-4.0489,-4.0489,-4.0489,-4.0489,-4.0489,-4.0489,-4.0489,-4.0489,-4.0489,-4.0489,-4.0489,-4.0489,-4.0489,-4.0489,-4.0489,-4.0489,-4.0489,-4.0489,-4.0489,-4.0524,-4.0524,-4.073,-4.0715,-4.0817,-4.0817,-4.0919,-4.0953,-4.0953,-4.0953,-4.0953,-4.0919,-4.0919,-4.0919,-4.0953,-4.0953,-4.0953,-4.1088,-4.1372,-4.1406,-4.1505,-4.1588,-4.1687,-4.1948,-4.2142,-4.2302,-4.2539,-4.2602,-4.2602,-4.2602,-4.2602,-4.2571,-4.2602,-4.2602,-4.2602,-4.2602,-4.2602,-4.2602,-4.2602,-4.2602,-4.2602,-4.2602,-4.2602,-4.2602,-4.2602,-4.2602,-4.2602,-4.2602,-3.7609,-3.7133,-3.7067,-3.7017,-3.6978,-3.7017,-3.7017,-3.6978,-3.6978,-3.6978,-3.6978,-3.6978,-3.6978,-3.6978,-3.6978,-3.6978,-3.6978,-3.6978,-3.6978,-3.6978,-3.6978,-3.6978,-3.6978,-3.6978,-3.6978,-3.6978,-3.6978,-3.6978,-3.7017,-3.7095,-3.7095,-3.7017,-3.6978,-3.7017,-3.6978,-3.7017,-3.7095,-3.7095,-3.6978,-3.6978,-3.7289,-3.7582,-3.8263,-3.8855,-3.9379,-3.9915,-4.0316,-4.0489,-4.0489,-4.0489,-4.0489,-4.0489,-4.0489,-4.0489,-4.0489,-4.0489,-4.0489,-4.0489,-4.0489,-4.0489,-4.0489,-4.0489,-4.0489,-4.0489,-4.0489,-4.0489,-4.0489,-4.0489,-4.0489,-4.0489,-4.0524,-4.0524,-4.0524,-4.0558,-4.0558,-4.0543,-4.0558,-4.0593,-4.0593,-4.0593,-4.0593,-4.0593,-4.0524,-4.0524,-4.0662,-4.0935,-4.1104,-4.1239,-4.1339,-4.139,-4.1555,-4.1785,-4.1948,-4.2174,-4.2381,-4.2476,-4.2445,-4.2508,-4.246,-4.2539,-4.2602,-4.2602,-4.2602,-4.2602,-4.2602,-4.2602,-4.2602,-4.2602,-4.2602,-4.2602,-4.2602,-4.2602,-4.2602,-4.2602,-4.2602,-3.6664,-3.6366,-3.6806,-3.6978,-3.6978,-3.6978,-3.6978,-3.6978,-3.6978,-3.6978,-3.6978,-3.6978,-3.6978,-3.6978,-3.6978,-3.6978,-3.6978,-3.6978,-3.6978,-3.6978,-3.6978,-3.6978,-3.6978,-3.6978,-3.6978,-3.6978,-3.6978,-3.6978,-3.6978,-3.6978,-3.6978,-3.6978,-3.6978,-3.6978,-3.6978,-3.6978,-3.6978,-3.6978,-3.6978,-3.6978,-3.7134,-3.7582,-3.8188,-3.8782,-3.9394,-3.993,-4.0366,-4.0489,-4.0489,-4.0489,-4.0489,-4.0489,-4.0489,-4.0489,-4.0489,-4.0489,-4.0489,-4.0489,-4.0489,-4.0489,-4.0489,-4.0489,-4.0489,-4.0489,-4.0489,-4.0489,-4.0489,-4.0489,-4.0489,-4.0489,-4.0489,-4.0489,-4.0524,-4.0524,-4.0524,-4.0524,-4.0524,-4.0662,-4.0799,-4.0765,-4.073,-4.0662,-4.0524,-4.0489,-4.0524,-4.0696,-4.0696,-4.0833,-4.0901,-4.1037,-4.1189,-4.1357,-4.1555,-4.1654,-4.1785,-4.2109,-4.2174,-4.227,-4.2365,-4.2429,-4.2508,-4.2602,-4.2602,-4.2602,-4.2602,-4.2602,-4.2602,-4.2602,-4.2602,-4.2602,-4.2602,-4.2602,-4.2602,-4.2602,-4.2602]}]]